[[{"header":{"parameterUnit":"m.s-1","parameterCategory":1,"la1":30.6,"la2":29.2853,"lo1":-89.7004,"lo2":-87.6739,"dy":0.0162,"dx":0.0183,"nx":112,"ny":82,"refTime":"2024-02-10T06:00:00:Z","depth":0,"parameterNumber":2,"parameterNumberName":"U-component_of_WINDS"},"data":[0.0,0.0,0.0,0.0,0.0,0.0,0.0,0.0,0.0,0.0,0.0,0.0,0.0,0.0,0.0,0.0,0.0,0.0,0.0,0.0,0.0,0.0,0.0,0.0,0.0,0.0,0.0,0.0,0.0,0.0,0.0,0.0,0.0,0.0,0.0,0.0,0.0,0.0,0.0,0.0,0.0,0.0,0.0,0.0,0.0,0.0,0.0,0.0,0.0,0.0,0.0,0.0,0.0,0.0,0.0,0.0,0.0,0.0,0.0,0.0,0.0,0.0,0.0,0.0,0.0,0.0,0.0,0.0,0.0,0.0,0.0,0.0,0.0,0.0,0.0,0.0,0.0,0.0,0.0,0.0,0.0,0.0,0.0,0.0,0.0,0.0,0.0,0.0,0.0,0.0,0.0,2.957,2.9625,2.957,2.9361,2.9134,2.8999,2.8999,0.0,0.0,0.0,0.0,0.0,0.0,0.0,0.0,0.0,0.0,0.0,0.0,0.0,0.0,0.0,0.0,0.0,0.0,0.0,0.0,0.0,0.0,0.0,0.0,0.0,0.0,0.0,0.0,0.0,0.0,0.0,0.0,0.0,0.0,0.0,0.0,0.0,0.0,0.0,0.0,0.0,0.0,0.0,0.0,0.0,0.0,0.0,0.0,0.0,0.0,0.0,0.0,0.0,0.0,0.0,0.0,0.0,0.0,0.0,0.0,0.0,0.0,0.0,0.0,0.0,0.0,0.0,0.0,0.0,0.0,0.0,0.0,0.0,0.0,0.0,0.0,0.0,0.0,0.0,0.0,0.0,0.0,0.0,0.0,0.0,0.0,0.0,0.0,0.0,0.0,0.0,0.0,0.0,0.0,0.0,0.0,0.0,0.0,0.0,0.0,0.0,0.0,0.0,0.0,2.9072,2.9099,2.9307,2.9332,2.9078,2.901,2.8999,2.8999,0.0,0.0,0.0,0.0,0.0,0.0,0.0,0.0,0.0,0.0,0.0,0.0,0.0,0.0,0.0,0.0,0.0,0.0,0.0,0.0,0.0,0.0,0.0,0.0,0.0,0.0,0.0,0.0,0.0,0.0,0.0,0.0,0.0,0.0,0.0,0.0,0.0,0.0,0.0,0.0,0.0,0.0,0.0,0.0,0.0,0.0,0.0,0.0,0.0,0.0,0.0,0.0,0.0,0.0,0.0,0.0,0.0,0.0,0.0,0.0,0.0,0.0,0.0,0.0,0.0,0.0,0.0,0.0,0.0,0.0,0.0,0.0,0.0,0.0,0.0,0.0,0.0,0.0,0.0,0.0,0.0,0.0,0.0,0.0,0.0,0.0,0.0,0.0,0.0,0.0,0.0,0.0,0.0,0.0,0.0,0.0,0.0,0.0,0.0,0.0,0.0,0.0,0.0,2.9053,2.9375,2.9819,2.9975,3.0123,3.0289,3.0301,3.0301,3.0301,2.9892,0.0,0.0,0.0,0.0,0.0,0.0,0.0,0.0,0.0,0.0,0.0,0.0,0.0,0.0,0.0,0.0,0.0,0.0,0.0,0.0,0.0,0.0,0.0,0.0,0.0,0.0,0.0,0.0,0.0,0.0,0.0,0.0,0.0,0.0,0.0,0.0,0.0,0.0,0.0,0.0,0.0,0.0,0.0,0.0,0.0,0.0,0.0,0.0,0.0,0.0,0.0,0.0,0.0,0.0,0.0,0.0,0.0,0.0,0.0,0.0,0.0,0.0,0.0,0.0,0.0,0.0,0.0,0.0,0.0,0.0,0.0,0.0,0.0,0.0,0.0,0.0,0.0,0.0,0.0,0.0,0.0,0.0,0.0,0.0,0.0,0.0,0.0,0.0,0.0,0.0,0.0,0.0,0.0,0.0,0.0,0.0,0.0,0.0,0.0,0.0,0.0,0.0,2.9583,2.9898,3.0696,3.0789,3.0959,3.1378,3.139,3.139,3.139,3.0815,0.0,0.0,0.0,0.0,0.0,0.0,0.0,0.0,0.0,0.0,0.0,0.0,0.0,0.0,0.0,0.0,0.0,0.0,0.0,0.0,0.0,0.0,0.0,0.0,0.0,0.0,0.0,0.0,0.0,0.0,0.0,0.0,0.0,0.0,0.0,0.0,0.0,0.0,0.0,0.0,0.0,0.0,0.0,0.0,0.0,0.0,0.0,0.0,0.0,0.0,0.0,0.0,0.0,0.0,0.0,0.0,0.0,0.0,0.0,0.0,0.0,0.0,0.0,0.0,0.0,0.0,0.0,0.0,0.0,0.0,0.0,0.0,0.0,0.0,0.0,0.0,0.0,0.0,0.0,0.0,0.0,0.0,0.0,0.0,0.0,0.0,0.0,0.0,0.0,0.0,0.0,0.0,0.0,0.0,0.0,0.0,0.0,0.0,0.0,0.0,0.0,0.0,3.0148,3.0442,3.1262,3.1336,3.136,3.1397,3.139,3.139,3.139,3.136,0.0,0.0,0.0,0.0,0.0,0.0,0.0,0.0,0.0,0.0,0.0,0.0,0.0,0.0,0.0,0.0,0.0,0.0,0.0,0.0,0.0,0.0,0.0,0.0,0.0,0.0,0.0,0.0,0.0,0.0,0.0,0.0,0.0,0.0,0.0,0.0,0.0,0.0,0.0,0.0,0.0,0.0,0.0,0.0,0.0,0.0,0.0,0.0,0.0,0.0,0.0,0.0,0.0,0.0,0.0,0.0,0.0,0.0,0.0,0.0,0.0,0.0,0.0,0.0,0.0,0.0,0.0,0.0,0.0,0.0,0.0,0.0,0.0,0.0,0.0,0.0,0.0,0.0,0.0,0.0,0.0,0.0,0.0,0.0,0.0,0.0,0.0,0.0,0.0,0.0,0.0,0.0,0.0,0.0,0.0,0.0,0.0,0.0,0.0,0.0,0.0,0.0,3.095,3.1256,0.0,3.2155,3.2357,3.2852,3.2896,3.2896,3.2896,0.0,0.0,0.0,0.0,0.0,0.0,0.0,0.0,0.0,0.0,0.0,0.0,0.0,0.0,0.0,0.0,0.0,0.0,0.0,0.0,0.0,0.0,0.0,0.0,0.0,0.0,0.0,0.0,0.0,0.0,0.0,0.0,0.0,0.0,0.0,0.0,0.0,0.0,0.0,0.0,0.0,0.0,0.0,0.0,0.0,0.0,0.0,0.0,0.0,0.0,0.0,0.0,0.0,0.0,0.0,0.0,0.0,0.0,0.0,0.0,0.0,0.0,0.0,0.0,0.0,0.0,0.0,0.0,0.0,0.0,0.0,0.0,0.0,0.0,0.0,0.0,0.0,0.0,0.0,0.0,0.0,0.0,0.0,0.0,0.0,0.0,0.0,0.0,0.0,0.0,0.0,0.0,0.0,0.0,0.0,0.0,0.0,0.0,0.0,0.0,0.0,0.0,3.1684,3.177,3.2082,0.0,3.2974,3.3195,3.3752,3.3807,3.3807,3.3807,0.0,0.0,0.0,0.0,0.0,0.0,0.0,0.0,0.0,0.0,0.0,0.0,0.0,0.0,0.0,0.0,0.0,0.0,0.0,0.0,0.0,0.0,0.0,0.0,0.0,0.0,0.0,0.0,0.0,0.0,0.0,0.0,0.0,0.0,0.0,0.0,0.0,0.0,0.0,0.0,0.0,0.0,0.0,0.0,0.0,0.0,0.0,0.0,0.0,0.0,0.0,0.0,0.0,0.0,0.0,0.0,0.0,0.0,0.0,0.0,0.0,0.0,0.0,0.0,0.0,0.0,0.0,0.0,0.0,0.0,0.0,0.0,0.0,0.0,0.0,0.0,0.0,0.0,0.0,0.0,0.0,0.0,0.0,0.0,0.0,0.0,0.0,0.0,0.0,0.0,0.0,0.0,0.0,0.0,0.0,0.0,0.0,0.0,0.0,0.0,0.0,0.0,3.2516,3.2601,3.2919,3.3715,3.3807,3.3807,3.3807,3.3807,3.3807,0.0,0.0,0.0,0.0,0.0,0.0,0.0,0.0,0.0,0.0,0.0,0.0,0.0,0.0,0.0,0.0,0.0,0.0,0.0,0.0,0.0,0.0,0.0,0.0,0.0,0.0,0.0,0.0,0.0,0.0,0.0,0.0,0.0,0.0,0.0,0.0,0.0,0.0,0.0,0.0,0.0,0.0,0.0,0.0,0.0,0.0,0.0,0.0,0.0,0.0,0.0,0.0,0.0,0.0,0.0,0.0,0.0,0.0,0.0,0.0,0.0,0.0,0.0,0.0,0.0,0.0,0.0,0.0,0.0,0.0,0.0,0.0,0.0,0.0,0.0,0.0,0.0,0.0,0.0,0.0,0.0,0.0,0.0,0.0,0.0,0.0,0.0,0.0,0.0,0.0,0.0,0.0,0.0,0.0,0.0,0.0,0.0,0.0,0.0,0.0,0.0,0.0,0.0,3.3348,3.3458,3.3532,3.377,3.3807,3.3807,3.3807,3.3807,3.3807,3.3807,0.0,0.0,0.0,0.0,0.0,0.0,0.0,0.0,0.0,0.0,0.0,0.0,0.0,0.0,0.0,0.0,0.0,0.0,0.0,0.0,0.0,0.0,0.0,0.0,0.0,0.0,0.0,0.0,0.0,0.0,0.0,0.0,0.0,0.0,0.0,0.0,0.0,0.0,0.0,0.0,0.0,0.0,0.0,0.0,0.0,0.0,0.0,0.0,0.0,0.0,0.0,0.0,0.0,0.0,0.0,0.0,0.0,0.0,0.0,0.0,0.0,0.0,0.0,0.0,0.0,0.0,0.0,0.0,0.0,0.0,0.0,0.0,0.0,0.0,0.0,0.0,0.0,0.0,0.0,0.0,0.0,0.0,0.0,0.0,0.0,0.0,0.0,0.0,0.0,0.0,0.0,0.0,0.0,0.0,0.0,0.0,0.0,0.0,0.0,0.0,0.0,0.0,3.3733,3.3807,3.3917,3.4241,3.4277,3.4424,3.4761,3.4798,3.4798,3.4798,0.0,0.0,0.0,0.0,0.0,0.0,0.0,0.0,0.0,0.0,0.0,0.0,0.0,0.0,0.0,0.0,0.0,0.0,0.0,0.0,0.0,0.0,0.0,0.0,0.0,0.0,0.0,0.0,0.0,0.0,0.0,0.0,0.0,0.0,0.0,0.0,0.0,0.0,0.0,0.0,0.0,0.0,0.0,0.0,0.0,0.0,0.0,0.0,0.0,0.0,0.0,0.0,0.0,0.0,0.0,0.0,0.0,0.0,0.0,0.0,0.0,0.0,0.0,0.0,0.0,0.0,0.0,0.0,0.0,0.0,0.0,0.0,0.0,0.0,0.0,0.0,0.0,0.0,0.0,0.0,0.0,0.0,0.0,0.0,0.0,0.0,0.0,0.0,0.0,0.0,0.0,0.0,0.0,0.0,0.0,0.0,0.0,0.0,0.0,0.0,0.0,0.0,3.3917,3.3972,3.4314,3.5041,3.5126,3.5445,3.6229,3.631,3.631,3.631,0.0,0.0,0.0,0.0,0.0,0.0,0.0,0.0,0.0,0.0,0.0,0.0,0.0,0.0,0.0,0.0,0.0,0.0,0.0,0.0,0.0,0.0,0.0,0.0,0.0,0.0,0.0,0.0,0.0,0.0,0.0,0.0,0.0,0.0,0.0,0.0,0.0,0.0,0.0,0.0,0.0,0.0,0.0,0.0,0.0,0.0,0.0,0.0,0.0,0.0,0.0,0.0,0.0,0.0,0.0,0.0,0.0,0.0,0.0,0.0,2.474,0.0,0.0,0.0,0.0,0.0,0.0,0.0,0.0,0.0,0.0,0.0,0.0,0.0,0.0,0.0,0.0,0.0,0.0,0.0,0.0,0.0,0.0,0.0,0.0,0.0,0.0,0.0,0.0,0.0,0.0,0.0,0.0,0.0,0.0,0.0,0.0,0.0,0.0,0.0,0.0,0.0,3.4747,3.5341,3.5826,3.6009,3.6028,3.6101,3.6285,3.631,3.631,3.631,3.631,0.0,0.0,0.0,0.0,0.0,0.0,0.0,0.0,0.0,0.0,0.0,0.0,0.0,0.0,0.0,0.0,0.0,0.0,0.0,0.0,0.0,0.0,0.0,0.0,0.0,0.0,0.0,0.0,0.0,0.0,0.0,0.0,0.0,0.0,0.0,0.0,0.0,0.0,0.0,0.0,0.0,0.0,0.0,0.0,0.0,0.0,0.0,0.0,0.0,0.0,0.0,0.0,0.0,0.0,0.0,0.0,0.0,0.0,0.0,0.0,2.5346,0.0,0.0,0.0,0.0,0.0,0.0,0.0,0.0,0.0,0.0,0.0,0.0,0.0,0.0,0.0,0.0,0.0,0.0,0.0,0.0,0.0,0.0,0.0,0.0,0.0,0.0,0.0,0.0,0.0,0.0,0.0,0.0,0.0,0.0,0.0,0.0,0.0,0.0,0.0,0.0,3.5617,3.6028,3.6457,3.6842,3.6879,3.7026,3.7422,3.7441,3.7441,3.7441,3.7441,0.0,0.0,0.0,0.0,0.0,0.0,0.0,0.0,0.0,0.0,0.0,0.0,0.0,0.0,0.0,0.0,0.0,0.0,0.0,0.0,0.0,0.0,0.0,0.0,0.0,0.0,0.0,0.0,0.0,0.0,0.0,0.0,0.0,0.0,0.0,0.0,0.0,0.0,0.0,0.0,0.0,0.0,0.0,0.0,0.0,0.0,0.0,0.0,0.0,0.0,0.0,0.0,0.0,2.7231,2.7658,2.8435,2.8435,2.8796,2.9335,2.8002,2.7194,2.6809,2.6809,0.0,0.0,0.0,0.0,0.0,0.0,0.0,0.0,0.0,0.0,0.0,0.0,0.0,0.0,0.0,0.0,0.0,0.0,0.0,0.0,0.0,0.0,0.0,0.0,3.0974,3.1345,0.0,0.0,0.0,0.0,0.0,0.0,0.0,0.0,0.0,0.0,0.0,0.0,3.6512,3.6641,3.6971,3.7639,3.7713,3.7981,3.8644,3.8699,3.8699,3.8699,3.8699,3.8395,0.0,0.0,0.0,0.0,0.0,0.0,0.0,0.0,0.0,0.0,0.0,0.0,0.0,0.0,0.0,0.0,0.0,0.0,0.0,0.0,0.0,0.0,0.0,0.0,0.0,0.0,0.0,0.0,0.0,0.0,0.0,0.0,2.563,2.574,0.0,0.0,0.0,0.0,0.0,0.0,0.0,0.0,0.0,0.0,0.0,0.0,0.0,2.7535,2.7646,2.8326,2.9023,2.9732,2.9732,3.0155,3.0931,3.0931,3.0987,3.1078,3.0858,0.0,2.7646,2.7646,0.0,0.0,0.0,0.0,0.0,0.0,0.0,0.0,0.0,0.0,0.0,0.0,0.0,0.0,0.0,0.0,0.0,0.0,0.0,0.0,0.0,0.0,3.1244,3.1244,3.1584,3.1998,0.0,3.2369,3.2442,3.2442,3.3084,0.0,0.0,0.0,0.0,0.0,0.0,0.0,3.7345,3.7962,3.8414,3.8524,3.8542,3.8579,3.8681,3.8699,3.8699,3.8699,3.8699,3.8644,3.856,3.8542,0.0,0.0,0.0,0.0,0.0,0.0,0.0,0.0,0.0,0.0,0.0,0.0,0.0,0.0,0.0,0.0,0.0,0.0,0.0,0.0,0.0,0.0,0.0,0.0,0.0,0.0,0.0,0.0,0.0,2.6051,2.6239,2.6326,2.6559,2.6735,0.0,0.0,0.0,0.0,0.0,0.0,0.0,0.0,0.0,2.8589,2.8962,2.9586,3.0479,3.084,3.1427,3.2228,3.2228,3.2651,3.3415,3.3415,3.3697,3.4144,3.4144,3.3275,3.1745,3.0375,2.9628,2.9292,0.0,0.0,0.0,0.0,2.9292,2.9292,2.9292,2.9292,0.0,2.9292,0.0,0.0,0.0,0.0,0.0,0.0,0.0,0.0,0.0,0.0,3.2471,3.2925,3.3276,3.3643,3.4132,3.424,3.4178,0.0,3.4009,3.4422,3.5537,0.0,0.0,0.0,0.0,3.808,3.7764,3.8303,3.8699,3.8699,3.8699,3.8699,3.8699,3.8699,3.8699,3.8699,3.8699,3.8699,3.8699,3.8699,3.8524,0.0,0.0,0.0,0.0,0.0,0.0,0.0,0.0,0.0,0.0,0.0,0.0,0.0,0.0,0.0,0.0,0.0,0.0,0.0,0.0,0.0,0.0,0.0,0.0,0.0,0.0,0.0,0.0,2.6874,2.6906,2.6906,2.7268,2.7525,0.0,0.0,0.0,0.0,0.0,0.0,2.8692,2.8912,2.9586,3.0772,3.1213,3.1995,3.3206,3.3451,3.3862,3.4431,3.4431,3.4754,3.5334,3.5334,3.569,3.631,3.631,3.5929,3.5169,3.3146,3.2192,3.2015,3.2015,3.2015,3.2015,3.2015,3.2015,3.2015,3.2015,3.2015,3.2015,3.2015,0.0,3.2015,3.2015,0.0,0.0,0.0,0.0,3.2432,3.2907,3.3361,3.387,3.4456,3.4584,3.4676,3.5199,3.5216,3.5138,0.0,3.4844,3.4989,3.6199,0.0,0.0,0.0,0.0,3.8318,3.7799,3.8075,3.835,3.8481,3.8507,3.8554,3.8692,3.8699,3.8699,3.8699,3.8699,3.8699,3.8699,3.8699,3.8699,3.8699,0.0,0.0,0.0,0.0,0.0,0.0,0.0,0.0,0.0,0.0,0.0,0.0,0.0,0.0,0.0,0.0,0.0,0.0,0.0,0.0,0.0,0.0,0.0,0.0,0.0,0.0,0.0,0.0,0.0,2.7737,2.909,0.0,0.0,0.0,0.0,3.1158,3.1158,3.117,3.1213,3.1947,3.2406,3.2479,3.3959,3.4795,3.4869,3.569,3.6119,3.6163,3.6163,3.62,3.6229,3.6229,3.6266,3.631,3.631,3.6273,3.6156,3.5206,3.4369,3.3678,3.3678,3.3678,3.3678,3.3678,3.3678,3.3678,3.3678,3.3678,3.3678,3.3678,3.3678,3.3678,3.3678,3.3678,0.0,0.0,3.4814,3.5016,3.5852,3.5721,3.5389,3.5435,3.4774,3.4245,3.4649,3.4436,3.4426,0.0,3.5459,3.5696,3.6532,0.0,3.6822,3.7126,3.7614,3.7764,3.7295,3.7266,3.7442,3.7903,3.7946,3.815,3.8669,3.8699,3.8699,3.8699,3.8699,3.8699,3.8699,3.8699,3.8699,3.8699,3.8699,0.0,0.0,0.0,0.0,0.0,0.0,0.0,0.0,0.0,0.0,0.0,0.0,0.0,0.0,0.0,0.0,0.0,0.0,0.0,0.0,0.0,0.0,0.0,0.0,0.0,0.0,0.0,0.0,2.9347,3.0307,0.0,3.169,3.2002,3.2394,3.2908,3.2944,3.3164,3.369,3.3995,3.4399,3.4963,3.5543,3.6083,3.6604,3.6916,3.7338,3.7845,3.7845,3.7845,3.7845,3.7845,3.7663,3.7346,3.7686,3.7656,3.7328,3.7365,3.6608,3.5404,3.5404,3.5404,3.5404,3.5404,3.5404,3.5404,3.5404,3.5404,3.5404,3.5404,3.5404,3.5404,3.5404,3.5404,3.5402,3.5349,3.532,3.5351,3.5554,3.546,3.5444,3.5955,3.5561,3.5202,3.5695,3.5675,3.5672,3.6001,3.5664,3.5662,3.6817,3.6737,3.6539,3.6679,3.7387,3.7729,3.7257,3.7765,3.8226,3.839,3.8407,3.8488,3.8673,3.8699,3.8699,3.8699,3.8699,3.8699,3.8699,3.8699,3.8699,3.8699,3.8699,3.8699,0.0,0.0,0.0,0.0,0.0,0.0,0.0,0.0,0.0,0.0,0.0,0.0,0.0,0.0,0.0,0.0,0.0,0.0,0.0,0.0,0.0,0.0,0.0,0.0,0.0,0.0,3.1011,3.1011,3.1971,3.2809,3.3353,3.3683,3.4082,3.4596,3.4633,3.489,3.5415,3.5708,3.6119,3.6696,3.6971,3.7375,3.7907,3.7734,3.7893,3.8441,3.8277,3.8285,3.8441,3.8441,3.8242,3.7937,3.8465,3.839,3.7946,3.8481,3.7963,3.6845,3.6845,3.6845,3.6845,3.6845,3.6742,3.6598,3.6598,3.6711,3.6845,3.6845,3.6962,3.7088,3.6891,3.6845,3.6742,3.6217,3.6073,3.6033,3.5912,3.5744,3.5741,3.6264,3.5996,3.5694,3.6043,3.6129,3.6129,3.6129,3.5852,3.588,3.6785,3.6651,3.6333,3.6161,3.6847,3.7211,3.6716,3.7248,3.772,3.7895,3.7912,3.8058,3.8399,3.8441,3.8515,3.8692,3.8538,3.8504,3.8699,3.853,3.8523,3.8699,3.8699,3.8699,3.8699,0.0,0.0,0.0,0.0,0.0,0.0,0.0,0.0,0.0,0.0,0.0,0.0,0.0,0.0,0.0,0.0,0.0,0.0,0.0,0.0,0.0,0.0,0.0,3.0283,3.1635,3.2656,3.2674,3.4087,3.5052,3.5078,3.5837,3.634,3.6376,3.6376,3.6376,3.6376,3.7107,3.7547,3.7547,3.8285,3.8707,3.8744,3.8219,3.7983,3.7975,3.7504,3.7523,3.7958,3.7958,3.7931,3.7948,3.8498,3.8423,3.7948,3.8506,3.8423,3.7948,3.7938,3.7902,3.7893,3.7929,3.7632,3.7239,3.7238,3.7524,3.7911,3.7876,3.8234,3.8554,3.804,3.7876,3.7781,3.7304,3.7181,3.7163,3.7144,3.6781,3.6399,3.6399,3.6036,3.5667,3.5667,3.5667,3.5667,3.5667,3.6096,3.6433,3.6392,3.6392,3.6203,3.5672,3.6071,0.0,3.5683,3.5644,3.5843,3.6364,3.6416,3.6815,3.7799,3.7876,3.809,3.8619,3.8183,3.8124,3.865,3.8175,3.8132,3.8658,3.8692,3.8699,3.8699,0.0,0.0,0.0,0.0,0.0,0.0,0.0,0.0,0.0,0.0,0.0,0.0,0.0,0.0,0.0,0.0,0.0,0.0,0.0,0.0,0.0,0.0,3.2614,3.202,3.2809,3.369,3.427,3.5286,3.6174,3.6769,3.7026,3.7412,3.7991,3.8046,3.8046,3.8046,3.8248,3.8377,3.8377,3.8579,3.8982,3.9551,3.9422,3.943,3.9572,3.9445,3.9232,3.8983,3.8983,3.8777,3.8435,3.8964,3.8905,3.8446,3.8992,3.9117,3.8944,3.8612,3.8251,3.7954,3.8342,3.8401,3.8226,3.7843,3.779,3.7842,3.7506,3.7479,3.7578,3.7433,3.7387,3.7285,3.6773,3.6613,3.6522,3.6133,3.6362,3.6684,3.6684,3.6989,3.7268,3.7268,3.7268,3.7268,3.7268,3.7391,3.7138,3.6014,3.581,3.5772,3.5622,3.6071,0.0,3.6203,3.6522,3.6815,3.6952,3.6989,3.7087,3.7369,3.7387,3.7469,3.7596,3.7799,3.7971,3.8107,3.798,3.7971,3.8125,3.8496,3.8699,0.0,0.0,0.0,0.0,0.0,0.0,0.0,0.0,0.0,0.0,0.0,0.0,0.0,0.0,0.0,0.0,0.0,0.0,0.0,0.0,0.0,0.0,3.3183,3.399,3.4578,3.5055,3.5514,3.5991,3.6798,3.7496,3.7962,3.7999,3.8201,3.8663,3.8699,3.875,3.8824,3.8834,3.898,3.9317,3.9326,3.9544,4.0026,3.9828,3.9661,3.9536,3.9332,3.9185,3.9063,3.9063,3.8893,3.864,3.9175,3.9094,3.8651,3.9178,3.926,0.0,0.0,0.0,0.0,0.0,3.8497,3.859,3.8088,3.8031,3.815,3.7873,3.795,3.8078,3.7843,3.7782,3.7678,3.7161,3.7031,3.6954,3.665,3.6907,3.7257,3.7257,3.7584,3.7893,3.7893,3.7893,3.7893,3.7893,3.7893,0.0,3.6727,3.6558,3.6558,3.6558,3.6837,3.7031,3.7031,3.729,3.7485,3.7485,3.7485,3.7561,3.778,3.7782,0.0,0.0,0.0,3.8056,3.7755,3.7837,0.0,0.0,0.0,3.8366,3.8366,0.0,0.0,0.0,3.8604,3.8699,0.0,0.0,0.0,0.0,0.0,0.0,0.0,0.0,0.0,0.0,0.0,0.0,0.0,0.0,0.0,0.0,3.4082,3.4988,3.7199,3.7584,3.7639,3.7639,3.834,3.8828,3.8828,3.892,3.8933,3.8868,3.8868,3.8915,3.905,0.0,0.0,0.0,0.0,4.0211,4.0245,3.9834,3.9364,3.8849,3.8429,3.8418,3.8766,3.8766,3.8766,3.88,3.9262,3.9215,3.8811,3.9273,3.9205,3.876,3.8643,3.864,3.864,3.8225,3.8328,3.8618,3.8132,0.0,0.0,3.8529,3.8836,3.9143,3.8662,3.8507,3.8424,3.8014,3.7893,3.7893,3.7893,3.7973,3.8012,3.8012,3.8091,3.8147,3.8147,3.8147,3.8147,3.8147,3.8147,3.8147,3.8147,3.8012,3.7893,3.7893,3.7893,3.7893,3.7893,3.7893,3.7893,3.7893,0.0,0.0,3.848,3.8507,3.8716,3.9195,3.8829,3.8313,3.7648,3.7908,3.8051,3.7971,3.8042,3.8103,3.8155,3.8155,3.819,3.8268,3.8564,3.8699,0.0,0.0,0.0,0.0,0.0,0.0,0.0,0.0,0.0,0.0,0.0,0.0,0.0,0.0,0.0,3.4729,3.5899,3.696,3.7437,3.8054,3.8469,3.8469,3.9184,3.9669,3.9669,4.0241,4.0426,3.9949,3.9914,3.9751,3.9343,3.9728,3.9837,3.9564,3.9971,4.0294,4.0522,4.043,4.0404,4.0458,0.0,0.0,3.98,3.98,3.98,3.9812,3.9922,3.991,3.9812,3.9922,3.991,3.973,3.8928,3.8861,3.9219,3.9133,3.9164,3.9167,3.8657,3.8518,3.8529,3.8167,3.812,3.8172,3.8073,3.8037,0.0,3.7929,3.7893,3.7893,3.7893,3.8345,3.8797,3.8797,3.9237,3.966,3.966,3.966,3.966,3.966,3.966,3.966,3.966,3.8684,3.7893,3.7893,3.7893,3.7893,3.7893,3.7893,3.7893,3.7893,3.7893,3.7941,3.8026,3.8037,3.8067,3.8184,3.8452,3.8538,3.8382,3.885,3.8911,3.8472,3.8901,3.9324,3.9761,3.9761,4.0011,4.0449,3.9255,3.8699,0.0,0.0,0.0,0.0,0.0,0.0,0.0,0.0,0.0,0.0,0.0,3.3793,3.3793,0.0,3.5782,3.6193,3.6953,3.7546,3.7676,3.8619,3.9294,3.9294,3.9669,4.0065,4.0469,4.0595,4.0517,4.0221,4.0202,4.0008,3.957,4.0089,4.0327,4.0158,4.0398,4.0613,4.0747,4.0753,4.0665,4.0509,4.0509,4.0356,4.0096,4.0096,4.0096,4.0096,4.0096,4.0096,4.0096,4.0096,4.0096,4.0053,3.9549,3.9519,3.9743,3.9743,3.9743,3.9709,3.9437,3.9361,3.9301,3.9081,3.9,3.9,3.9,3.9,3.9,3.9,3.9,3.9,3.9,3.9271,3.9643,4.0003,4.0375,4.076,4.1115,4.12,4.12,4.12,4.12,4.12,4.12,4.0578,3.9851,3.9106,3.9,3.9,3.9,3.9,3.9,3.9,3.9,3.9,3.9,3.9,3.9,3.9,3.887,3.8796,3.8796,3.8925,3.8872,3.8618,3.8861,3.9281,3.9837,3.9837,4.0129,4.0701,4.0144,3.9892,0.0,0.0,0.0,0.0,0.0,0.0,0.0,0.0,3.3844,3.4009,3.4546,3.5052,3.5224,3.5947,3.6751,3.7382,3.7621,3.7811,3.8025,3.9124,3.9913,3.9945,4.0101,4.0449,4.1099,4.0871,4.0578,4.0352,4.0438,4.0294,3.979,4.0337,4.0683,4.0739,4.0862,4.0845,4.0762,4.0733,4.0533,4.0096,4.0096,4.0096,4.0096,4.0096,4.0096,4.0096,4.0096,4.0096,4.0113,4.0252,4.0303,4.0333,4.0468,4.0536,4.0502,4.0214,4.0096,4.0096,4.0096,4.0096,4.0096,4.0096,4.0096,4.0096,4.0096,4.0197,4.0303,4.0303,4.0417,4.0536,4.0536,4.0536,4.0675,4.1271,4.1407,4.1576,4.2181,4.23,4.23,4.23,4.23,4.23,4.23,4.23,4.1894,4.0709,4.0536,4.0536,4.0536,4.0536,4.0536,4.0536,4.0536,4.0536,4.0536,4.0536,4.0468,4.032,3.9762,3.9372,3.922,3.9013,3.8888,3.8888,3.8888,3.9172,3.977,3.977,4.0047,4.0597,4.1025,4.1185,3.355,3.3532,3.3532,3.3532,3.3605,3.3678,0.0,0.0,3.4009,3.4729,3.4949,3.5243,3.6009,3.6824,3.7401,3.7492,3.8109,3.8582,3.8601,3.9355,3.9967,4.0149,4.0799,4.1278,4.1369,4.2008,4.1983,4.0905,4.1324,4.1159,4.0105,4.057,4.0664,4.0204,4.0643,4.0667,4.0192,4.0179,4.0159,4.0096,4.0096,4.0096,4.0096,4.0096,4.0096,4.0096,4.0096,4.0096,4.0146,4.0798,4.1085,4.1136,4.1796,4.2046,4.1894,4.0574,4.0096,4.0096,4.0096,4.0096,4.0096,4.0096,4.0096,4.0096,4.0096,4.0557,4.1085,4.1085,4.1542,4.2046,4.2046,4.2046,4.208,4.2164,4.2181,4.2202,4.2283,4.23,4.23,4.23,4.23,4.23,4.23,4.23,4.2249,4.208,4.2046,4.2046,4.2046,4.2046,4.2046,4.2046,4.2046,4.2046,4.2046,4.2046,4.1775,4.1119,4.1001,4.0663,4.0011,3.9955,3.9929,3.9929,3.9929,4.0209,4.0735,4.0735,4.1051,4.164,4.1692,4.1496,3.3807,3.3807,0.0,0.0,3.3807,3.3807,3.3807,3.4167,3.4582,3.4924,3.5782,3.656,3.6934,3.765,3.8201,0.0,3.8487,3.8585,3.8283,3.9298,4.0004,3.9829,4.0567,4.1248,4.1597,4.1948,4.1821,4.0961,4.1133,4.0932,4.0146,4.0613,4.0655,4.0121,4.0323,4.0336,4.0096,4.0096,4.0096,4.0096,4.0096,4.0096,4.0096,4.0096,4.032,4.073,4.073,4.098,4.1403,4.1711,4.183,4.1863,4.2181,4.23,4.2232,4.1606,4.1386,4.1386,4.1386,4.1386,4.1386,4.1386,4.1386,4.1386,4.1386,4.1606,4.183,4.183,4.2049,4.23,4.23,4.23,4.2418,4.2844,4.2932,4.3064,4.3535,4.3636,4.3636,4.3636,4.3636,4.3636,4.3636,4.3636,4.3636,4.3636,4.2875,4.23,4.23,4.23,4.23,4.23,4.23,4.23,4.23,4.23,4.2181,4.1863,4.183,4.1707,4.1386,4.1386,4.1386,4.1386,4.1386,4.1656,4.2247,4.2247,4.2538,4.3072,4.3072,4.3175,3.3807,0.0,0.0,3.3807,3.3807,3.3862,3.4075,3.4582,3.5133,3.5591,3.6659,3.7566,3.7779,3.8303,3.8699,3.8699,3.8699,3.8504,3.798,3.9238,3.9961,3.9322,4.0368,4.1201,4.1319,4.1457,4.1302,4.0726,4.0827,4.0667,4.0121,4.0473,4.0509,4.0108,4.0096,4.0096,4.0096,4.0096,4.0197,4.0405,4.0405,4.0506,4.0709,4.0709,4.0997,4.1508,4.1508,4.1813,4.2317,4.2523,4.2591,4.2625,4.2858,4.2926,4.2926,4.2926,4.2672,4.23,4.23,4.23,4.23,4.23,4.23,4.23,4.23,4.2439,4.2591,4.2591,4.2773,4.2926,4.2926,4.2926,4.3078,4.3606,4.3727,4.3893,4.4465,4.4615,4.4615,4.4615,4.4615,4.4615,4.4615,4.4615,4.4615,4.4615,4.3653,4.2926,4.2926,4.2926,4.2926,4.2926,4.2926,4.2926,4.2926,4.2926,4.2841,4.2625,4.2591,4.2506,4.2317,4.23,4.23,4.23,4.23,4.252,4.2948,4.2948,4.315,4.3522,4.3522,4.3904,0.0,0.0,3.3807,3.3807,3.3807,3.4002,3.4784,3.4979,3.5463,3.7081,3.7456,3.7749,3.8524,3.8689,3.8699,3.8699,3.8699,3.8504,3.798,3.9238,3.981,3.8753,4.0494,4.1353,0.0,4.0607,4.0703,4.0154,4.0613,4.0667,4.0121,4.0125,4.0121,4.0096,4.0096,4.0096,4.0096,4.0096,4.0455,4.117,4.117,4.1542,4.2232,4.2232,4.2249,4.2266,4.2266,4.2283,4.2367,4.3068,4.3372,4.344,4.4228,4.453,4.453,4.453,4.3586,4.23,4.23,4.23,4.23,4.23,4.23,4.23,4.23,4.2811,4.3372,4.3372,4.3927,4.453,4.453,4.453,4.4547,4.455,4.455,4.4567,4.4584,4.4615,4.4615,4.4615,4.4615,4.4615,4.4615,4.4615,4.4615,4.4615,4.455,4.453,4.453,4.453,4.453,4.453,4.453,4.453,4.453,4.453,4.4195,4.3423,4.3372,4.3064,4.2333,4.23,4.23,4.23,4.23,4.2313,4.2326,4.2326,4.2339,4.2353,4.2353,4.2756,3.3807,0.0,3.3807,3.3807,3.4204,3.4674,3.4949,3.5855,3.6824,3.7382,3.7925,3.8377,3.8644,3.8699,3.8699,3.8699,3.8699,3.8504,3.798,3.892,3.9396,3.8688,3.9824,0.0,0.0,0.0,0.0,4.0146,4.0262,4.0286,4.0108,4.0096,4.0096,4.0096,4.0574,4.0832,4.0832,4.1318,4.169,4.1931,4.1931,4.2049,4.23,4.23,4.2574,4.3017,4.3017,4.3335,4.3839,4.4093,4.4212,4.4228,4.4482,4.4615,4.4615,4.4615,4.4276,4.3822,4.3822,4.3822,4.3822,4.3822,4.3822,4.3822,4.3822,4.3992,4.4212,4.4212,4.4398,4.4615,4.4615,4.4615,4.4615,4.4615,4.4615,4.4615,4.4615,4.4615,4.4615,4.4615,4.4615,4.4615,4.4615,4.4615,4.4615,4.4615,4.4615,4.4615,4.4615,4.4615,4.4615,4.4615,4.4615,4.4615,4.4615,4.4615,4.4482,4.4198,4.4212,4.4093,4.3839,4.3822,4.3822,4.3822,4.3822,4.3822,4.3822,4.3822,4.3822,4.3822,4.3822,4.4167,3.3807,3.3807,3.3862,3.4167,3.4619,3.5169,3.5764,3.6505,3.7144,3.7437,3.7907,3.8267,3.8267,3.8345,3.8407,3.8407,3.8267,3.7982,3.7433,3.8364,3.8921,3.8413,3.9384,4.0096,0.0,0.0,0.0,4.0121,4.0096,4.0096,4.0096,4.0354,4.0489,4.0489,4.1204,4.1593,4.1593,4.2049,4.2435,4.2692,4.298,4.3112,4.3112,4.3112,4.3369,4.3826,4.3826,4.4113,4.4615,4.4615,4.4615,4.4615,4.4615,4.4615,4.4615,4.4615,4.4615,4.4615,4.4615,4.4615,4.4615,4.4615,4.4615,4.4615,4.4615,4.4615,4.4615,4.4615,4.4615,4.4651,4.4922,4.499,4.5058,4.5311,4.5379,4.5311,4.5058,4.499,4.4922,4.4649,4.4615,4.4615,4.4615,4.4615,4.4615,4.4615,4.4615,4.4615,4.4615,4.4615,4.4615,4.4615,4.4615,4.4615,4.4615,4.4615,4.4615,4.4615,4.4615,4.4615,4.4615,4.4615,4.4615,4.4615,4.4615,4.4615,4.4615,4.4615,4.4615,4.4615,4.4615,4.4953,3.3807,3.3825,3.4045,3.4821,3.5034,3.5481,3.7088,3.6842,3.6512,3.729,3.7437,3.7456,0.0,0.0,3.7891,3.7928,3.7542,3.7039,3.6519,3.7676,3.843,0.0,0.0,0.0,0.0,0.0,0.0,4.0096,0.0,4.0096,4.0096,4.0798,4.1204,4.1204,4.1948,4.2367,4.2367,4.2401,4.2777,4.3474,4.4245,4.4615,4.4615,4.4615,4.4615,4.4615,4.4615,4.4615,4.4615,4.4615,4.4615,4.4615,4.4615,4.4615,4.4615,4.4615,4.4615,4.4615,4.4615,4.4615,4.4615,4.4615,4.4615,4.4615,4.4615,4.4615,4.4601,4.4649,4.4651,4.4821,4.5568,4.5771,4.594,4.6616,4.68,4.6599,4.5906,4.5771,4.5551,4.4838,4.4668,4.4635,4.4615,4.4615,4.4615,4.4615,4.4615,4.4615,4.4615,4.4615,4.4615,4.4615,4.4615,4.4615,4.4615,4.4615,4.4615,4.4615,4.4615,4.4615,4.4615,4.4615,4.4615,4.4615,4.4615,4.4615,4.4615,4.4649,4.4651,4.4651,4.4685,4.5091,3.3807,3.4241,3.4747,3.4942,3.5488,3.6083,3.6512,3.6457,3.6365,3.6567,3.6604,3.6787,0.0,0.0,0.0,3.8397,3.8057,0.0,3.7058,3.7913,0.0,3.796,0.0,4.0096,4.0096,4.0096,0.0,0.0,4.0096,4.0096,4.0096,4.0798,4.1204,4.1204,4.2442,4.3118,4.3118,4.3721,4.411,4.4296,4.4499,4.4615,4.4615,4.4615,4.4615,4.4615,4.4615,4.4615,4.4615,4.4615,4.4615,4.4615,4.4615,4.4615,4.4615,4.4615,4.4615,4.4615,4.4615,4.4615,4.4615,4.4615,4.4615,4.4615,4.4615,4.4615,4.4702,4.5263,4.5415,4.5585,4.6329,4.6515,4.658,4.6752,4.68,4.675,4.6549,4.6515,4.6447,4.6276,4.5788,4.5246,4.4685,4.4615,4.4615,4.4615,4.4615,4.4615,4.4615,4.4615,4.4615,4.4615,4.4615,4.4615,4.4615,4.4615,4.4615,4.4615,4.4615,4.4615,4.4615,4.4615,4.4615,4.4615,4.4615,4.4615,4.4615,4.5159,4.5415,4.5432,4.5974,4.6343,3.4222,3.4656,3.5181,3.591,3.6193,3.6384,3.6751,3.6266,3.5727,3.5727,3.5727,0.0,0.0,0.0,0.0,0.0,0.0,0.0,3.6573,3.7256,3.7832,0.0,3.8916,0.0,4.0079,4.0096,4.0096,0.0,4.0096,4.0235,4.0574,4.1271,4.183,4.2155,4.3318,4.3927,4.3927,4.4364,4.4615,4.4615,4.4615,4.4615,4.4615,4.4615,4.4615,4.4615,0.0,4.4615,4.4615,4.4615,4.4615,4.4615,4.4615,4.4615,4.4615,4.4615,4.4615,4.4615,4.4615,4.4615,4.4615,4.4615,4.4615,4.4651,4.499,4.5091,4.5244,4.5974,4.6177,4.6346,4.709,4.7293,4.7361,4.7682,4.7767,4.7682,4.7361,4.7293,4.709,4.6447,4.5974,4.5466,4.4719,4.4615,4.4615,4.4615,4.4615,4.4615,4.4615,4.4615,4.4615,4.4615,4.4615,4.4615,4.4615,4.4615,4.4615,4.4615,4.4905,4.5091,4.5091,4.5396,4.5565,4.5565,4.5565,4.5565,4.5565,4.5974,4.6177,4.6194,4.6614,4.6972,3.4784,3.5071,3.5525,3.6971,3.6824,3.6457,3.7044,3.5965,3.4839,3.4839,0.0,3.5133,3.6119,3.6433,3.6713,3.7208,0.0,3.6245,3.5772,3.6339,3.7071,3.7821,3.8548,3.9288,4.0028,4.0096,4.0096,4.0096,4.0185,4.0523,4.117,4.1897,4.2692,4.3524,4.4245,4.4615,4.4615,4.4615,4.4615,4.4615,4.4615,4.4615,4.4615,4.4615,4.4615,4.4615,4.4615,0.0,4.4615,4.4615,4.4615,4.4615,4.4615,4.4615,4.4615,4.4615,4.4615,4.4601,4.4702,4.4736,4.4736,4.4736,4.4736,4.4888,4.5618,4.5855,4.6007,4.6735,4.6938,4.7124,4.7853,4.8056,4.8208,4.8849,4.9001,4.8832,4.8174,4.8056,4.7633,4.6247,4.5976,4.5754,4.5024,4.4888,4.4888,4.4888,4.4888,4.4888,4.4888,4.4804,4.4736,4.4736,4.4821,4.4888,4.4888,4.4888,4.4888,4.4888,4.5483,4.5855,4.5855,4.6447,4.68,4.68,4.68,4.68,4.68,4.6902,4.6938,4.6938,4.7039,4.7428,3.4784,3.5525,3.6138,3.6439,3.6402,3.6156,3.5573,3.4699,0.0,0.0,0.0,3.4486,3.6009,3.5978,3.6158,3.7547,0.0,0.0,0.0,0.0,3.7071,0.0,0.0,0.0,0.0,0.0,0.0,0.0,0.0,4.1068,4.1191,4.1897,4.2943,4.4347,4.453,4.4615,4.4615,4.4615,4.4615,4.4615,4.4615,4.4615,4.4615,4.4615,4.4615,4.4615,4.4615,0.0,4.4615,4.4615,4.4615,4.4615,4.4615,4.4615,4.4615,4.4615,4.4615,4.4685,4.5297,4.5517,4.5517,4.5517,4.5517,4.5652,4.638,4.6599,4.6752,4.7498,4.7718,4.787,4.8614,4.88,4.8849,4.8968,4.9001,4.8968,4.8849,4.88,4.8546,4.7684,4.7515,4.7278,4.6549,4.6428,4.6428,4.6428,4.6428,4.6428,4.6428,4.5889,4.5517,4.5517,4.6041,4.6428,4.6428,4.6428,4.6428,4.6428,4.6546,4.6599,4.6599,4.6733,4.68,4.68,4.68,4.68,4.68,4.7396,4.7718,4.7718,4.8342,4.8697,3.4784,3.5316,3.5727,3.6193,3.5965,3.55,3.5089,0.0,0.0,0.0,0.0,3.4302,3.5991,0.0,0.0,0.0,0.0,0.0,0.0,0.0,0.0,0.0,0.0,0.0,0.0,0.0,0.0,0.0,0.0,4.1373,4.1745,4.2875,4.3839,4.4567,4.4615,4.4615,4.4615,4.4615,4.4615,4.4615,4.4615,4.4615,4.4615,4.4615,4.4804,4.5176,4.5176,0.0,4.5734,4.5734,4.5734,4.5734,4.5734,4.5734,4.5734,4.5734,4.5734,4.5802,4.6143,4.6261,4.6346,4.672,4.6599,4.6413,4.7158,4.7378,4.753,4.8259,4.8462,4.8546,4.8917,4.9001,4.9001,4.9001,4.9001,4.9001,4.9001,4.9001,4.8781,4.8039,4.7904,4.7667,4.6921,4.68,4.68,4.68,4.68,4.68,4.68,4.6836,4.6686,4.6312,4.6597,4.68,4.68,4.68,4.68,4.68,4.7158,4.7378,4.7378,4.775,4.7936,4.7936,4.7936,4.7936,4.7953,4.8308,4.8462,4.8479,4.8849,4.9001,3.4784,3.4997,3.5169,3.5855,3.55,3.4942,3.4784,3.4259,0.0,0.0,3.3935,3.4523,3.6009,0.0,0.0,0.0,0.0,0.0,0.0,0.0,0.0,0.0,0.0,0.0,0.0,0.0,0.0,0.0,0.0,0.0,4.2489,4.3839,4.4615,4.4615,4.4615,4.4615,4.4615,4.4615,4.4615,4.4615,4.4615,4.4668,4.4838,4.4838,4.5244,4.594,4.594,0.0,0.0,4.68,4.68,4.68,4.68,4.68,4.68,4.68,4.68,4.6817,4.6972,4.7039,4.7158,4.7904,4.7648,4.7175,4.7904,4.814,4.8259,4.8849,4.9001,4.9001,4.9001,4.9001,4.9001,4.9001,4.9001,4.9001,4.9001,4.9001,4.8817,4.8242,4.814,4.7954,4.7361,4.7259,4.7259,4.7259,4.7259,4.7259,4.7259,4.7784,4.7904,4.7327,4.7259,4.7259,4.7259,4.7259,4.7259,4.7259,4.7817,4.814,4.814,4.8682,4.9001,4.9001,4.9001,4.9001,4.9001,4.9001,4.9001,4.9001,4.9001,4.9001,3.4784,3.4997,3.5016,3.5089,3.5052,3.4821,3.4075,0.0,0.0,3.3807,3.4387,3.5188,3.6119,0.0,0.0,0.0,0.0,3.626,0.0,0.0,0.0,0.0,0.0,0.0,0.0,0.0,0.0,0.0,0.0,0.0,4.3304,4.4144,4.4615,4.4615,4.4615,4.4615,4.4615,4.4615,4.4615,4.4615,4.4615,4.4956,4.5602,4.5602,4.6007,4.6699,4.6699,0.0,0.0,4.68,4.68,4.68,4.68,4.68,4.68,4.68,4.68,4.6902,4.7566,4.7802,4.7921,4.8663,4.8394,4.7938,4.868,4.89,4.8917,4.8984,4.9001,4.9001,4.9001,4.9001,4.9001,4.9001,4.9001,4.9001,4.9001,4.9001,4.8984,4.8917,4.89,4.8883,4.8815,4.8798,4.8798,4.8798,4.8798,4.8798,4.8798,4.8866,4.8883,4.8815,4.8798,4.8798,4.8798,4.8798,4.8798,4.8798,4.8866,4.89,4.89,4.8968,4.9001,4.9001,4.9001,4.9001,4.9001,4.9001,4.9001,4.9001,4.9001,4.9001,3.4185,3.4277,3.4277,3.4277,3.4277,3.4185,3.3862,0.0,0.0,3.3807,3.4435,3.5261,3.6138,3.6775,0.0,0.0,0.0,0.0,0.0,0.0,0.0,0.0,0.0,0.0,0.0,0.0,0.0,0.0,0.0,0.0,4.4113,4.4432,4.4615,4.4615,4.4615,4.4615,4.4615,4.4615,4.4615,4.4615,4.5058,4.5415,4.572,4.616,4.6769,4.7447,4.7447,0.0,0.0,4.8122,4.8122,4.8122,4.8122,4.8122,4.8122,4.8122,4.8122,4.8173,4.8462,4.8563,4.8597,4.89,4.8798,4.8614,4.8917,4.9001,4.9001,4.9001,4.9001,4.9001,4.9001,4.9001,4.9001,4.9001,4.9001,4.9001,4.9001,4.9001,4.9001,4.9001,4.9001,4.9001,4.9001,4.9001,4.9001,4.9001,4.9001,4.9001,4.9001,4.9001,4.9001,4.9001,4.9001,4.9001,4.9001,4.9001,4.9001,4.9001,4.9001,4.9001,4.9001,4.9001,4.9001,4.9001,4.9001,4.9001,4.9001,4.9001,4.9001,4.9001,4.9001,4.9001,3.3807,3.3807,3.3807,3.3807,3.3807,3.3807,0.0,0.0,3.3807,3.3807,3.4644,3.5573,3.6193,3.7155,3.7823,3.7718,0.0,3.697,3.6249,0.0,0.0,0.0,0.0,0.0,0.0,0.0,0.0,0.0,0.0,0.0,4.4615,4.4615,4.4615,4.4615,4.4615,4.4615,4.4615,4.4615,4.4615,4.4601,4.5348,4.5821,4.6058,4.6786,4.753,4.8225,4.8225,0.0,0.0,4.9001,4.9001,4.9001,4.9001,4.9001,4.9001,4.9001,4.9001,4.9001,4.9001,4.9001,4.9001,4.9001,4.9001,4.9001,4.9001,4.9001,4.9001,4.9001,4.9001,4.9001,4.9001,4.9001,4.9001,4.9001,4.9001,4.9001,4.9001,4.9001,4.9001,4.9001,4.9001,4.9001,4.9001,4.9001,4.9001,4.9001,4.9001,4.9001,4.9001,4.9001,4.9001,4.9001,4.9001,4.9001,4.9001,4.9001,4.9001,4.9001,4.9001,4.9001,4.9001,4.9001,4.9001,4.9001,4.9001,4.9001,4.9001,4.9001,4.912,4.9323,4.9323,4.9441,3.3807,3.3807,3.3807,3.3807,3.3807,3.3807,0.0,0.0,3.3807,3.3807,3.5128,3.6285,3.631,3.7606,3.8358,3.7377,3.7192,0.0,3.5772,0.0,0.0,0.0,0.0,0.0,0.0,0.0,0.0,0.0,0.0,0.0,4.4615,4.4615,4.4615,4.4615,4.4615,4.4615,4.4615,4.4615,4.4615,4.4601,4.5348,4.6075,4.6802,4.7549,4.8293,0.0,0.0,0.0,0.0,4.9001,4.9001,4.9001,4.9001,4.9001,4.9001,4.9001,4.9001,4.9001,4.9001,4.9001,4.9001,4.9001,4.9001,4.9001,4.9001,4.9001,4.9001,4.9001,4.9001,4.9001,4.9001,4.9001,4.9001,4.9001,4.9001,4.9001,4.9001,4.9001,4.9001,4.9001,4.9001,4.9001,4.9001,4.9001,4.9001,4.9001,4.9001,4.9001,4.9001,4.9001,4.9001,4.9001,4.9001,4.9001,4.9001,4.9001,4.9001,4.9001,4.9001,4.9001,4.9001,4.9001,4.9001,4.9001,4.9001,4.9001,4.9001,4.9001,4.9373,5.01,5.01,5.0473,3.3807,3.3807,3.3807,3.3807,3.3807,3.3807,3.3807,0.0,3.3807,3.3807,3.5128,3.631,3.631,3.7624,3.8473,3.7799,3.7406,3.6943,0.0,0.0,0.0,0.0,0.0,0.0,0.0,0.0,0.0,0.0,0.0,0.0,4.4615,4.4615,4.4615,4.4615,4.4615,4.4615,4.4615,4.4615,4.4855,4.5348,4.6092,4.6836,4.7566,4.831,4.8781,0.0,0.0,0.0,0.0,4.9001,4.9001,4.9001,4.9001,4.9001,4.9001,4.9001,4.9001,4.9001,4.9001,4.9001,4.9001,4.9001,4.9001,4.9001,4.9001,4.9001,4.9001,4.9001,4.9001,4.9001,4.9001,4.9001,4.9001,4.9001,4.9001,4.9001,4.9001,4.9001,4.9001,4.9001,4.9001,4.9001,4.9001,4.9001,4.9001,4.9001,4.9001,4.9001,4.9001,4.9001,4.9001,4.9001,4.9001,4.9001,4.9001,4.9001,4.9001,4.9001,4.9001,4.9001,4.9001,4.9001,4.9001,4.9001,4.9001,4.9255,4.9746,4.9746,5.0135,5.0846,5.0846,5.1235,0.0,3.3807,3.3807,3.3807,3.3807,0.0,0.0,0.0,3.3807,3.3807,3.5128,3.631,3.631,3.7624,3.8465,3.7746,3.7387,3.6933,0.0,0.0,0.0,0.0,0.0,0.0,0.0,0.0,0.0,0.0,0.0,0.0,4.4615,4.4615,4.4615,4.4615,4.4615,4.4615,4.4615,4.4615,4.4973,4.572,4.6447,4.7192,4.7938,4.8648,4.9001,0.0,0.0,0.0,0.0,4.9001,4.9001,4.9001,4.9001,4.9001,4.9001,4.9001,4.9001,4.9001,4.9001,4.9001,4.9001,4.9001,4.9001,4.9001,4.9001,4.9001,4.9001,4.9001,4.9001,4.9001,4.9001,4.9001,4.9001,4.9001,4.9001,4.9001,4.9001,4.9001,4.9001,4.9001,4.9001,4.9001,4.9001,4.9001,4.9001,4.9001,4.9001,4.9001,4.9001,4.9001,4.9001,4.9001,4.9001,4.9001,4.9001,4.9001,4.9001,4.9001,4.9001,4.9001,4.9001,4.9001,4.9001,4.9001,4.9272,4.9644,5.01,5.0675,5.1166,5.1624,5.1928,5.2317,0.0,3.3807,3.3807,3.3807,3.3807,3.3807,0.0,0.0,0.0,0.0,3.5128,3.631,3.631,3.7624,3.8377,3.735,3.7209,0.0,0.0,0.0,0.0,0.0,0.0,0.0,0.0,0.0,0.0,0.0,0.0,0.0,4.4615,4.4615,4.4615,4.4615,4.4615,4.4615,4.4615,4.4615,4.5007,4.5788,4.6464,4.7208,4.8005,4.8682,4.9001,0.0,0.0,0.0,0.0,4.9001,4.9001,4.9001,4.9001,4.9001,4.9001,4.9001,4.9001,4.9001,4.9001,4.9001,4.9001,4.9001,4.9001,4.9001,4.9001,4.9001,4.9001,4.9001,4.9001,4.9001,4.9001,4.9001,4.9001,4.9001,4.9001,4.9001,4.9001,4.9001,4.9001,4.9001,4.9001,4.9001,4.9001,4.9001,4.9001,4.9001,4.9001,4.9001,4.9001,4.9001,4.9001,4.9001,4.9001,4.9001,4.9001,4.9001,4.9001,4.9001,4.9001,4.9001,4.9001,4.9001,4.9018,4.9086,4.9847,5.0269,5.0269,5.1691,5.2384,5.2401,5.3162,5.3501,3.3807,0.0,3.3807,3.3807,3.3807,3.3807,0.0,0.0,0.0,0.0,0.0,3.631,3.631,3.7624,3.8377,3.735,3.7209,3.6825,0.0,0.0,0.0,0.0,0.0,0.0,0.0,0.0,0.0,0.0,0.0,4.4615,4.4615,4.4615,4.4615,4.4615,4.4615,4.4615,4.4615,4.4615,4.5244,4.6532,4.6733,4.7479,4.8748,4.8934,4.9001,0.0,0.0,0.0,4.9001,4.9001,4.9001,4.9001,4.9001,4.9001,4.9001,4.9001,4.9001,4.9001,4.9001,4.9001,4.9001,4.9001,4.9001,4.9001,4.9001,4.9001,4.9001,4.9001,4.9001,4.9001,4.9001,4.9001,4.9001,4.9001,4.9001,4.9001,4.9001,4.9001,4.9001,4.9001,4.9001,4.9001,4.9001,4.9001,4.9001,4.9001,4.9001,4.9001,4.9001,4.9001,4.9001,4.9001,4.9001,4.9001,4.9001,4.9001,4.9001,4.9001,4.9001,4.9001,4.9001,4.9001,4.9272,4.9829,5.1116,5.1775,5.1792,5.2756,5.323,5.323,5.3416,5.3501,3.3697,3.3807,3.3807,3.3807,3.3807,3.3807,3.3807,0.0,0.0,0.0,0.0,0.0,3.631,0.0,0.0,0.0,3.7135,0.0,0.0,0.0,0.0,0.0,0.0,0.0,0.0,0.0,0.0,0.0,0.0,4.4615,4.4615,4.4615,4.4615,4.4615,4.4615,4.4615,4.4615,4.4615,4.5345,4.68,4.68,4.7564,4.9001,4.9001,4.9001,0.0,0.0,0.0,4.9001,4.9001,4.9001,4.9001,4.9001,4.9001,4.9001,4.9001,4.9001,4.9001,4.9001,4.9001,4.9001,4.9001,4.9001,4.9001,4.9001,4.9001,4.9001,4.9001,4.9001,4.9001,4.9001,4.9001,4.9001,4.9001,4.9001,4.9001,4.9001,4.9001,4.9001,4.9001,4.9001,4.9001,4.9001,4.9001,4.9001,4.9001,4.9001,4.9001,4.9001,4.9001,4.9001,4.9001,4.9001,4.9001,4.9001,4.9001,4.9001,4.9001,4.9001,4.9001,4.9001,4.9323,5.0016,5.1082,5.1894,5.2486,5.2858,5.3298,5.3501,5.3501,5.3501,5.3501,3.3587,3.3807,3.3807,3.3807,3.3807,3.3807,0.0,0.0,0.0,0.0,0.0,0.0,0.0,0.0,0.0,0.0,0.0,0.0,0.0,0.0,0.0,0.0,0.0,0.0,0.0,0.0,0.0,0.0,0.0,4.4615,4.4615,4.4615,4.4615,4.4615,4.4615,4.4615,4.4615,4.4615,4.5277,4.6616,4.675,4.7513,4.8849,4.8951,4.9001,4.9001,0.0,0.0,4.9001,4.9001,4.8934,4.8817,4.8817,4.8765,4.8663,4.8663,4.8748,4.8849,4.8968,4.9001,4.9001,4.9001,4.9001,4.9001,4.9001,4.9001,4.9001,4.9001,4.9001,4.9001,4.9001,4.9001,4.9001,4.9001,4.9001,4.9001,4.9001,4.9001,4.9001,4.9001,4.9001,4.9001,4.9001,4.9001,4.9001,4.9001,4.9001,4.9001,4.9001,4.9001,4.9001,4.9001,4.9103,4.9171,4.9171,4.9272,4.934,4.934,4.9238,4.9221,4.9324,5.0033,5.1014,5.2283,5.2418,5.2824,5.3501,5.3501,5.3501,5.3501,5.3501,5.3501,3.3587,3.3807,3.3807,3.3807,3.3807,3.3807,0.0,0.0,0.0,0.0,0.0,0.0,0.0,0.0,0.0,0.0,0.0,0.0,0.0,0.0,0.0,0.0,0.0,0.0,0.0,0.0,0.0,0.0,0.0,4.4615,4.4615,4.4615,4.4615,4.4615,4.4615,4.4615,4.4615,4.4615,4.5024,4.5889,4.6498,4.7242,4.809,4.8731,4.9001,4.9001,0.0,4.9001,4.9001,4.9001,4.8631,4.8073,4.8073,4.7699,4.7141,4.7141,4.753,4.8157,4.8781,4.9001,4.9001,4.9001,4.9001,4.9001,4.9001,4.9001,4.9001,4.9001,4.9001,4.9001,4.9001,4.9001,4.9001,4.9001,4.9001,4.9001,4.9001,4.9001,4.9001,4.9001,4.9001,4.9001,4.9001,4.9001,4.9001,4.9001,4.9001,4.9001,4.9001,4.9001,4.9001,4.9001,4.956,4.9915,4.9915,5.0507,5.0863,5.0863,5.0287,5.0202,5.0829,5.1572,5.2063,5.23,5.2976,5.3382,5.3501,5.3501,5.3501,5.3501,5.3501,5.3501,3.3458,3.3807,3.3807,3.3807,3.3807,0.0,0.0,0.0,0.0,0.0,0.0,0.0,0.0,0.0,0.0,0.0,0.0,0.0,0.0,0.0,0.0,0.0,0.0,0.0,0.0,0.0,0.0,0.0,0.0,0.0,4.4615,4.4615,4.4615,4.4615,4.4615,4.4615,4.4615,4.4615,4.4973,4.5703,4.6041,4.6788,4.7921,4.8242,4.8614,4.9001,0.0,4.8766,4.8411,4.8411,4.7971,4.731,4.731,4.7107,4.6851,4.7242,4.7599,4.8005,4.8732,4.9001,4.9001,4.9001,4.9001,4.9001,4.9001,4.9001,4.9001,4.9001,4.9001,4.9001,4.9001,4.9001,4.9001,4.9001,4.9001,4.9001,4.9001,4.9001,4.9001,4.9001,4.9001,4.9001,4.9001,4.9001,4.9137,4.9526,4.9593,4.9746,5.0136,5.0186,5.0186,5.0186,5.0491,5.0693,5.0693,5.0998,5.1201,5.1201,5.088,5.1031,5.1759,5.2131,5.2503,5.2942,5.3315,5.3501,5.3501,5.3501,5.3501,5.3501,5.3501,5.3501,3.3366,3.3807,3.3807,3.3807,0.0,0.0,0.0,0.0,0.0,0.0,0.0,0.0,0.0,0.0,0.0,0.0,0.0,0.0,0.0,0.0,0.0,0.0,0.0,0.0,4.1136,4.1711,0.0,0.0,0.0,0.0,4.4598,4.4615,4.4615,4.4615,4.4615,4.4615,4.4615,4.4615,4.4888,4.5449,4.5618,4.628,4.7396,4.7566,4.7953,4.8477,4.8477,4.8173,4.7633,4.7633,4.7208,4.6532,4.6532,4.6445,4.6394,4.731,4.7633,4.7768,4.868,4.9001,4.9001,4.9001,4.9001,4.9001,4.9001,4.9001,4.9001,4.9001,4.9001,4.9001,4.9001,4.9001,4.9001,4.9001,4.9001,4.9001,4.9001,4.9001,4.9001,4.9001,4.9001,4.9052,4.9221,4.9255,4.9509,5.0253,5.0355,5.0557,5.1133,5.1201,5.1201,5.1201,5.1353,5.1522,5.1725,5.1742,5.1742,5.1742,5.1556,5.1793,5.2553,5.2587,5.2875,5.3501,5.3501,5.3501,5.3501,5.3501,5.3501,5.3501,5.3501,5.3501,3.3366,3.3807,3.3807,0.0,0.0,0.0,0.0,0.0,0.0,0.0,0.0,0.0,0.0,0.0,0.0,0.0,0.0,0.0,0.0,0.0,0.0,0.0,0.0,4.0388,4.1136,4.1255,0.0,0.0,0.0,0.0,4.455,4.4615,4.4615,4.4615,4.4615,4.4615,4.4615,4.4615,4.4618,4.4685,4.5365,4.5771,4.5875,4.6566,4.6904,4.6969,4.6969,4.6921,4.687,4.687,4.6447,4.5788,4.5788,4.5348,4.4922,4.636,4.687,4.7073,4.8511,4.9001,4.9001,4.9001,4.9001,4.9001,4.9001,4.9001,4.9001,4.9001,4.9001,4.9001,4.9001,4.9001,4.9001,4.9001,4.9001,4.9001,4.9001,4.9001,4.9001,4.9001,4.9001,4.9221,4.9914,5.0032,5.027,5.0998,5.1116,5.1133,5.1201,5.1201,5.1201,5.1201,5.1809,5.252,5.3281,5.3315,5.3315,5.3315,5.2638,5.2587,5.3382,5.3416,5.345,5.3501,5.3501,5.3501,5.3501,5.3501,5.3501,5.3501,5.3501,5.3501,3.3495,3.3807,0.0,0.0,0.0,0.0,0.0,0.0,0.0,0.0,0.0,0.0,0.0,0.0,0.0,0.0,0.0,0.0,0.0,0.0,0.0,0.0,0.0,4.0214,4.0489,4.0933,4.1428,0.0,0.0,0.0,4.3842,4.433,4.4615,4.4615,4.4615,4.4615,4.4615,4.4615,4.4615,4.4615,4.4888,4.5263,4.5706,4.5991,4.6363,4.68,4.68,4.6532,4.6126,4.6126,4.5686,4.5024,4.5024,4.4855,4.477,4.6259,4.68,4.702,4.8494,4.9001,4.9001,4.9001,4.9001,4.9001,4.9001,4.9001,4.9001,4.9001,4.9001,4.9001,4.9001,4.9001,4.9001,4.9001,4.9001,4.9001,4.9001,4.9001,4.9137,4.9593,4.9678,4.9915,5.0659,5.0778,5.1031,5.1759,5.1894,5.2046,5.257,5.2621,5.2621,5.2621,5.2892,5.3179,5.3467,5.3501,5.3501,5.3501,5.3213,5.3179,5.3501,5.3501,5.3501,5.3501,5.3501,5.3501,5.3501,5.3501,5.3501,5.3501,5.3501,5.3501,3.3587,3.3807,0.0,0.0,0.0,0.0,0.0,0.0,0.0,0.0,0.0,0.0,0.0,0.0,0.0,0.0,0.0,0.0,0.0,3.8734,3.9525,4.0045,4.0096,4.0096,4.0096,4.0557,4.095,0.0,0.0,0.0,0.0,4.3927,4.4347,4.4584,4.4615,4.4615,4.4615,4.4615,4.4615,4.4615,4.4615,4.4855,4.5348,4.5348,4.5618,4.6107,4.6107,4.5819,4.5348,4.5348,4.5058,4.4615,4.4615,4.4615,4.477,4.6259,4.68,4.702,4.8494,4.9001,4.9001,4.9001,4.9001,4.9001,4.9001,4.9001,4.9001,4.9001,4.9001,4.9001,4.9001,4.9001,4.9001,4.9001,4.9001,4.9069,4.9306,4.9357,4.956,5.0304,5.0439,5.0676,5.1421,5.1539,5.1793,5.257,5.2689,5.2892,5.3433,5.3501,5.3501,5.3501,5.3501,5.3501,5.3501,5.3501,5.3501,5.3501,5.3501,5.3501,5.3501,5.3501,5.3501,5.3501,5.3501,5.3501,5.3501,5.3501,5.3501,5.3501,5.3501,5.3501,3.3587,3.3807,0.0,0.0,0.0,0.0,0.0,0.0,0.0,0.0,0.0,0.0,0.0,0.0,0.0,0.0,0.0,0.0,3.7893,3.9169,4.0096,4.0096,4.0096,4.0096,4.0096,4.0096,4.0405,0.0,0.0,0.0,0.0,4.3375,4.3775,4.455,4.4615,4.4615,4.4615,4.4615,4.4615,4.4615,4.4615,4.4615,4.4615,4.4615,4.4615,4.4615,4.4615,4.4615,4.4615,4.4615,4.4615,4.4615,4.4615,4.4615,4.477,4.6259,4.68,4.702,4.8494,4.9001,4.9001,4.9001,4.9001,4.9001,4.9001,4.9001,4.9001,4.9001,4.9001,4.9001,4.9001,4.9001,4.9001,4.9001,4.9018,4.9204,4.9947,5.0117,5.0321,5.1066,5.1218,5.1438,5.2181,5.2317,5.2587,5.3382,5.3501,5.3501,5.3501,5.3501,5.3501,5.3501,5.3501,5.3501,5.3501,5.3501,5.3501,5.3501,5.3501,5.3501,5.3501,5.3501,5.3501,5.3501,5.3501,5.3501,5.3501,5.3501,5.3501,5.3501,5.3501,5.3501,3.3733,3.3807,0.0,0.0,0.0,0.0,0.0,0.0,0.0,0.0,0.0,0.0,0.0,0.0,0.0,0.0,0.0,0.0,3.7893,3.9169,4.0096,4.0096,4.0096,4.0096,4.0096,4.0096,4.0185,0.0,0.0,0.0,0.0,4.2848,4.3507,4.3758,4.4296,4.4615,4.4615,4.4615,4.4615,4.4615,4.4615,4.4615,4.4615,4.4615,4.4615,4.4615,4.4615,4.4615,4.4615,4.4615,4.4615,4.4615,4.4615,4.4615,4.477,4.6259,4.68,4.702,4.8494,4.9001,4.9001,4.9001,4.9001,4.9001,4.9001,4.9001,4.9001,4.9001,4.9001,4.9001,4.9001,4.9001,4.9001,4.9001,4.9407,4.9829,5.0049,5.0507,5.1083,5.1843,5.1978,5.2232,5.301,5.3145,5.323,5.3467,5.3501,5.3501,5.3501,5.3501,5.3501,5.3501,5.3501,5.3501,5.3501,5.3501,5.3501,5.3501,5.3501,5.3501,5.3501,5.3501,5.3501,5.3501,5.3501,5.3501,5.3501,5.3501,5.3501,5.3501,5.3501,5.3501,3.3807,0.0,0.0,0.0,0.0,0.0,0.0,0.0,0.0,0.0,0.0,0.0,0.0,0.0,0.0,0.0,0.0,0.0,0.0,3.9169,4.0096,4.0096,4.0096,4.0096,4.0096,4.0096,4.0096,0.0,0.0,0.0,0.0,4.2036,4.2797,4.3389,4.3876,4.4279,4.4615,4.4615,4.4615,4.4615,4.4615,4.4615,4.4615,4.4615,4.4615,4.4615,4.4615,4.4615,4.4615,4.4615,4.4615,4.4615,4.4615,4.4615,4.477,4.6259,4.68,4.702,4.8494,4.9001,4.9001,4.9001,4.9001,4.9001,4.9001,4.9001,4.9001,4.9001,4.9001,4.9001,4.9001,4.9001,4.9069,4.9373,4.9795,5.0269,5.0845,5.1319,5.186,5.2638,5.279,5.2942,5.3416,5.3501,5.3501,5.3501,5.3501,5.3501,5.3501,5.3501,5.3501,5.3501,5.3501,5.3501,5.3501,5.3501,5.3501,5.3501,5.3501,5.3501,5.3501,5.3501,5.3501,5.3501,5.3501,5.3501,5.3501,5.3501,5.3501,5.3501,5.3501,5.3501,0.0,0.0,0.0,0.0,0.0,0.0,0.0,0.0,0.0,0.0,0.0,0.0,0.0,0.0,0.0,0.0,0.0,0.0,0.0,3.9169,4.0096,4.0096,4.0096,4.0096,4.0096,4.0096,4.0096,0.0,0.0,0.0,4.1068,4.1157,4.18,4.3169,4.3338,4.3744,4.4482,4.455,4.4615,4.4615,4.4615,4.4615,4.4615,4.4615,4.4615,4.4615,4.4615,4.4615,4.4615,4.4615,4.4615,4.4615,4.4615,4.4615,4.477,4.6259,4.68,4.702,4.8494,4.9001,4.9001,4.9001,4.9001,4.9001,4.9001,4.9001,4.9001,4.9001,4.9001,4.9001,4.9001,4.9001,4.9204,4.9999,5.0201,5.0574,5.1995,5.2367,5.2638,5.3365,5.3501,5.3501,5.3501,5.3501,5.3501,5.3501,5.3501,5.3501,5.3501,5.3501,5.3501,5.3501,5.3501,5.3501,5.3501,5.3501,5.3501,5.3501,5.3501,5.3501,5.3501,5.3501,5.3501,5.3501,5.3501,5.3501,5.3501,5.3501,5.3501,5.3501,5.3501,5.3501,0.0,0.0,0.0,0.0,0.0,0.0,0.0,0.0,0.0,0.0,0.0,0.0,0.0,0.0,0.0,0.0,0.0,3.7893,3.7893,3.9169,4.0096,4.0096,4.0096,4.0096,4.0096,4.0096,4.0096,4.0096,0.0,0.0,4.032,4.0882,4.1343,4.1647,4.2797,4.349,4.366,4.4279,4.4615,0.0,4.4615,4.4615,4.4615,4.4615,4.4615,4.4615,4.4615,4.4615,4.4615,4.4615,4.4615,4.4615,4.4615,4.4615,4.477,4.6259,4.68,4.702,4.8494,4.9001,4.9001,4.9001,4.9001,4.9001,4.9001,4.9001,4.9001,4.9001,4.9001,4.9001,4.9001,4.9001,4.934,5.0643,5.0964,5.1201,5.2114,5.2807,5.3298,5.3467,5.3501,5.3501,5.3501,5.3501,5.3501,5.3501,5.3501,5.3501,5.3501,5.3501,5.3501,5.3501,5.3501,5.3501,5.3501,5.3501,5.3501,5.3501,5.3501,5.3501,5.3501,5.3501,5.3501,5.3501,5.3501,5.3501,5.3501,5.3501,5.3501,5.3501,5.3501,5.3501,0.0,0.0,0.0,0.0,0.0,0.0,0.0,0.0,0.0,0.0,0.0,0.0,0.0,0.0,0.0,3.56,3.6896,3.7893,3.7893,3.9169,4.0096,4.0096,4.0096,4.0096,4.0096,4.0096,4.0096,4.0096,0.0,4.0096,4.0096,4.0455,4.0832,4.1187,4.1952,4.2696,4.3375,4.3826,4.4228,4.4615,4.4615,4.4615,4.4615,4.4615,4.4615,4.4615,4.4615,4.4615,4.4615,4.4615,4.4615,4.4615,4.4615,4.4615,4.477,4.6259,4.68,4.702,4.8494,4.9001,4.9001,4.9001,4.9001,4.9001,4.9001,4.9001,4.9001,4.9001,4.9001,4.9001,4.9001,4.9255,4.9813,5.093,5.1201,5.1505,5.2638,5.3213,5.3501,5.3501,5.3501,5.3501,5.3501,5.3501,5.3501,5.3501,5.3501,5.3501,5.3501,5.3501,5.3501,5.3501,5.3501,5.3501,5.3501,5.3501,5.3501,5.3501,5.3501,5.3501,5.3501,5.3501,5.3501,5.3501,5.3501,5.3501,5.3501,5.3501,5.3501,5.3501,5.3501,5.3501,0.0,0.0,0.0,0.0,0.0,0.0,0.0,0.0,0.0,0.0,0.0,0.0,0.0,0.0,3.56,3.56,3.6794,3.7741,3.7877,3.9068,3.996,4.0079,4.0096,4.0096,4.0096,4.0096,4.0096,4.0096,0.0,4.0096,4.0096,4.0096,4.0371,4.0984,4.1136,4.1783,4.3017,4.3271,4.3727,4.4398,4.4533,4.4615,4.4615,4.4615,4.4615,4.4615,4.4615,4.4615,4.4615,4.4615,4.4615,4.4615,4.4615,4.4615,4.477,4.6259,4.68,4.702,4.8494,4.9001,4.9001,4.9001,4.9001,4.9001,4.9001,4.9001,4.9001,4.9001,4.8876,4.8798,4.8955,4.9433,5.0095,5.0983,5.1302,5.1776,5.3179,5.3501,5.3501,5.3501,5.3501,5.3501,5.3501,5.3501,5.3501,5.3501,5.3501,5.3501,5.3501,5.3501,5.3501,5.3501,5.3501,5.3501,5.3501,5.3501,5.3501,5.3501,5.3501,5.3501,5.3501,5.3501,5.3501,5.3501,5.3501,5.3501,5.3501,5.3501,5.3501,5.3501,5.3501,5.3501,0.0,0.0,0.0,0.0,0.0,0.0,0.0,0.0,0.0,0.0,0.0,0.0,0.0,3.56,3.56,3.56,3.6366,3.7173,3.7821,3.8616,3.9389,4.0028,4.0096,4.0096,4.0096,4.0096,4.0096,4.0096,4.0096,4.0096,4.0096,4.0096,4.0146,4.0235,4.0865,4.1292,4.1478,4.2763,4.3457,4.3575,4.4279,4.4615,4.4615,4.4615,4.4615,4.4615,4.4615,4.4615,4.4615,4.4615,4.4615,4.4615,4.4615,4.4615,4.477,4.6259,4.68,4.702,4.8494,4.9001,4.9001,4.9001,4.9001,4.9001,4.9001,4.9001,4.9001,4.9001,4.8417,4.7982,4.8798,4.8937,4.9277,5.082,5.1691,5.2401,5.3315,5.3501,5.3501,5.3501,5.3501,5.3501,5.3501,5.3501,5.3501,5.3501,5.3501,5.3501,5.3501,5.3501,5.3501,5.3501,5.3501,5.3501,5.3501,5.3501,5.3501,5.3501,5.3501,5.3501,5.3501,5.3501,5.3501,5.3501,5.3501,5.3501,5.3501,5.3501,5.3501,5.3501,5.3501,5.3501,0.0,0.0,0.0,0.0,0.0,0.0,0.0,0.0,0.0,0.0,0.0,0.0,3.56,3.56,3.56,3.56,3.6282,3.6902,3.7241,3.7922,3.865,3.9406,3.9474,3.9643,4.0062,4.0096,4.0096,4.0096,4.0096,4.0096,4.0096,4.0096,4.0096,4.0096,4.0405,4.0781,4.1204,4.1833,4.2577,4.3406,4.4228,4.4615,4.4615,4.4615,4.4615,4.4615,4.4615,4.4615,4.4615,4.4615,4.4615,4.4615,4.4615,4.4855,4.5331,4.6397,4.7056,4.7581,4.8629,4.9001,4.9001,4.9001,4.9001,4.9001,4.9001,4.9001,4.8876,4.837,4.8289,4.8354,4.8241,4.9141,5.0291,5.102,5.2097,5.3078,5.3433,5.3501,5.3501,5.3501,5.3501,5.3501,5.3501,5.3501,5.3501,5.3501,5.3501,5.3501,5.3501,5.3501,5.3501,5.3501,5.3501,5.3501,5.3501,5.3501,5.3501,5.3501,5.3501,5.3501,5.3501,5.3501,5.3501,5.3501,5.3501,5.3501,5.3501,5.3501,5.3501,5.3501,5.3501,5.3501,0.0,0.0,0.0,0.0,0.0,0.0,0.0,0.0,0.0,0.0,0.0,3.56,3.56,3.56,3.56,3.56,3.6096,3.6564,3.6767,3.7274,3.7889,3.8633,3.8886,3.922,3.9762,3.9994,4.0096,4.0096,4.0096,4.0096,4.0096,4.0096,4.0096,4.0096,4.0096,4.0354,4.0916,4.1288,4.2121,4.3406,4.4228,4.4615,4.4615,4.4615,4.4615,4.4615,4.4615,4.4615,4.4615,4.4615,4.4615,4.4632,4.4804,4.5227,4.5821,4.6735,4.7445,4.8005,4.8732,4.9001,4.9001,4.9001,4.9001,4.9001,4.9001,4.8829,4.8497,4.7803,4.7917,4.8193,4.7721,4.921,5.0907,5.1136,5.2368,5.3501,5.3501,5.3501,5.3501,5.3501,5.3501,5.3501,5.3501,5.3501,5.3501,5.3501,5.3501,5.3501,5.3501,5.3501,5.3501,5.3501,5.3501,5.3501,5.3501,5.3501,5.3501,5.3501,5.3501,5.3501,5.3501,5.3501,5.3501,5.3501,5.3501,5.3501,5.3501,5.3501,5.3501,5.3501,5.3501,5.3501,0.0,0.0,0.0,0.0,0.0,0.0,0.0,0.0,0.0,0.0,3.56,3.56,3.56,3.56,3.56,3.56,3.5633,3.5932,3.6682,3.6829,3.7122,3.786,3.8565,3.9017,3.9051,3.9694,4.0096,4.0096,4.0096,4.0096,4.0096,4.0096,4.0096,4.0096,4.0096,4.013,4.0163,4.1538,4.2625,4.3406,4.4228,4.4615,4.4615,4.4615,4.4615,4.4615,4.4615,4.4615,4.4615,4.4615,4.4615,4.4682,4.5365,4.5669,4.5858,4.7312,4.787,4.8005,4.8732,4.9001,4.9001,4.9001,4.9001,4.9001,4.9001,4.8386,4.7655,4.7605,4.6986,4.6539,4.7373,4.8727,5.0089,5.0989,5.2368,5.3501,5.3501,5.3501,5.3501,5.3501,5.3501,5.3501,5.3501,5.3501,5.3501,5.3501,5.3501,5.3501,5.3501,5.3501,5.3501,5.3501,5.3501,5.3501,5.3501,5.3501,5.3501,5.3501,5.3501,5.3501,5.3501,5.3501,5.3501,5.3501,5.3501,5.3501,5.3501,5.3501,5.3501,5.3501,5.3501,5.3501,0.0,0.0,0.0,0.0,0.0,0.0,0.0,0.0,0.0,3.56,3.56,3.56,3.56,3.56,3.56,3.56,3.56,3.5712,3.5994,3.6028,3.6315,3.7105,3.7427,3.7968,3.8916,3.9237,3.9592,4.0062,0.0,4.0096,4.0096,4.0096,4.0096,4.0096,4.0096,4.0096,4.0096,4.1085,4.1965,4.2709,4.347,4.4096,4.4615,4.4615,4.4615,4.4615,4.4615,4.4615,4.4615,4.4615,4.4615,4.4668,4.5415,4.5991,4.6532,4.7532,4.8191,4.8631,4.8917,4.9001,4.9001,4.9001,4.8592,4.8096,4.8096,4.7456,4.6591,4.5975,4.6417,4.7151,4.7348,4.904,5.1044,5.2352,5.3112,5.3501,5.3501,5.3501,5.3501,5.3501,5.3501,5.3501,5.3501,5.3501,5.3501,5.3501,5.3501,5.3501,5.3501,5.3501,5.3501,5.3501,5.3501,5.3501,5.3501,5.3501,5.3501,5.3501,5.3501,5.3501,5.3501,5.3501,5.3501,5.3501,5.3501,5.3501,5.3501,5.3501,5.3501,5.3501,5.3501,5.3501,0.0,0.0,0.0,0.0,0.0,0.0,0.0,0.0,3.56,3.56,3.56,3.56,3.56,3.56,3.56,3.56,3.56,3.56,3.56,3.56,3.5797,3.6332,3.6631,3.7173,3.8171,3.8481,3.8937,3.9677,0.0,0.0,4.0096,4.0096,4.0096,4.0096,4.0096,4.0096,4.0096,4.0832,4.1457,4.1931,4.2932,4.3676,4.4212,4.4482,4.4615,4.4615,4.4615,4.4615,4.4615,4.4615,4.4615,4.4685,4.5686,4.6363,4.6919,4.7904,4.858,4.9001,4.9001,4.9001,4.8955,4.8641,4.8112,4.7539,4.7239,4.6454,4.5597,4.4983,4.5939,4.7063,4.6836,4.8901,5.1397,5.2671,5.3247,5.3501,5.3501,5.3501,5.3501,5.3501,5.3501,5.3501,5.3501,5.3501,5.3501,5.3501,5.3501,5.3501,5.3501,5.3501,5.3501,5.3501,5.3501,5.3501,5.3501,5.3501,5.3501,5.3501,5.3501,5.3501,5.3501,5.3501,5.3501,5.3501,5.3501,5.3501,5.3501,5.3501,5.3501,5.3501,5.3501,5.3501,0.0,0.0,0.0,0.0,0.0,0.0,3.5239,0.0,3.56,3.56,3.56,3.56,3.56,3.56,3.56,3.56,3.56,3.56,3.56,3.56,3.56,3.56,3.6282,3.6767,3.6795,3.7449,3.8176,3.8916,3.9,3.9305,4.0028,4.0096,4.0096,4.0096,4.0096,4.0096,4.0096,4.0798,4.1187,4.1221,4.2679,4.3389,4.344,4.4228,4.4615,4.4615,4.4615,4.4615,4.4615,4.4615,4.4601,4.477,4.6242,4.6802,4.702,4.846,4.9001,4.9001,4.9001,4.8986,4.8814,4.7901,4.7572,4.734,4.6419,4.5507,4.4756,4.4756,4.5447,4.6132,4.588,4.8301,5.1014,5.1722,5.2731,5.3501,5.3501,5.3501,5.3501,5.3501,5.3501,5.3501,5.3501,5.3501,5.3501,5.3501,5.3501,5.3501,5.3501,5.3501,5.3501,5.3501,5.3501,5.3501,5.3501,5.3501,5.3501,5.3501,5.3501,5.3501,5.3501,5.3501,5.3501,5.3501,5.3501,5.3501,5.3501,5.3501,5.3501,5.3501,5.3501,5.3501,3.1487,0.0,0.0,0.0,0.0,0.0,3.459,3.5222,3.56,3.56,3.56,3.56,3.56,3.56,3.56,3.56,3.56,3.56,3.56,3.56,3.56,3.56,3.5797,3.6163,3.6745,3.6987,3.741,0.0,3.87,3.9102,3.9288,3.9808,4.0096,4.0096,4.0096,4.0096,4.0096,4.0303,4.0675,4.1208,4.2151,4.2878,4.344,4.4228,4.4615,4.4615,4.4615,4.4615,4.4615,4.4615,4.4905,4.5483,4.643,4.7124,4.7701,4.8663,4.9001,4.9001,4.9001,4.8561,4.7933,4.7671,4.6694,4.5522,4.5264,4.4495,4.3713,4.3713,4.4738,4.6219,4.7868,4.9944,5.1656,5.1854,5.2731,5.3501,5.3501,5.3501,5.3501,5.3501,5.3501,5.3501,5.3501,5.3501,5.3501,5.3501,5.3501,5.3501,5.3501,5.3501,5.3501,5.3501,5.3501,5.3501,5.3501,5.3501,5.3501,5.3501,5.3501,5.3501,5.3501,5.3501,5.3501,5.3501,5.3501,5.3501,5.3501,5.3501,5.3501,5.3501,5.3501,5.3501,0.0,0.0,0.0,0.0,0.0,0.0,3.4793,3.5289,3.56,0.0,3.56,3.56,3.56,3.56,3.56,3.56,3.56,3.56,3.56,3.56,3.56,3.56,3.56,3.578,3.6248,3.6299,3.662,3.7381,3.785,3.8357,3.8966,3.9694,4.0096,4.0096,4.0096,4.0096,4.0096,4.0096,4.032,4.0747,4.1809,4.2523,4.298,4.4093,4.4615,4.4615,4.4615,4.4615,4.4615,4.4615,4.5041,4.5771,4.6498,4.7016,4.7462,4.8575,4.875,4.8417,4.8417,4.8047,4.7473,4.6694,4.5688,4.4718,4.4316,4.3752,4.329,4.329,4.4377,4.6019,4.8098,4.9948,5.1266,5.1266,5.24,5.3501,5.3501,5.3501,5.3501,5.3501,5.3501,5.3501,5.3501,5.3501,5.3501,5.3501,5.3501,5.3501,5.3501,5.3501,5.3501,5.3501,5.3501,5.3501,5.3501,5.3501,5.3501,5.3501,5.3501,5.3501,5.3501,5.3501,5.3501,5.3501,5.3501,5.3501,5.3501,5.3501,5.3501,5.3501,5.3501,5.3501,0.0,0.0,0.0,0.0,0.0,0.0,3.5442,3.56,3.56,3.56,3.56,3.56,3.56,3.56,3.56,3.56,3.56,3.56,3.56,3.56,3.56,3.56,3.56,3.56,3.56,3.56,3.5898,3.6615,3.6745,3.7444,3.8916,3.9609,4.0028,4.0096,4.0096,4.0096,4.0096,4.0096,4.0096,4.013,4.1589,4.23,4.235,4.389,4.4615,4.4615,4.4615,4.4615,4.4615,4.4615,4.5074,4.5875,4.6427,4.6635,4.6797,4.8294,4.8322,4.7605,4.7605,4.7539,4.7155,4.5376,4.4718,4.4472,4.3571,4.329,4.3319,4.3489,4.4431,4.5772,4.7252,4.8941,5.0242,5.0358,5.19,5.3348,5.3467,5.3416,5.3348,5.3484,5.3501,5.3501,5.3501,5.3501,5.3501,5.3501,5.3501,5.3501,5.3501,5.3501,5.3501,5.3501,5.3501,5.3501,5.3501,5.3501,5.3501,5.3501,5.3501,5.3501,5.3501,5.3501,5.3501,5.3501,5.3501,5.3501,5.3501,5.3501,5.3501,5.3501,5.3501,5.3501,0.0,0.0,0.0,0.0,0.0,0.0,3.5442,3.56,3.56,3.56,3.56,3.56,3.56,3.56,3.56,3.56,3.56,3.56,3.56,3.56,3.56,3.56,3.56,3.56,3.56,3.56,3.5678,3.5814,3.6417,3.7444,3.8916,3.9136,3.9491,4.0079,4.0096,4.0096,4.0096,4.0096,4.0096,4.013,4.1589,4.23,4.235,4.389,4.4615,4.4615,4.4615,4.4615,4.4615,4.4615,4.5379,4.6524,4.5914,4.6366,4.7441,4.7753,4.7754,4.7605,4.7605,4.7121,4.6279,4.5153,4.4259,4.3551,4.3369,4.329,4.3534,4.4616,4.5499,4.6298,4.7162,4.8243,4.9336,5.0184,5.1338,5.2453,5.3314,5.2818,5.247,5.3331,5.3501,5.3501,5.3501,5.3501,5.3501,5.3501,5.3501,5.3501,5.3501,5.3501,5.3501,5.3501,5.3501,5.3501,5.3501,5.3501,5.3501,5.3501,5.3501,5.3501,5.3501,5.3501,5.3501,5.3501,5.3501,5.3501,5.3501,5.3501,5.3501,5.3501,5.3501,5.3501,0.0,0.0,0.0,3.4313,0.0,0.0,0.0,3.56,3.56,3.56,3.56,3.56,3.56,3.56,3.56,3.56,3.56,3.56,3.56,3.56,3.56,3.56,3.56,3.56,3.56,3.56,3.56,3.56,3.6361,3.7134,3.7867,3.8594,3.9169,3.9542,3.9897,4.0096,4.0096,4.0096,4.0096,4.013,4.1589,4.23,4.235,4.389,4.4615,4.4615,4.4615,4.4615,4.4615,4.4615,4.5185,4.6056,4.5589,4.6304,4.7605,4.7605,4.7306,4.6901,4.6901,4.6295,4.5324,4.4377,4.3713,4.329,4.329,4.3529,4.4012,4.502,4.5783,4.645,4.713,4.8051,4.8948,4.9476,5.0397,5.1301,5.1829,5.1539,5.132,5.1847,5.2364,5.287,5.3416,5.3501,5.3501,5.3501,5.3501,5.3501,5.3501,5.3501,5.3501,5.3501,5.3501,5.3501,5.3501,5.3501,5.3501,5.3501,5.3501,5.3501,5.3501,5.3501,5.3501,5.3501,5.3501,5.3501,5.3501,5.3501,5.3501,5.3501,5.3501,5.3501,0.0,0.0,0.0,0.0,0.0,3.56,0.0,0.0,0.0,3.56,3.56,0.0,0.0,0.0,0.0,0.0,0.0,0.0,0.0,3.56,0.0,3.56,3.56,3.56,3.56,3.56,3.56,3.56,3.6197,3.6631,3.6795,3.7934,3.8713,3.9,3.9576,3.996,4.0096,4.0096,4.0096,4.013,4.1589,4.23,4.235,4.389,4.4615,4.4584,4.4412,4.444,4.4601,4.4412,4.4753,4.5384,4.5192,4.593,4.707,4.707,4.6591,4.5941,4.5941,4.5431,4.4624,4.363,4.329,4.329,4.329,4.3863,4.4616,4.5155,4.5888,4.6614,4.7174,4.7898,4.8553,4.8743,4.9456,5.0145,5.0374,5.0242,5.0145,5.0374,5.0892,5.1722,5.2973,5.3365,5.3501,5.3501,5.3501,5.3501,5.3501,5.3501,5.3501,5.3501,5.3501,5.3501,5.3501,5.3501,5.3501,5.3501,5.3501,5.3501,5.3501,5.3501,5.3501,5.3501,5.3501,5.3501,5.3501,5.3501,5.3501,5.3501,5.3501,5.3501,0.0,0.0,0.0,0.0,3.5532,0.0,0.0,0.0,3.56,3.56,0.0,0.0,0.0,0.0,0.0,0.0,0.0,0.0,3.56,3.56,3.56,3.56,3.56,3.56,3.56,3.56,3.56,3.56,3.5667,3.6045,3.6761,3.6965,3.7647,3.8954,3.9085,3.944,4.0096,4.0096,4.0096,4.013,4.1589,4.23,4.235,4.389,4.4615,4.4556,4.3785,4.3887,4.4542,4.377,4.4207,4.532,4.4477,4.4541,4.5116,4.5116,4.5058,4.4965,4.4965,4.4906,4.4624,4.363,4.329,4.329,4.329,4.4177,4.52,4.5274,4.6217,4.7204,4.7279,4.7381,4.7715,4.8594,4.8886,4.9235,5.0184,4.9655,4.9256,5.0223,4.9734,4.9777,5.1742,5.287,5.3501,5.3501,5.3501,5.3501,5.3501,5.3501,5.3501,5.3501,5.3501,5.3501,5.3501,5.3501,5.3501,5.3501,5.3501,5.3501,5.3501,5.3501,5.3501,5.3501,5.3501,5.3501,5.3501,5.3501,5.3501,5.3501,5.3501,5.3501,0.0,0.0,0.0,0.0,0.0,0.0,3.56,0.0,3.56,0.0,0.0,0.0,0.0,0.0,0.0,0.0,3.56,0.0,0.0,0.0,3.56,0.0,0.0,0.0,3.56,3.56,3.56,3.56,3.56,3.5746,3.6096,3.6547,3.7274,3.8328,3.8768,3.9356,4.0096,4.0096,4.0096,4.013,4.1589,4.23,4.235,4.389,4.4615,4.457,4.421,4.4253,4.4528,4.3651,4.3821,4.4509,4.3598,4.4222,4.5543,4.5002,4.4793,4.4793,4.4793,4.4431,4.3869,4.3448,4.329,4.329,4.329,4.3967,4.4811,4.5185,4.5992,4.6809,4.7204,4.7309,4.7402,4.7834,4.794,4.8051,4.8501,4.8246,4.8072,4.8501,4.9211,5.0009,5.0873,5.1902,5.2766,5.3416,5.3501,5.3501,5.3501,5.3501,5.3501,5.3501,5.3501,5.3501,5.3501,5.3501,5.3501,5.3501,5.3501,5.3501,5.3501,5.3501,5.3501,5.3501,5.3501,5.3501,5.3501,5.3501,5.3501,5.3501,5.3501,5.3501,3.56,0.0,0.0,0.0,0.0,0.0,0.0,0.0,0.0,0.0,0.0,0.0,0.0,0.0,0.0,0.0,0.0,3.56,0.0,3.56,0.0,0.0,0.0,0.0,0.0,3.56,3.56,3.56,0.0,3.56,3.56,3.6146,3.6818,3.7567,3.8311,3.9051,3.9779,3.9994,4.0096,4.013,4.1386,4.2113,4.2337,4.367,4.4269,4.4239,4.4239,4.4107,4.3844,4.3199,4.3218,4.3595,4.2963,4.3808,4.5327,4.4646,4.4392,4.4392,4.4392,4.3907,4.329,4.329,4.329,4.329,4.329,4.3773,4.4451,4.511,4.5783,4.645,4.713,4.7309,4.7309,4.7309,4.7309,4.7309,4.7309,4.7309,4.7309,4.7309,4.8522,4.973,5.0301,5.1467,5.261,5.3382,5.3501,5.3501,5.3501,5.3501,5.3501,5.3501,5.3501,5.3501,5.3501,5.3501,5.3501,5.3501,5.3501,5.3501,5.3501,5.3501,5.3501,5.3501,5.3501,5.3501,5.3501,5.3501,5.3501,5.3501,5.3501,5.3501,0.0,0.0,0.0,3.56,0.0,0.0,0.0,0.0,3.56,0.0,0.0,0.0,0.0,0.0,0.0,0.0,0.0,0.0,0.0,0.0,0.0,0.0,0.0,0.0,0.0,3.56,3.56,0.0,3.56,0.0,3.56,3.5616,3.6011,3.6812,3.755,3.8294,3.9022,3.9745,4.0096,4.0113,4.0865,4.161,4.2333,4.3085,4.3389,4.3336,4.3336,4.2862,4.2077,4.2046,4.2315,4.2749,4.2713,4.2991,4.3374,4.3369,4.3349,4.3349,4.3349,4.3329,4.329,4.329,4.329,4.329,4.329,4.3773,4.4451,4.511,4.5783,4.645,4.713,4.7309,4.7309,4.7309,4.7309,4.7309,4.7309,4.7309,4.7309,4.7309,4.7359,4.8046,5.0048,5.2115,5.3467,5.3484,5.3501,5.3501,5.3501,5.3501,5.3501,5.3501,5.3501,5.3501,5.3501,5.3501,5.3501,5.3501,5.3501,5.3501,5.3501,5.3501,5.3501,5.3501,5.3501,5.3501,5.3501,5.3501,5.3501,5.3501,5.3501,5.3501,0.0,0.0,3.4386,3.4835,0.0,0.0,0.0,0.0,0.0,0.0,0.0,0.0,0.0,0.0,0.0,0.0,0.0,0.0,0.0,0.0,0.0,0.0,0.0,0.0,0.0,0.0,0.0,0.0,0.0,0.0,0.0,3.56,3.5977,3.6767,3.7516,3.8261,3.8988,3.9728,4.0096,4.0113,4.0849,4.1593,4.2333,4.3051,4.3358,4.3336,4.3902,4.3335,4.1997,4.1997,4.2282,4.2641,4.2053,4.245,4.329,4.329,4.329,4.329,4.329,4.329,4.329,4.329,4.329,4.329,4.329,4.3454,4.3878,4.499,4.5469,4.5903,4.701,4.7309,4.7309,4.7309,4.7309,4.7309,4.7309,4.7309,4.7309,4.7309,4.7834,4.8738,5.0145,5.1523,5.268,5.3382,5.3501,5.3501,5.3501,5.3501,5.3501,5.3501,5.3501,5.3501,5.3501,5.3501,5.3501,5.3501,5.3501,5.3501,5.3501,5.3501,5.3501,5.3501,5.3501,5.3501,5.3501,5.3501,5.3501,5.3501,5.3501,5.3501,3.3595,3.3595,0.0,3.4137,3.4248,0.0,3.5086,0.0,0.0,0.0,0.0,0.0,0.0,0.0,0.0,0.0,0.0,0.0,0.0,3.56,0.0,0.0,0.0,0.0,0.0,0.0,0.0,0.0,0.0,0.0,0.0,0.0,3.5847,3.6349,3.7364,3.8125,3.8599,3.9592,4.0096,4.0113,4.0591,4.1322,4.2303,4.2474,4.282,4.3306,4.3577,4.2862,4.1543,4.1543,4.1807,4.2181,4.1633,4.2177,4.329,4.329,4.329,4.329,4.329,4.329,4.329,4.329,4.329,4.329,4.329,4.329,4.3534,4.4625,4.511,4.5544,4.6666,4.713,4.7309,4.7309,4.7309,4.7309,4.7309,4.7309,4.7309,4.7309,4.7813,4.8733,5.0145,5.093,5.1849,5.3281,5.3501,5.3501,5.3501,5.3501,5.3501,5.3501,5.3501,5.3501,5.3501,5.3501,5.3501,5.3501,5.3501,5.3501,5.3501,5.3501,5.3501,5.3501,5.3501,5.3501,5.3501,5.3501,5.3501,5.3501,5.3501,5.3501]},{"header":{"parameterUnit":"m.s-1","parameterCategory":1,"la1":30.6,"la2":29.2853,"lo1":-89.7004,"lo2":-87.6739,"dy":0.0162,"dx":0.0183,"nx":112,"ny":82,"refTime":"2024-02-10T06:00:00:Z","depth":0,"parameterNumber":3,"parameterNumberName":"V-component_of_WINDS"},"data":[0.0,0.0,0.0,0.0,0.0,0.0,0.0,0.0,0.0,0.0,0.0,0.0,0.0,0.0,0.0,0.0,0.0,0.0,0.0,0.0,0.0,0.0,0.0,0.0,0.0,0.0,0.0,0.0,0.0,0.0,0.0,0.0,0.0,0.0,0.0,0.0,0.0,0.0,0.0,0.0,0.0,0.0,0.0,0.0,0.0,0.0,0.0,0.0,0.0,0.0,0.0,0.0,0.0,0.0,0.0,0.0,0.0,0.0,0.0,0.0,0.0,0.0,0.0,0.0,0.0,0.0,0.0,0.0,0.0,0.0,0.0,0.0,0.0,0.0,0.0,0.0,0.0,0.0,0.0,0.0,0.0,0.0,0.0,0.0,0.0,0.0,0.0,0.0,0.0,0.0,0.0,0.8479,0.8285,0.8549,0.9434,1.0174,1.0609,1.0609,0.0,0.0,0.0,0.0,0.0,0.0,0.0,0.0,0.0,0.0,0.0,0.0,0.0,0.0,0.0,0.0,0.0,0.0,0.0,0.0,0.0,0.0,0.0,0.0,0.0,0.0,0.0,0.0,0.0,0.0,0.0,0.0,0.0,0.0,0.0,0.0,0.0,0.0,0.0,0.0,0.0,0.0,0.0,0.0,0.0,0.0,0.0,0.0,0.0,0.0,0.0,0.0,0.0,0.0,0.0,0.0,0.0,0.0,0.0,0.0,0.0,0.0,0.0,0.0,0.0,0.0,0.0,0.0,0.0,0.0,0.0,0.0,0.0,0.0,0.0,0.0,0.0,0.0,0.0,0.0,0.0,0.0,0.0,0.0,0.0,0.0,0.0,0.0,0.0,0.0,0.0,0.0,0.0,0.0,0.0,0.0,0.0,0.0,0.0,0.0,0.0,0.0,0.0,0.0,1.0349,1.0215,0.954,0.946,1.0333,1.0523,1.0609,1.0609,0.0,0.0,0.0,0.0,0.0,0.0,0.0,0.0,0.0,0.0,0.0,0.0,0.0,0.0,0.0,0.0,0.0,0.0,0.0,0.0,0.0,0.0,0.0,0.0,0.0,0.0,0.0,0.0,0.0,0.0,0.0,0.0,0.0,0.0,0.0,0.0,0.0,0.0,0.0,0.0,0.0,0.0,0.0,0.0,0.0,0.0,0.0,0.0,0.0,0.0,0.0,0.0,0.0,0.0,0.0,0.0,0.0,0.0,0.0,0.0,0.0,0.0,0.0,0.0,0.0,0.0,0.0,0.0,0.0,0.0,0.0,0.0,0.0,0.0,0.0,0.0,0.0,0.0,0.0,0.0,0.0,0.0,0.0,0.0,0.0,0.0,0.0,0.0,0.0,0.0,0.0,0.0,0.0,0.0,0.0,0.0,0.0,0.0,0.0,0.0,0.0,0.0,0.0,0.9563,0.9954,1.0104,0.9758,0.9933,1.0949,1.1029,1.1029,1.1029,1.0898,0.0,0.0,0.0,0.0,0.0,0.0,0.0,0.0,0.0,0.0,0.0,0.0,0.0,0.0,0.0,0.0,0.0,0.0,0.0,0.0,0.0,0.0,0.0,0.0,0.0,0.0,0.0,0.0,0.0,0.0,0.0,0.0,0.0,0.0,0.0,0.0,0.0,0.0,0.0,0.0,0.0,0.0,0.0,0.0,0.0,0.0,0.0,0.0,0.0,0.0,0.0,0.0,0.0,0.0,0.0,0.0,0.0,0.0,0.0,0.0,0.0,0.0,0.0,0.0,0.0,0.0,0.0,0.0,0.0,0.0,0.0,0.0,0.0,0.0,0.0,0.0,0.0,0.0,0.0,0.0,0.0,0.0,0.0,0.0,0.0,0.0,0.0,0.0,0.0,0.0,0.0,0.0,0.0,0.0,0.0,0.0,0.0,0.0,0.0,0.0,0.0,0.0,0.9701,0.9805,1.0066,1.0097,1.0453,1.1324,1.1406,1.1406,1.1406,1.1216,0.0,0.0,0.0,0.0,0.0,0.0,0.0,0.0,0.0,0.0,0.0,0.0,0.0,0.0,0.0,0.0,0.0,0.0,0.0,0.0,0.0,0.0,0.0,0.0,0.0,0.0,0.0,0.0,0.0,0.0,0.0,0.0,0.0,0.0,0.0,0.0,0.0,0.0,0.0,0.0,0.0,0.0,0.0,0.0,0.0,0.0,0.0,0.0,0.0,0.0,0.0,0.0,0.0,0.0,0.0,0.0,0.0,0.0,0.0,0.0,0.0,0.0,0.0,0.0,0.0,0.0,0.0,0.0,0.0,0.0,0.0,0.0,0.0,0.0,0.0,0.0,0.0,0.0,0.0,0.0,0.0,0.0,0.0,0.0,0.0,0.0,0.0,0.0,0.0,0.0,0.0,0.0,0.0,0.0,0.0,0.0,0.0,0.0,0.0,0.0,0.0,0.0,1.088,1.0986,1.1244,1.127,1.1317,1.1389,1.1406,1.1406,1.1406,1.1375,0.0,0.0,0.0,0.0,0.0,0.0,0.0,0.0,0.0,0.0,0.0,0.0,0.0,0.0,0.0,0.0,0.0,0.0,0.0,0.0,0.0,0.0,0.0,0.0,0.0,0.0,0.0,0.0,0.0,0.0,0.0,0.0,0.0,0.0,0.0,0.0,0.0,0.0,0.0,0.0,0.0,0.0,0.0,0.0,0.0,0.0,0.0,0.0,0.0,0.0,0.0,0.0,0.0,0.0,0.0,0.0,0.0,0.0,0.0,0.0,0.0,0.0,0.0,0.0,0.0,0.0,0.0,0.0,0.0,0.0,0.0,0.0,0.0,0.0,0.0,0.0,0.0,0.0,0.0,0.0,0.0,0.0,0.0,0.0,0.0,0.0,0.0,0.0,0.0,0.0,0.0,0.0,0.0,0.0,0.0,0.0,0.0,0.0,0.0,0.0,0.0,0.0,1.1246,1.1376,0.0,1.1703,1.1777,1.1957,1.1953,1.1953,1.1953,0.0,0.0,0.0,0.0,0.0,0.0,0.0,0.0,0.0,0.0,0.0,0.0,0.0,0.0,0.0,0.0,0.0,0.0,0.0,0.0,0.0,0.0,0.0,0.0,0.0,0.0,0.0,0.0,0.0,0.0,0.0,0.0,0.0,0.0,0.0,0.0,0.0,0.0,0.0,0.0,0.0,0.0,0.0,0.0,0.0,0.0,0.0,0.0,0.0,0.0,0.0,0.0,0.0,0.0,0.0,0.0,0.0,0.0,0.0,0.0,0.0,0.0,0.0,0.0,0.0,0.0,0.0,0.0,0.0,0.0,0.0,0.0,0.0,0.0,0.0,0.0,0.0,0.0,0.0,0.0,0.0,0.0,0.0,0.0,0.0,0.0,0.0,0.0,0.0,0.0,0.0,0.0,0.0,0.0,0.0,0.0,0.0,0.0,0.0,0.0,0.0,0.0,1.1513,1.1563,1.1677,0.0,1.2022,1.2102,1.2285,1.2305,1.2305,1.2305,0.0,0.0,0.0,0.0,0.0,0.0,0.0,0.0,0.0,0.0,0.0,0.0,0.0,0.0,0.0,0.0,0.0,0.0,0.0,0.0,0.0,0.0,0.0,0.0,0.0,0.0,0.0,0.0,0.0,0.0,0.0,0.0,0.0,0.0,0.0,0.0,0.0,0.0,0.0,0.0,0.0,0.0,0.0,0.0,0.0,0.0,0.0,0.0,0.0,0.0,0.0,0.0,0.0,0.0,0.0,0.0,0.0,0.0,0.0,0.0,0.0,0.0,0.0,0.0,0.0,0.0,0.0,0.0,0.0,0.0,0.0,0.0,0.0,0.0,0.0,0.0,0.0,0.0,0.0,0.0,0.0,0.0,0.0,0.0,0.0,0.0,0.0,0.0,0.0,0.0,0.0,0.0,0.0,0.0,0.0,0.0,0.0,0.0,0.0,0.0,0.0,0.0,1.1855,1.1906,1.2002,1.2271,1.2305,1.2305,1.2305,1.2305,1.2305,0.0,0.0,0.0,0.0,0.0,0.0,0.0,0.0,0.0,0.0,0.0,0.0,0.0,0.0,0.0,0.0,0.0,0.0,0.0,0.0,0.0,0.0,0.0,0.0,0.0,0.0,0.0,0.0,0.0,0.0,0.0,0.0,0.0,0.0,0.0,0.0,0.0,0.0,0.0,0.0,0.0,0.0,0.0,0.0,0.0,0.0,0.0,0.0,0.0,0.0,0.0,0.0,0.0,0.0,0.0,0.0,0.0,0.0,0.0,0.0,0.0,0.0,0.0,0.0,0.0,0.0,0.0,0.0,0.0,0.0,0.0,0.0,0.0,0.0,0.0,0.0,0.0,0.0,0.0,0.0,0.0,0.0,0.0,0.0,0.0,0.0,0.0,0.0,0.0,0.0,0.0,0.0,0.0,0.0,0.0,0.0,0.0,0.0,0.0,0.0,0.0,0.0,0.0,1.2138,1.2178,1.2204,1.2291,1.2305,1.2305,1.2305,1.2305,1.2305,1.2305,0.0,0.0,0.0,0.0,0.0,0.0,0.0,0.0,0.0,0.0,0.0,0.0,0.0,0.0,0.0,0.0,0.0,0.0,0.0,0.0,0.0,0.0,0.0,0.0,0.0,0.0,0.0,0.0,0.0,0.0,0.0,0.0,0.0,0.0,0.0,0.0,0.0,0.0,0.0,0.0,0.0,0.0,0.0,0.0,0.0,0.0,0.0,0.0,0.0,0.0,0.0,0.0,0.0,0.0,0.0,0.0,0.0,0.0,0.0,0.0,0.0,0.0,0.0,0.0,0.0,0.0,0.0,0.0,0.0,0.0,0.0,0.0,0.0,0.0,0.0,0.0,0.0,0.0,0.0,0.0,0.0,0.0,0.0,0.0,0.0,0.0,0.0,0.0,0.0,0.0,0.0,0.0,0.0,0.0,0.0,0.0,0.0,0.0,0.0,0.0,0.0,0.0,1.2278,1.2305,1.2345,1.2484,1.2497,1.2551,1.2652,1.2665,1.2665,1.2665,0.0,0.0,0.0,0.0,0.0,0.0,0.0,0.0,0.0,0.0,0.0,0.0,0.0,0.0,0.0,0.0,0.0,0.0,0.0,0.0,0.0,0.0,0.0,0.0,0.0,0.0,0.0,0.0,0.0,0.0,0.0,0.0,0.0,0.0,0.0,0.0,0.0,0.0,0.0,0.0,0.0,0.0,0.0,0.0,0.0,0.0,0.0,0.0,0.0,0.0,0.0,0.0,0.0,0.0,0.0,0.0,0.0,0.0,0.0,0.0,0.0,0.0,0.0,0.0,0.0,0.0,0.0,0.0,0.0,0.0,0.0,0.0,0.0,0.0,0.0,0.0,0.0,0.0,0.0,0.0,0.0,0.0,0.0,0.0,0.0,0.0,0.0,0.0,0.0,0.0,0.0,0.0,0.0,0.0,0.0,0.0,0.0,0.0,0.0,0.0,0.0,0.0,1.2345,1.2365,1.251,1.2797,1.285,1.2945,1.3186,1.3193,1.3193,1.3193,0.0,0.0,0.0,0.0,0.0,0.0,0.0,0.0,0.0,0.0,0.0,0.0,0.0,0.0,0.0,0.0,0.0,0.0,0.0,0.0,0.0,0.0,0.0,0.0,0.0,0.0,0.0,0.0,0.0,0.0,0.0,0.0,0.0,0.0,0.0,0.0,0.0,0.0,0.0,0.0,0.0,0.0,0.0,0.0,0.0,0.0,0.0,0.0,0.0,0.0,0.0,0.0,0.0,0.0,0.0,0.0,0.0,0.0,0.0,0.0,0.9005,0.0,0.0,0.0,0.0,0.0,0.0,0.0,0.0,0.0,0.0,0.0,0.0,0.0,0.0,0.0,0.0,0.0,0.0,0.0,0.0,0.0,0.0,0.0,0.0,0.0,0.0,0.0,0.0,0.0,0.0,0.0,0.0,0.0,0.0,0.0,0.0,0.0,0.0,0.0,0.0,0.0,1.269,1.2885,1.3039,1.3106,1.3113,1.314,1.3206,1.3193,1.3193,1.3193,1.3193,0.0,0.0,0.0,0.0,0.0,0.0,0.0,0.0,0.0,0.0,0.0,0.0,0.0,0.0,0.0,0.0,0.0,0.0,0.0,0.0,0.0,0.0,0.0,0.0,0.0,0.0,0.0,0.0,0.0,0.0,0.0,0.0,0.0,0.0,0.0,0.0,0.0,0.0,0.0,0.0,0.0,0.0,0.0,0.0,0.0,0.0,0.0,0.0,0.0,0.0,0.0,0.0,0.0,0.0,0.0,0.0,0.0,0.0,0.0,0.0,0.9225,0.0,0.0,0.0,0.0,0.0,0.0,0.0,0.0,0.0,0.0,0.0,0.0,0.0,0.0,0.0,0.0,0.0,0.0,0.0,0.0,0.0,0.0,0.0,0.0,0.0,0.0,0.0,0.0,0.0,0.0,0.0,0.0,0.0,0.0,0.0,0.0,0.0,0.0,0.0,0.0,1.2985,1.3113,1.3247,1.3387,1.34,1.3453,1.3621,1.3627,1.3627,1.3627,1.3627,0.0,0.0,0.0,0.0,0.0,0.0,0.0,0.0,0.0,0.0,0.0,0.0,0.0,0.0,0.0,0.0,0.0,0.0,0.0,0.0,0.0,0.0,0.0,0.0,0.0,0.0,0.0,0.0,0.0,0.0,0.0,0.0,0.0,0.0,0.0,0.0,0.0,0.0,0.0,0.0,0.0,0.0,0.0,0.0,0.0,0.0,0.0,0.0,0.0,0.0,0.0,0.0,0.0,0.9928,1.0067,1.0332,1.0332,1.0481,1.0713,1.0209,0.9915,0.9774,0.9774,0.0,0.0,0.0,0.0,0.0,0.0,0.0,0.0,0.0,0.0,0.0,0.0,0.0,0.0,0.0,0.0,0.0,0.0,0.0,0.0,0.0,0.0,0.0,0.0,1.1408,1.1642,0.0,0.0,0.0,0.0,0.0,0.0,0.0,0.0,0.0,0.0,0.0,0.0,1.3267,1.3313,1.3433,1.3653,1.368,1.38,1.4089,1.4109,1.4109,1.4109,1.4109,1.3975,0.0,0.0,0.0,0.0,0.0,0.0,0.0,0.0,0.0,0.0,0.0,0.0,0.0,0.0,0.0,0.0,0.0,0.0,0.0,0.0,0.0,0.0,0.0,0.0,0.0,0.0,0.0,0.0,0.0,0.0,0.0,0.0,0.7821,0.7381,0.0,0.0,0.0,0.0,0.0,0.0,0.0,0.0,0.0,0.0,0.0,0.0,0.0,1.0005,1.0045,1.0345,1.06,1.0822,1.0822,1.0975,1.1239,1.1239,1.1259,1.1292,1.1212,0.0,1.0045,1.0045,0.0,0.0,0.0,0.0,0.0,0.0,0.0,0.0,0.0,0.0,0.0,0.0,0.0,0.0,0.0,0.0,0.0,0.0,0.0,0.0,0.0,0.0,1.1352,1.1352,1.2223,1.2826,0.0,1.1801,1.1828,1.1828,1.2062,0.0,0.0,0.0,0.0,0.0,0.0,0.0,1.3547,1.3794,1.3981,1.4021,1.4028,1.4041,1.4103,1.4109,1.4109,1.4109,1.4109,1.4089,1.4035,1.4028,0.0,0.0,0.0,0.0,0.0,0.0,0.0,0.0,0.0,0.0,0.0,0.0,0.0,0.0,0.0,0.0,0.0,0.0,0.0,0.0,0.0,0.0,0.0,0.0,0.0,0.0,0.0,0.0,0.0,0.8685,0.8923,0.8601,0.8951,0.9222,0.0,0.0,0.0,0.0,0.0,0.0,0.0,0.0,0.0,1.0423,1.0541,1.0768,1.1112,1.1263,1.1477,1.173,1.173,1.1884,1.2183,1.2183,1.2265,1.2406,1.2406,1.2111,1.1574,1.1056,1.0765,1.0661,0.0,0.0,0.0,0.0,1.0661,1.0661,1.0661,1.0661,0.0,1.0661,0.0,0.0,0.0,0.0,0.0,0.0,0.0,0.0,0.0,0.0,1.2852,1.3032,1.4082,1.4759,1.3747,1.3531,1.3313,0.0,1.2991,1.3386,1.3088,0.0,0.0,0.0,0.0,1.4096,1.4709,1.4392,1.4109,1.4109,1.4109,1.4109,1.4109,1.4109,1.4109,1.4109,1.4109,1.4109,1.4109,1.4109,1.4021,0.0,0.0,0.0,0.0,0.0,0.0,0.0,0.0,0.0,0.0,0.0,0.0,0.0,0.0,0.0,0.0,0.0,0.0,0.0,0.0,0.0,0.0,0.0,0.0,0.0,0.0,0.0,0.0,0.9418,0.9793,0.9793,0.9941,1.0035,0.0,0.0,0.0,0.0,0.0,0.0,1.0425,1.0505,1.0768,1.1219,1.138,1.1685,1.2127,1.2196,1.2325,1.2532,1.2532,1.2671,1.2904,1.2904,1.3012,1.3193,1.3193,1.3099,1.2844,1.2064,1.1717,1.1633,1.1633,1.1633,1.1633,1.1633,1.1633,1.1633,1.1633,1.1633,1.1633,1.1633,0.0,1.1633,1.1633,0.0,0.0,0.0,0.0,1.2025,1.3129,1.3776,1.4181,1.4449,1.567,1.6493,1.5442,1.5404,1.5142,0.0,1.3967,1.4337,1.3828,0.0,0.0,0.0,0.0,1.4901,1.5972,1.5407,1.4817,1.4531,1.4517,1.4391,1.413,1.4109,1.4109,1.4109,1.4109,1.4109,1.4109,1.4109,1.4109,1.4109,0.0,0.0,0.0,0.0,0.0,0.0,0.0,0.0,0.0,0.0,0.0,0.0,0.0,0.0,0.0,0.0,0.0,0.0,0.0,0.0,0.0,0.0,0.0,0.0,0.0,0.0,0.0,0.0,0.0,1.0078,1.0588,0.0,0.0,0.0,0.0,1.1302,1.1302,1.1326,1.1322,1.1647,1.1815,1.1841,1.2402,1.2729,1.2756,1.3012,1.3146,1.314,1.314,1.3153,1.3186,1.3186,1.32,1.3193,1.3193,1.318,1.316,1.2857,1.2531,1.2258,1.2258,1.2258,1.2258,1.2258,1.2258,1.2258,1.2258,1.2258,1.2258,1.2258,1.2258,1.2258,1.2258,1.2258,0.0,0.0,1.2736,1.281,1.3138,1.3981,1.4749,1.4791,1.6331,1.7543,1.655,1.7076,1.7141,0.0,1.4733,1.4877,1.5155,0.0,1.5725,1.7017,1.6306,1.6005,1.707,1.718,1.6744,1.5724,1.5621,1.522,1.4194,1.4109,1.4109,1.4109,1.4109,1.4109,1.4109,1.4109,1.4109,1.4109,1.4109,0.0,0.0,0.0,0.0,0.0,0.0,0.0,0.0,0.0,0.0,0.0,0.0,0.0,0.0,0.0,0.0,0.0,0.0,0.0,0.0,0.0,0.0,0.0,0.0,0.0,0.0,0.0,0.0,1.0681,1.1012,0.0,1.1554,1.1667,1.179,1.1977,1.1991,1.2071,1.2283,1.2415,1.2563,1.2726,1.2959,1.3133,1.33,1.3413,1.3567,1.3774,1.3774,1.3774,1.3774,1.3774,1.4152,1.4758,1.409,1.4173,1.4751,1.3947,1.3347,1.2886,1.2886,1.2886,1.2886,1.2886,1.2886,1.2886,1.2886,1.2886,1.2886,1.2886,1.2886,1.2886,1.2886,1.2886,1.306,1.3858,1.4091,1.4485,1.618,1.689,1.7239,1.7439,1.8611,1.9362,1.831,1.8349,1.8397,1.7656,1.7322,1.7058,1.6657,1.7204,1.7846,1.8312,1.6866,1.6088,1.7151,1.6103,1.5082,1.4713,1.4671,1.451,1.4124,1.4109,1.4109,1.4109,1.4109,1.4109,1.4109,1.4109,1.4109,1.4109,1.4109,1.4109,0.0,0.0,0.0,0.0,0.0,0.0,0.0,0.0,0.0,0.0,0.0,0.0,0.0,0.0,0.0,0.0,0.0,0.0,0.0,0.0,0.0,0.0,0.0,0.0,0.0,0.0,1.1306,1.1306,1.1637,1.1962,1.2181,1.2301,1.2405,1.2592,1.2605,1.2699,1.2912,1.3019,1.3146,1.3333,1.3433,1.358,1.3774,1.4131,1.4427,1.4636,1.5005,1.4985,1.4636,1.4636,1.504,1.5641,1.4573,1.4713,1.5621,1.4531,1.4076,1.4051,1.4051,1.4051,1.4051,1.4051,1.4265,1.4578,1.4578,1.4345,1.4051,1.4051,1.3797,1.3568,1.3931,1.4051,1.4265,1.535,1.5638,1.6019,1.7661,1.8385,1.873,1.8953,1.9825,2.0401,1.9697,1.954,1.954,1.954,1.9063,1.8504,1.7966,1.8499,1.9116,1.9481,1.7971,1.7204,1.8281,1.7172,1.6157,1.5794,1.5752,1.5449,1.4692,1.4636,1.4496,1.413,1.4433,1.4468,1.4109,1.4454,1.4475,1.4109,1.4109,1.4109,1.4109,0.0,0.0,0.0,0.0,0.0,0.0,0.0,0.0,0.0,0.0,0.0,0.0,0.0,0.0,0.0,0.0,0.0,0.0,0.0,0.0,0.0,0.0,0.0,1.1022,1.1534,1.1926,1.1933,1.2449,1.2823,1.2811,1.3066,1.3227,1.324,1.324,1.324,1.324,1.346,1.362,1.362,1.3935,1.4088,1.4102,1.5151,1.5684,1.5754,1.6796,1.6755,1.5795,1.5795,1.5809,1.5767,1.4706,1.4846,1.5767,1.4685,1.4846,1.5767,1.569,1.5675,1.5696,1.5662,1.6314,1.7192,1.7241,1.656,1.5703,1.5737,1.5061,1.4391,1.5442,1.5737,1.5964,1.705,1.7362,1.7354,1.7395,1.8238,1.9074,1.9074,1.9872,2.0644,2.0644,2.0644,2.0644,2.0644,1.9803,1.9092,1.9045,1.9045,1.9402,2.044,1.9687,0.0,2.0421,2.0527,2.0099,1.9056,1.8957,1.808,1.5923,1.5737,1.5317,1.4271,1.5137,1.5234,1.4187,1.5158,1.5213,1.4166,1.413,1.4109,1.4109,0.0,0.0,0.0,0.0,0.0,0.0,0.0,0.0,0.0,0.0,0.0,0.0,0.0,0.0,0.0,0.0,0.0,0.0,0.0,0.0,0.0,0.0,1.187,1.1674,1.1962,1.2283,1.2516,1.2865,1.3166,1.336,1.3453,1.3594,1.3828,1.3848,1.3848,1.3848,1.3921,1.3968,1.3968,1.4041,1.4188,1.4396,1.469,1.5383,1.6492,1.6794,1.7237,1.7791,1.7791,1.8237,1.8902,1.7834,1.7961,1.8881,1.7821,1.7544,1.7594,1.538,1.5019,1.56,1.4838,1.4741,1.5082,1.5869,1.5944,1.582,1.6601,1.6662,1.6486,1.6764,1.6866,1.709,1.821,1.853,1.8709,1.9491,2.013,2.0596,2.0596,2.1088,2.1544,2.1544,2.1544,2.1544,2.1544,2.129,2.0905,2.0272,2.0157,2.0265,2.0566,1.9687,0.0,1.9402,1.8709,1.808,1.7799,1.7767,1.7516,1.6907,1.6866,1.6731,1.6445,1.5972,1.5559,1.5275,1.5538,1.5559,1.5283,1.4489,1.4109,0.0,0.0,0.0,0.0,0.0,0.0,0.0,0.0,0.0,0.0,0.0,0.0,0.0,0.0,0.0,0.0,0.0,0.0,0.0,0.0,0.0,0.0,1.2078,1.2371,1.2585,1.2759,1.2926,1.31,1.3394,1.3647,1.3794,1.3807,1.388,1.4096,1.4109,1.4368,1.5,1.5029,1.5085,1.524,1.5219,1.5304,1.5465,1.5915,1.6835,1.8226,1.8708,1.9059,1.9264,1.9264,1.9604,2.0141,1.908,1.92,2.012,1.9029,1.8858,0.0,0.0,0.0,0.0,0.0,1.7064,1.6804,1.7913,1.7987,1.7688,1.8319,1.8203,1.7933,1.838,1.8504,1.876,1.9889,2.0211,2.0352,2.0973,2.1309,2.1484,2.1484,2.1699,2.1905,2.1905,2.1905,2.1905,2.1905,2.1905,0.0,2.1231,2.1133,2.1133,2.1133,2.0603,2.0211,2.0211,1.9645,1.9228,1.9228,1.9228,1.9035,1.8554,1.8504,0.0,0.0,0.0,1.7519,1.7331,1.6281,0.0,0.0,0.0,1.4776,1.4776,0.0,0.0,0.0,1.4313,1.4109,0.0,0.0,0.0,0.0,0.0,0.0,0.0,0.0,0.0,0.0,0.0,0.0,0.0,0.0,0.0,0.0,1.2405,1.2713,1.3493,1.3633,1.3653,1.3653,1.3955,1.4156,1.4156,1.419,1.4267,1.4387,1.4387,1.5036,1.6475,0.0,0.0,0.0,0.0,1.6888,1.7057,1.7996,1.9093,2.0331,2.1356,2.1377,2.0531,2.0531,2.0531,2.0467,1.9522,1.9659,2.0446,1.95,1.968,2.0501,2.0304,2.0141,2.0141,2.1161,2.0892,2.0184,2.1328,0.0,0.0,2.0352,1.9761,1.9144,2.0099,2.0394,2.0592,2.1617,2.1905,2.1905,2.1905,2.1924,2.1974,2.1974,2.1992,2.2052,2.2052,2.2052,2.2052,2.2052,2.2052,2.2052,2.2052,2.1974,2.1905,2.1905,2.1905,2.1905,2.1905,2.1905,2.1905,2.1905,0.0,0.0,2.0487,2.0394,1.9994,1.9038,1.9731,2.0051,1.9677,1.7326,1.6078,1.6216,1.6099,1.5954,1.5829,1.5829,1.5746,1.5607,1.4587,1.4109,0.0,0.0,0.0,0.0,0.0,0.0,0.0,0.0,0.0,0.0,0.0,0.0,0.0,0.0,0.0,1.2683,1.3066,1.3407,1.358,1.3827,1.4001,1.4001,1.4262,1.4414,1.4414,1.4671,1.524,1.6191,1.6278,1.6822,1.8085,1.7223,1.7167,1.8213,1.7302,1.739,1.8654,1.8853,1.9679,2.1089,0.0,0.0,2.2546,2.2546,2.2546,2.2524,2.2329,2.2351,2.2524,2.2329,2.2351,2.2392,2.0808,1.9667,1.8943,1.9166,1.9102,1.905,2.015,2.0373,2.0352,2.1265,2.143,2.1296,2.1513,2.1575,0.0,2.1843,2.1905,2.1905,2.1905,2.2139,2.2371,2.2371,2.2625,2.2869,2.2869,2.2869,2.2869,2.2869,2.2869,2.2869,2.2869,2.2334,2.1905,2.1905,2.1905,2.1905,2.1905,2.1905,2.1905,2.1905,2.1905,2.1823,2.1596,2.1575,2.1483,2.1275,2.058,2.0168,2.0087,1.8765,1.8456,1.9312,1.8477,1.756,1.6597,1.6597,1.6089,1.5123,1.4409,1.4109,0.0,0.0,0.0,0.0,0.0,0.0,0.0,0.0,0.0,0.0,0.0,1.2342,1.2342,0.0,1.3046,1.3173,1.3427,1.3851,1.4557,1.4439,1.4302,1.4302,1.4414,1.4583,1.473,1.5456,1.6139,1.6763,1.6807,1.7656,1.9648,1.8614,1.8564,1.9913,1.9377,1.9426,2.0177,2.0208,2.086,2.2195,2.2195,2.2514,2.3091,2.3091,2.3091,2.3091,2.3091,2.3091,2.3091,2.3091,2.3091,2.3008,2.2035,2.1318,2.0855,2.0855,2.0855,2.092,2.1469,2.165,2.1757,2.2308,2.2488,2.2488,2.2488,2.2488,2.2488,2.2488,2.2488,2.2488,2.2488,2.2645,2.2859,2.3096,2.331,2.3503,2.3708,2.3757,2.3757,2.3757,2.3757,2.3757,2.3757,2.3428,2.3008,2.2578,2.2488,2.2488,2.2488,2.2488,2.2488,2.2488,2.2488,2.2488,2.2488,2.2488,2.2488,2.2488,2.1768,2.1339,2.1339,2.0101,1.9646,2.0184,1.9667,1.8815,1.7607,1.7607,1.6982,1.5777,1.4934,1.4544,0.0,0.0,0.0,0.0,0.0,0.0,0.0,0.0,1.2318,1.2378,1.2616,1.2823,1.2864,1.3106,1.3353,1.356,1.3646,1.409,1.5218,1.4872,1.4601,1.491,1.4993,1.5123,1.5392,1.6358,1.7172,1.765,1.7452,1.8496,2.1185,2.0166,2.0173,2.1604,2.1413,2.1404,2.1645,2.1658,2.2151,2.3091,2.3091,2.3091,2.3091,2.3091,2.3091,2.3091,2.3091,2.3091,2.3101,2.321,2.324,2.3227,2.3305,2.3344,2.3325,2.3159,2.3091,2.3091,2.3091,2.3091,2.3091,2.3091,2.3091,2.3091,2.3091,2.3149,2.324,2.324,2.3276,2.3344,2.3344,2.3344,2.3454,2.3828,2.3906,2.4004,2.4323,2.4391,2.4391,2.4391,2.4391,2.4391,2.4391,2.4391,2.4157,2.3474,2.3344,2.3344,2.3344,2.3344,2.3344,2.3344,2.3344,2.3344,2.3344,2.3344,2.3305,2.3249,2.2927,2.2703,2.2615,2.1431,2.0759,2.0759,2.0759,2.0175,1.8969,1.8969,1.833,1.7128,1.6289,1.5552,1.2211,1.2204,1.2204,1.2204,1.2231,1.2258,0.0,0.0,1.2378,1.2683,1.2764,1.2871,1.3106,1.338,1.3567,1.36,1.3847,1.409,1.4265,1.4421,1.5018,1.6374,1.6743,1.6914,1.6951,1.7347,1.85,2.0646,1.9794,2.0269,2.2719,2.1714,2.1621,2.2862,2.1867,2.1823,2.2884,2.2906,2.2982,2.3091,2.3091,2.3091,2.3091,2.3091,2.3091,2.3091,2.3091,2.3091,2.312,2.3555,2.3721,2.375,2.4131,2.4245,2.4157,2.3396,2.3091,2.3091,2.3091,2.3091,2.3091,2.3091,2.3091,2.3091,2.3091,2.3386,2.3721,2.3721,2.3984,2.4245,2.4245,2.4245,2.4264,2.4313,2.4323,2.4365,2.4381,2.4391,2.4391,2.4391,2.4391,2.4391,2.4391,2.4391,2.4362,2.4264,2.4245,2.4245,2.4245,2.4245,2.4245,2.4245,2.4245,2.4245,2.4245,2.4245,2.4088,2.374,2.3672,2.3477,2.3042,2.2865,2.2793,2.2793,2.2793,2.2174,2.098,2.098,2.0355,1.9169,1.9055,1.756,1.2305,1.2305,0.0,0.0,1.2305,1.2305,1.2305,1.2457,1.263,1.2776,1.3046,1.3307,1.342,1.368,1.388,0.0,1.4008,1.4307,1.4936,1.5505,1.6315,1.7577,1.8836,1.9316,1.8602,1.8676,1.9474,2.1181,2.0845,2.1279,2.3003,2.1965,2.1845,2.3047,2.2611,2.2589,2.3091,2.3091,2.3091,2.3091,2.3091,2.3091,2.3091,2.3091,2.3249,2.3516,2.3516,2.363,2.3874,2.4082,2.415,2.417,2.4323,2.4391,2.4352,2.3991,2.3864,2.3864,2.3864,2.3864,2.3864,2.3864,2.3864,2.3864,2.3864,2.3991,2.415,2.415,2.4277,2.4391,2.4391,2.4391,2.4459,2.4736,2.4818,2.4863,2.5103,2.5162,2.5162,2.5162,2.5162,2.5162,2.5162,2.5162,2.5162,2.5162,2.4723,2.4391,2.4391,2.4391,2.4391,2.4391,2.4391,2.4391,2.4391,2.4391,2.4323,2.417,2.415,2.4049,2.3864,2.3864,2.3864,2.3864,2.3864,2.3269,2.2051,2.2051,2.1441,2.0257,2.0257,1.9138,1.2305,0.0,0.0,1.2305,1.2305,1.2325,1.2423,1.263,1.2831,1.2998,1.332,1.3626,1.3727,1.3941,1.4109,1.4109,1.4109,1.4468,1.5538,1.6328,1.7324,1.8729,2.0017,2.0711,2.0517,2.0192,2.0508,2.1712,2.148,2.1823,2.3047,2.2262,2.2195,2.3069,2.3091,2.3091,2.3091,2.3091,2.3149,2.3298,2.3298,2.3357,2.3474,2.3474,2.364,2.3965,2.3965,2.4141,2.4401,2.4551,2.459,2.4609,2.4713,2.4752,2.4752,2.4752,2.4606,2.4391,2.4391,2.4391,2.4391,2.4391,2.4391,2.4391,2.4391,2.4502,2.459,2.459,2.4664,2.4752,2.4752,2.4752,2.484,2.5176,2.5278,2.5342,2.564,2.5693,2.5693,2.5693,2.5693,2.5693,2.5693,2.5693,2.5693,2.5693,2.5171,2.4752,2.4752,2.4752,2.4752,2.4752,2.4752,2.4752,2.4752,2.4752,2.4703,2.4609,2.459,2.4541,2.4401,2.4391,2.4391,2.4391,2.4391,2.3965,2.3107,2.3107,2.2643,2.1788,2.1788,2.1324,0.0,0.0,1.2305,1.2305,1.2305,1.2397,1.2703,1.2796,1.2951,1.3474,1.3586,1.3693,1.4021,1.4082,1.4109,1.4109,1.4109,1.4468,1.5538,1.6328,1.762,1.9879,1.9805,2.0449,0.0,2.1933,2.1756,2.295,2.1965,2.1823,2.3047,2.3079,2.3047,2.3091,2.3091,2.3091,2.3091,2.3091,2.3327,2.3769,2.3769,2.3984,2.4352,2.4352,2.4362,2.4371,2.4371,2.4381,2.443,2.4896,2.5072,2.5112,2.5503,2.5645,2.5645,2.5645,2.5132,2.4391,2.4391,2.4391,2.4391,2.4391,2.4391,2.4391,2.4391,2.4717,2.5072,2.5072,2.5361,2.5645,2.5645,2.5645,2.5654,2.5689,2.5689,2.5698,2.5708,2.5693,2.5693,2.5693,2.5693,2.5693,2.5693,2.5693,2.5693,2.5693,2.5689,2.5645,2.5645,2.5645,2.5645,2.5645,2.5645,2.5645,2.5645,2.5645,2.5484,2.5102,2.5072,2.4863,2.441,2.4391,2.4391,2.4391,2.4391,2.4368,2.4345,2.4345,2.4322,2.4299,2.4299,2.4499,1.2305,0.0,1.2305,1.2305,1.247,1.2663,1.2764,1.3072,1.338,1.356,1.378,1.3968,1.4089,1.4109,1.4109,1.4109,1.4109,1.4468,1.5538,1.7024,1.8528,2.0006,2.1203,0.0,0.0,0.0,0.0,2.3003,2.2721,2.2677,2.3069,2.3091,2.3091,2.3091,2.3396,2.3574,2.3574,2.3825,2.404,2.4209,2.4209,2.4277,2.4391,2.4391,2.458,2.4867,2.4867,2.5019,2.5279,2.5425,2.5493,2.5503,2.565,2.5693,2.5693,2.5693,2.5499,2.5269,2.5269,2.5269,2.5269,2.5269,2.5269,2.5269,2.5269,2.5367,2.5493,2.5493,2.5601,2.5693,2.5693,2.5693,2.5693,2.5693,2.5693,2.5693,2.5693,2.5693,2.5693,2.5693,2.5693,2.5693,2.5693,2.5693,2.5693,2.5693,2.5693,2.5693,2.5693,2.5693,2.5693,2.5693,2.5693,2.5693,2.5693,2.5693,2.565,2.5518,2.5493,2.5425,2.5279,2.5269,2.5269,2.5269,2.5269,2.5269,2.5269,2.5269,2.5269,2.5269,2.5269,2.4861,1.2305,1.2305,1.2325,1.2457,1.2643,1.2844,1.3039,1.3287,1.3473,1.358,1.3774,1.3928,1.3928,1.4337,1.4671,1.4671,1.4977,1.5636,1.6715,1.8196,1.9591,2.0694,2.2169,2.3091,0.0,0.0,0.0,2.3047,2.3091,2.3091,2.3091,2.3269,2.3347,2.3347,2.3789,2.4014,2.4014,2.4277,2.4469,2.4648,2.4814,2.4859,2.4859,2.4859,2.5039,2.5303,2.5303,2.5469,2.5693,2.5693,2.5693,2.5693,2.5693,2.5693,2.5693,2.5693,2.5693,2.5693,2.5693,2.5693,2.5693,2.5693,2.5693,2.5693,2.5693,2.5693,2.5693,2.5693,2.5693,2.5747,2.5903,2.5942,2.5981,2.6128,2.6167,2.6128,2.5981,2.5942,2.5903,2.5713,2.5693,2.5693,2.5693,2.5693,2.5693,2.5693,2.5693,2.5693,2.5693,2.5693,2.5693,2.5693,2.5693,2.5693,2.5693,2.5693,2.5693,2.5693,2.5693,2.5693,2.5693,2.5693,2.5693,2.5693,2.5693,2.5693,2.5693,2.5693,2.5693,2.5693,2.5693,2.5336,1.2305,1.2311,1.2392,1.2717,1.2816,1.2958,1.3453,1.3387,1.3267,1.3527,1.358,1.3586,0.0,0.0,1.5598,1.5613,1.6519,1.7617,1.8758,1.9665,2.0622,0.0,0.0,0.0,0.0,0.0,0.0,2.3091,0.0,2.3091,2.3091,2.3555,2.3789,2.3789,2.4219,2.443,2.443,2.4449,2.4697,2.5131,2.5513,2.5693,2.5693,2.5693,2.5693,2.5693,2.5693,2.5693,2.5693,2.5693,2.5693,2.5693,2.5693,2.5693,2.5693,2.5693,2.5693,2.5693,2.5693,2.5693,2.5693,2.5693,2.5693,2.5693,2.5693,2.5693,2.5718,2.5713,2.5747,2.5845,2.6309,2.6426,2.6523,2.6914,2.6986,2.6904,2.6504,2.6426,2.6299,2.5854,2.5757,2.5737,2.5693,2.5693,2.5693,2.5693,2.5693,2.5693,2.5693,2.5693,2.5693,2.5693,2.5693,2.5693,2.5693,2.5693,2.5693,2.5693,2.5693,2.5693,2.5693,2.5693,2.5693,2.5693,2.5693,2.5693,2.5693,2.5713,2.5747,2.5747,2.5767,2.6001,1.2305,1.2484,1.269,1.2783,1.2939,1.3133,1.3267,1.3247,1.3213,1.3287,1.33,1.3367,0.0,0.0,0.0,1.4476,1.54,0.0,1.7577,1.9162,0.0,2.1751,0.0,2.3091,2.3091,2.3091,0.0,0.0,2.3091,2.3091,2.3091,2.3555,2.3789,2.3789,2.4535,2.4926,2.4926,2.521,2.5435,2.5542,2.5659,2.5693,2.5693,2.5693,2.5693,2.5693,2.5693,2.5693,2.5693,2.5693,2.5693,2.5693,2.5693,2.5693,2.5693,2.5693,2.5693,2.5693,2.5693,2.5693,2.5693,2.5693,2.5693,2.5693,2.5693,2.5693,2.5776,2.6133,2.6221,2.6318,2.6748,2.6855,2.6859,2.6992,2.6986,2.6957,2.6875,2.6855,2.6816,2.6684,2.6435,2.6123,2.5767,2.5693,2.5693,2.5693,2.5693,2.5693,2.5693,2.5693,2.5693,2.5693,2.5693,2.5693,2.5693,2.5693,2.5693,2.5693,2.5693,2.5693,2.5693,2.5693,2.5693,2.5693,2.5693,2.5693,2.5693,2.604,2.6221,2.623,2.6543,2.6723,1.2477,1.2656,1.287,1.3092,1.3173,1.322,1.3353,1.32,1.3026,1.3026,1.3026,0.0,0.0,0.0,0.0,0.0,0.0,0.0,1.861,1.9835,2.0944,0.0,2.244,0.0,2.3081,2.3091,2.3091,0.0,2.3091,2.3201,2.3396,2.3828,2.415,2.4369,2.501,2.5361,2.5361,2.5581,2.5693,2.5693,2.5693,2.5693,2.5693,2.5693,2.5693,2.5693,0.0,2.5693,2.5693,2.5693,2.5693,2.5693,2.5693,2.5693,2.5693,2.5693,2.5693,2.5693,2.5693,2.5693,2.5693,2.5693,2.5693,2.5747,2.5942,2.6001,2.6089,2.6543,2.666,2.6758,2.7187,2.7305,2.7344,2.7529,2.7578,2.7529,2.7344,2.7305,2.7187,2.6816,2.6543,2.625,2.5786,2.5693,2.5693,2.5693,2.5693,2.5693,2.5693,2.5693,2.5693,2.5693,2.5693,2.5693,2.5693,2.5693,2.5693,2.5693,2.5893,2.6001,2.6001,2.6176,2.6274,2.6274,2.6274,2.6274,2.6274,2.6543,2.666,2.667,2.6879,2.7119,1.2703,1.283,1.2952,1.3433,1.338,1.3247,1.346,1.3113,1.2723,1.2723,0.0,1.2831,1.3146,1.4305,1.5631,1.6883,0.0,1.9323,2.0265,2.0848,2.1376,2.1836,2.2256,2.2654,2.3052,2.3091,2.3091,2.3091,2.3171,2.3367,2.3769,2.4189,2.4648,2.516,2.5513,2.5693,2.5693,2.5693,2.5693,2.5693,2.5693,2.5693,2.5693,2.5693,2.5693,2.5693,2.5693,0.0,2.5693,2.5693,2.5693,2.5693,2.5693,2.5693,2.5693,2.5693,2.5693,2.5718,2.5776,2.5796,2.5796,2.5796,2.5796,2.5884,2.6338,2.6475,2.6562,2.6982,2.71,2.7207,2.7663,2.778,2.7868,2.8203,2.8291,2.8193,2.7848,2.778,2.7536,2.6734,2.6578,2.6416,2.5962,2.5884,2.5884,2.5884,2.5884,2.5884,2.5884,2.5835,2.5796,2.5796,2.5845,2.5884,2.5884,2.5884,2.5884,2.5884,2.626,2.6475,2.6475,2.6816,2.6986,2.6986,2.6986,2.6986,2.6986,2.7045,2.71,2.71,2.7158,2.7383,1.2703,1.2952,1.3153,1.324,1.3227,1.316,1.2991,1.2651,0.0,0.0,0.0,1.2552,1.3106,1.4127,1.5139,1.5865,0.0,0.0,0.0,0.0,2.1376,0.0,0.0,0.0,0.0,0.0,0.0,0.0,0.0,2.3711,2.3811,2.4189,2.4762,2.5571,2.5645,2.5693,2.5693,2.5693,2.5693,2.5693,2.5693,2.5693,2.5693,2.5693,2.5693,2.5693,2.5693,0.0,2.5693,2.5693,2.5693,2.5693,2.5693,2.5693,2.5693,2.5693,2.5693,2.5767,2.6152,2.6279,2.6279,2.6279,2.6279,2.6357,2.6777,2.6904,2.6992,2.7457,2.7585,2.7673,2.8103,2.821,2.8203,2.8271,2.8291,2.8271,2.8203,2.821,2.8064,2.7565,2.7467,2.733,2.6875,2.6771,2.6771,2.6771,2.6771,2.6771,2.6771,2.6494,2.6279,2.6279,2.6582,2.6771,2.6771,2.6771,2.6771,2.6771,2.684,2.6904,2.6904,2.6947,2.6986,2.6986,2.6986,2.6986,2.6986,2.7399,2.7585,2.7585,2.791,2.8115,1.2703,1.2898,1.3026,1.3173,1.3113,1.2965,1.2836,0.0,0.0,0.0,0.0,1.2485,1.31,0.0,0.0,0.0,0.0,0.0,0.0,0.0,0.0,0.0,0.0,0.0,0.0,0.0,0.0,0.0,0.0,2.3887,2.4102,2.4723,2.5279,2.5698,2.5693,2.5693,2.5693,2.5693,2.5693,2.5693,2.5693,2.5693,2.5693,2.5693,2.5835,2.605,2.605,0.0,2.6371,2.6371,2.6371,2.6371,2.6371,2.6371,2.6371,2.6371,2.6371,2.6411,2.6641,2.6709,2.6758,2.7008,2.6904,2.6797,2.7226,2.7353,2.7441,2.7897,2.8015,2.8064,2.8242,2.8291,2.8291,2.8291,2.8291,2.8291,2.8291,2.8291,2.8164,2.777,2.7692,2.7555,2.709,2.6986,2.6986,2.6986,2.6986,2.6986,2.6986,2.7041,2.6988,2.6738,2.6869,2.6986,2.6986,2.6986,2.6986,2.6986,2.7226,2.7353,2.7353,2.7568,2.7676,2.7676,2.7676,2.7676,2.7685,2.7891,2.8015,2.8024,2.8203,2.8291,1.2703,1.2803,1.2844,1.3072,1.2965,1.2783,1.2703,1.249,0.0,0.0,1.2351,1.2565,1.3106,0.0,0.0,0.0,0.0,0.0,0.0,0.0,0.0,0.0,0.0,0.0,0.0,0.0,0.0,0.0,0.0,0.0,2.4531,2.5279,2.5693,2.5693,2.5693,2.5693,2.5693,2.5693,2.5693,2.5693,2.5693,2.5757,2.5854,2.5854,2.6089,2.6523,2.6523,0.0,0.0,2.6986,2.6986,2.6986,2.6986,2.6986,2.6986,2.6986,2.6986,2.6996,2.7119,2.7158,2.7226,2.7692,2.751,2.7236,2.7692,2.7829,2.7897,2.8203,2.8291,2.8291,2.8291,2.8291,2.8291,2.8291,2.8291,2.8291,2.8291,2.8291,2.822,2.7888,2.7829,2.7721,2.7344,2.7285,2.7285,2.7285,2.7285,2.7285,2.7285,2.7588,2.7692,2.7324,2.7285,2.7285,2.7285,2.7285,2.7285,2.7285,2.7607,2.7829,2.7829,2.8142,2.8291,2.8291,2.8291,2.8291,2.8291,2.8291,2.8291,2.8291,2.8291,2.8291,1.2703,1.2803,1.281,1.2836,1.2823,1.2717,1.2423,0.0,0.0,1.2305,1.2537,1.2851,1.3146,0.0,0.0,0.0,0.0,1.9254,0.0,0.0,0.0,0.0,0.0,0.0,0.0,0.0,0.0,0.0,0.0,0.0,2.5033,2.5454,2.5693,2.5693,2.5693,2.5693,2.5693,2.5693,2.5693,2.5693,2.5693,2.5923,2.6328,2.6328,2.6562,2.6928,2.6928,0.0,0.0,2.6986,2.6986,2.6986,2.6986,2.6986,2.6986,2.6986,2.6986,2.7045,2.7497,2.7633,2.7702,2.8096,2.7976,2.7712,2.8105,2.8232,2.8242,2.8281,2.8291,2.8291,2.8291,2.8291,2.8291,2.8291,2.8291,2.8291,2.8291,2.8291,2.8281,2.8242,2.8232,2.8223,2.8184,2.8174,2.8174,2.8174,2.8174,2.8174,2.8174,2.8213,2.8223,2.8184,2.8174,2.8174,2.8174,2.8174,2.8174,2.8174,2.8213,2.8232,2.8232,2.8271,2.8291,2.8291,2.8291,2.8291,2.8291,2.8291,2.8291,2.8291,2.8291,2.8291,1.2464,1.2497,1.2497,1.2497,1.2497,1.2464,1.2325,0.0,0.0,1.2305,1.2576,1.2878,1.3153,1.3795,0.0,0.0,0.0,0.0,0.0,0.0,0.0,0.0,0.0,0.0,0.0,0.0,0.0,0.0,0.0,0.0,2.5469,2.562,2.5693,2.5693,2.5693,2.5693,2.5693,2.5693,2.5693,2.5693,2.5981,2.6221,2.6396,2.665,2.7002,2.7428,2.7428,0.0,0.0,2.7783,2.7783,2.7783,2.7783,2.7783,2.7783,2.7783,2.7783,2.7812,2.8015,2.8073,2.8093,2.8232,2.8174,2.8103,2.8242,2.8291,2.8291,2.8291,2.8291,2.8291,2.8291,2.8291,2.8291,2.8291,2.8291,2.8291,2.8291,2.8291,2.8291,2.8291,2.8291,2.8291,2.8291,2.8291,2.8291,2.8291,2.8291,2.8291,2.8291,2.8291,2.8291,2.8291,2.8291,2.8291,2.8291,2.8291,2.8291,2.8291,2.8291,2.8291,2.8291,2.8291,2.8291,2.8291,2.8291,2.8291,2.8291,2.8291,2.8291,2.8291,2.8291,2.8291,1.2305,1.2305,1.2305,1.2305,1.2305,1.2305,0.0,0.0,1.2305,1.2305,1.2631,1.2991,1.3173,1.35,1.4283,1.5913,0.0,1.7807,1.9274,0.0,0.0,0.0,0.0,0.0,0.0,0.0,0.0,0.0,0.0,0.0,2.5693,2.5693,2.5693,2.5693,2.5693,2.5693,2.5693,2.5693,2.5693,2.5718,2.6182,2.6455,2.6592,2.7012,2.7441,2.7878,2.7878,0.0,0.0,2.8291,2.8291,2.8291,2.8291,2.8291,2.8291,2.8291,2.8291,2.8291,2.8291,2.8291,2.8291,2.8291,2.8291,2.8291,2.8291,2.8291,2.8291,2.8291,2.8291,2.8291,2.8291,2.8291,2.8291,2.8291,2.8291,2.8291,2.8291,2.8291,2.8291,2.8291,2.8291,2.8291,2.8291,2.8291,2.8291,2.8291,2.8291,2.8291,2.8291,2.8291,2.8291,2.8291,2.8291,2.8291,2.8291,2.8291,2.8291,2.8291,2.8291,2.8291,2.8291,2.8291,2.8291,2.8291,2.8291,2.8291,2.8291,2.8291,2.8359,2.8476,2.8476,2.8545,1.2305,1.2305,1.2305,1.2305,1.2305,1.2305,0.0,0.0,1.2305,1.2305,1.2786,1.3206,1.3193,1.3687,1.4796,1.6935,1.7293,0.0,2.0265,0.0,0.0,0.0,0.0,0.0,0.0,0.0,0.0,0.0,0.0,0.0,2.5693,2.5693,2.5693,2.5693,2.5693,2.5693,2.5693,2.5693,2.5693,2.5718,2.6182,2.6602,2.7021,2.7487,2.7917,0.0,0.0,0.0,0.0,2.8291,2.8291,2.8291,2.8291,2.8291,2.8291,2.8291,2.8291,2.8291,2.8291,2.8291,2.8291,2.8291,2.8291,2.8291,2.8291,2.8291,2.8291,2.8291,2.8291,2.8291,2.8291,2.8291,2.8291,2.8291,2.8291,2.8291,2.8291,2.8291,2.8291,2.8291,2.8291,2.8291,2.8291,2.8291,2.8291,2.8291,2.8291,2.8291,2.8291,2.8291,2.8291,2.8291,2.8291,2.8291,2.8291,2.8291,2.8291,2.8291,2.8291,2.8291,2.8291,2.8291,2.8291,2.8291,2.8291,2.8291,2.8291,2.8291,2.8506,2.8889,2.8889,2.9141,1.2305,1.2305,1.2305,1.2305,1.2305,1.2305,1.2305,0.0,1.2305,1.2305,1.2786,1.3193,1.3193,1.3694,1.4552,1.5972,1.6825,1.7819,0.0,0.0,0.0,0.0,0.0,0.0,0.0,0.0,0.0,0.0,0.0,0.0,2.5693,2.5693,2.5693,2.5693,2.5693,2.5693,2.5693,2.5693,2.5864,2.6182,2.6611,2.7041,2.7497,2.7927,2.8164,0.0,0.0,0.0,0.0,2.8291,2.8291,2.8291,2.8291,2.8291,2.8291,2.8291,2.8291,2.8291,2.8291,2.8291,2.8291,2.8291,2.8291,2.8291,2.8291,2.8291,2.8291,2.8291,2.8291,2.8291,2.8291,2.8291,2.8291,2.8291,2.8291,2.8291,2.8291,2.8291,2.8291,2.8291,2.8291,2.8291,2.8291,2.8291,2.8291,2.8291,2.8291,2.8291,2.8291,2.8291,2.8291,2.8291,2.8291,2.8291,2.8291,2.8291,2.8291,2.8291,2.8291,2.8291,2.8291,2.8291,2.8291,2.8291,2.8291,2.8437,2.8721,2.8721,2.8945,2.9393,2.9393,2.9618,0.0,1.2305,1.2305,1.2305,1.2305,0.0,0.0,0.0,1.2305,1.2305,1.2786,1.3193,1.3193,1.3694,1.4573,1.6047,1.6866,1.7839,0.0,0.0,0.0,0.0,0.0,0.0,0.0,0.0,0.0,0.0,0.0,0.0,2.5693,2.5693,2.5693,2.5693,2.5693,2.5693,2.5693,2.5693,2.5932,2.6396,2.6816,2.7246,2.7712,2.8122,2.8291,0.0,0.0,0.0,0.0,2.8291,2.8291,2.8291,2.8291,2.8291,2.8291,2.8291,2.8291,2.8291,2.8291,2.8291,2.8291,2.8291,2.8291,2.8291,2.8291,2.8291,2.8291,2.8291,2.8291,2.8291,2.8291,2.8291,2.8291,2.8291,2.8291,2.8291,2.8291,2.8291,2.8291,2.8291,2.8291,2.8291,2.8291,2.8291,2.8291,2.8291,2.8291,2.8291,2.8291,2.8291,2.8291,2.8291,2.8291,2.8291,2.8291,2.8291,2.8291,2.8291,2.8291,2.8291,2.8291,2.8291,2.8291,2.8291,2.8447,2.8662,2.8889,2.922,2.9541,2.9843,3.0018,3.0205,0.0,1.2305,1.2305,1.2305,1.2305,1.2305,0.0,0.0,0.0,0.0,1.2786,1.3193,1.3193,1.3694,1.4803,1.6948,1.7302,0.0,0.0,0.0,0.0,0.0,0.0,0.0,0.0,0.0,0.0,0.0,0.0,0.0,2.5693,2.5693,2.5693,2.5693,2.5693,2.5693,2.5693,2.5693,2.5952,2.6435,2.6826,2.7256,2.7751,2.8142,2.8291,0.0,0.0,0.0,0.0,2.8291,2.8291,2.8291,2.8291,2.8291,2.8291,2.8291,2.8291,2.8291,2.8291,2.8291,2.8291,2.8291,2.8291,2.8291,2.8291,2.8291,2.8291,2.8291,2.8291,2.8291,2.8291,2.8291,2.8291,2.8291,2.8291,2.8291,2.8291,2.8291,2.8291,2.8291,2.8291,2.8291,2.8291,2.8291,2.8291,2.8291,2.8291,2.8291,2.8291,2.8291,2.8291,2.8291,2.8291,2.8291,2.8291,2.8291,2.8291,2.8291,2.8291,2.8291,2.8291,2.8291,2.8301,2.834,2.8779,2.8986,2.8986,2.9844,3.0244,3.0254,3.0693,3.0889,1.2305,0.0,1.2305,1.2305,1.2305,1.2305,0.0,0.0,0.0,0.0,0.0,1.3193,1.3193,1.3694,1.4803,1.6948,1.7302,1.806,0.0,0.0,0.0,0.0,0.0,0.0,0.0,0.0,0.0,0.0,0.0,2.5693,2.5693,2.5693,2.5693,2.5693,2.5693,2.5693,2.5693,2.5693,2.6089,2.6865,2.6947,2.7412,2.8144,2.8252,2.8291,0.0,0.0,0.0,2.8291,2.8291,2.8291,2.8291,2.8291,2.8291,2.8291,2.8291,2.8291,2.8291,2.8291,2.8291,2.8291,2.8291,2.8291,2.8291,2.8291,2.8291,2.8291,2.8291,2.8291,2.8291,2.8291,2.8291,2.8291,2.8291,2.8291,2.8291,2.8291,2.8291,2.8291,2.8291,2.8291,2.8291,2.8291,2.8291,2.8291,2.8291,2.8291,2.8291,2.8291,2.8291,2.8291,2.8291,2.8291,2.8291,2.8291,2.8291,2.8291,2.8291,2.8291,2.8291,2.8291,2.8291,2.8447,2.8733,2.9512,2.9893,2.9902,3.0459,3.0732,3.0732,3.084,3.0889,1.2265,1.2305,1.2305,1.2305,1.2305,1.2305,1.2305,0.0,0.0,0.0,0.0,0.0,1.3193,0.0,0.0,0.0,1.7415,0.0,0.0,0.0,0.0,0.0,0.0,0.0,0.0,0.0,0.0,0.0,0.0,2.5693,2.5693,2.5693,2.5693,2.5693,2.5693,2.5693,2.5693,2.5693,2.6147,2.6986,2.6986,2.7461,2.8291,2.8291,2.8291,0.0,0.0,0.0,2.8291,2.8291,2.8291,2.8291,2.8291,2.8291,2.8291,2.8291,2.8291,2.8291,2.8291,2.8291,2.8291,2.8291,2.8291,2.8291,2.8291,2.8291,2.8291,2.8291,2.8291,2.8291,2.8291,2.8291,2.8291,2.8291,2.8291,2.8291,2.8291,2.8291,2.8291,2.8291,2.8291,2.8291,2.8291,2.8291,2.8291,2.8291,2.8291,2.8291,2.8291,2.8291,2.8291,2.8291,2.8291,2.8291,2.8291,2.8291,2.8291,2.8291,2.8291,2.8291,2.8291,2.8476,2.8877,2.9492,2.9961,3.0303,3.0518,3.0771,3.0889,3.0889,3.0889,3.0889,1.2225,1.2305,1.2305,1.2305,1.2305,1.2305,0.0,0.0,0.0,0.0,0.0,0.0,0.0,0.0,0.0,0.0,0.0,0.0,0.0,0.0,0.0,0.0,0.0,0.0,0.0,0.0,0.0,0.0,0.0,2.5693,2.5693,2.5693,2.5693,2.5693,2.5693,2.5693,2.5693,2.5693,2.6108,2.6914,2.6957,2.7432,2.8203,2.8262,2.8291,2.8291,0.0,0.0,2.8291,2.8291,2.8252,2.822,2.822,2.8154,2.8096,2.8096,2.8144,2.8203,2.8271,2.8291,2.8291,2.8291,2.8291,2.8291,2.8291,2.8291,2.8291,2.8291,2.8291,2.8291,2.8291,2.8291,2.8291,2.8291,2.8291,2.8291,2.8291,2.8291,2.8291,2.8291,2.8291,2.8291,2.8291,2.8291,2.8291,2.8291,2.8291,2.8291,2.8291,2.8291,2.8291,2.8291,2.835,2.8389,2.8389,2.8447,2.8486,2.8486,2.8428,2.8418,2.8513,2.8887,2.9453,3.0185,3.0264,3.0498,3.0889,3.0889,3.0889,3.0889,3.0889,3.0889,1.2225,1.2305,1.2305,1.2305,1.2305,1.2305,0.0,0.0,0.0,0.0,0.0,0.0,0.0,0.0,0.0,0.0,0.0,0.0,0.0,0.0,0.0,0.0,0.0,0.0,0.0,0.0,0.0,0.0,0.0,2.5693,2.5693,2.5693,2.5693,2.5693,2.5693,2.5693,2.5693,2.5693,2.5962,2.6494,2.6846,2.7275,2.78,2.8135,2.8291,2.8291,0.0,2.8291,2.8291,2.8291,2.8112,2.779,2.779,2.7539,2.7217,2.7217,2.7441,2.7839,2.8164,2.8291,2.8291,2.8291,2.8291,2.8291,2.8291,2.8291,2.8291,2.8291,2.8291,2.8291,2.8291,2.8291,2.8291,2.8291,2.8291,2.8291,2.8291,2.8291,2.8291,2.8291,2.8291,2.8291,2.8291,2.8291,2.8291,2.8291,2.8291,2.8291,2.8291,2.8291,2.8291,2.8291,2.8613,2.8818,2.8818,2.916,2.9403,2.9403,2.9033,2.8984,2.9383,2.9775,3.0059,3.0195,3.0586,3.082,3.0889,3.0889,3.0889,3.0889,3.0889,3.0889,1.2178,1.2305,1.2305,1.2305,1.2305,0.0,0.0,0.0,0.0,0.0,0.0,0.0,0.0,0.0,0.0,0.0,0.0,0.0,0.0,0.0,0.0,0.0,0.0,0.0,0.0,0.0,0.0,0.0,0.0,0.0,2.5693,2.5693,2.5693,2.5693,2.5693,2.5693,2.5693,2.5693,2.5932,2.6387,2.6582,2.7047,2.7702,2.7888,2.8103,2.8291,0.0,2.8191,2.7985,2.7985,2.7731,2.7314,2.7314,2.7197,2.7015,2.7275,2.7516,2.7751,2.8171,2.8291,2.8291,2.8291,2.8291,2.8291,2.8291,2.8291,2.8291,2.8291,2.8291,2.8291,2.8291,2.8291,2.8291,2.8291,2.8291,2.8291,2.8291,2.8291,2.8291,2.8291,2.8291,2.8291,2.8291,2.8291,2.8369,2.8594,2.8633,2.8721,2.8982,2.9012,2.9012,2.9012,2.9188,2.9268,2.9268,2.9481,2.9598,2.9598,2.9412,2.9463,2.9921,3.0098,3.0312,3.0566,3.0781,3.0889,3.0889,3.0889,3.0889,3.0889,3.0889,3.0889,1.2144,1.2305,1.2305,1.2305,0.0,0.0,0.0,0.0,0.0,0.0,0.0,0.0,0.0,0.0,0.0,0.0,0.0,0.0,0.0,0.0,0.0,0.0,0.0,0.0,2.375,2.4082,0.0,0.0,0.0,0.0,2.5684,2.5693,2.5693,2.5693,2.5693,2.5693,2.5693,2.5693,2.5884,2.624,2.6338,2.6754,2.7399,2.7497,2.7685,2.7988,2.7988,2.7812,2.7536,2.7536,2.7256,2.6865,2.6865,2.6781,2.6752,2.7314,2.7536,2.7614,2.8105,2.8291,2.8291,2.8291,2.8291,2.8291,2.8291,2.8291,2.8291,2.8291,2.8291,2.8291,2.8291,2.8291,2.8291,2.8291,2.8291,2.8291,2.8291,2.8291,2.8291,2.8291,2.8291,2.832,2.8418,2.8437,2.8584,2.9014,2.9072,2.9189,2.9559,2.9598,2.9598,2.9598,2.9686,2.9784,2.9901,2.9911,2.9911,2.9911,2.9803,2.994,3.0342,3.0361,3.0527,3.0889,3.0889,3.0889,3.0889,3.0889,3.0889,3.0889,3.0889,3.0889,1.2144,1.2305,1.2305,0.0,0.0,0.0,0.0,0.0,0.0,0.0,0.0,0.0,0.0,0.0,0.0,0.0,0.0,0.0,0.0,0.0,0.0,0.0,0.0,2.3288,2.375,2.3818,0.0,0.0,0.0,0.0,2.5689,2.5693,2.5693,2.5693,2.5693,2.5693,2.5693,2.5693,2.5728,2.5767,2.6191,2.6426,2.6519,2.6885,2.708,2.7084,2.7084,2.709,2.706,2.706,2.6816,2.6435,2.6435,2.6182,2.5903,2.6732,2.706,2.7178,2.8008,2.8291,2.8291,2.8291,2.8291,2.8291,2.8291,2.8291,2.8291,2.8291,2.8291,2.8291,2.8291,2.8291,2.8291,2.8291,2.8291,2.8291,2.8291,2.8291,2.8291,2.8291,2.8291,2.8418,2.8781,2.885,2.9023,2.9481,2.9549,2.9559,2.9598,2.9598,2.9598,2.9598,2.9912,3.0322,3.0762,3.082,3.082,3.082,3.0391,3.0361,3.082,3.084,3.0859,3.0889,3.0889,3.0889,3.0889,3.0889,3.0889,3.0889,3.0889,3.0889,1.2191,1.2305,0.0,0.0,0.0,0.0,0.0,0.0,0.0,0.0,0.0,0.0,0.0,0.0,0.0,0.0,0.0,0.0,0.0,0.0,0.0,0.0,0.0,2.3159,2.3347,2.3633,2.3948,0.0,0.0,0.0,2.5312,2.5562,2.5693,2.5693,2.5693,2.5693,2.5693,2.5693,2.5693,2.5693,2.5884,2.6133,2.6421,2.6553,2.6768,2.6986,2.6986,2.6865,2.6631,2.6631,2.6377,2.5962,2.5962,2.5864,2.5815,2.6674,2.6986,2.7113,2.7998,2.8291,2.8291,2.8291,2.8291,2.8291,2.8291,2.8291,2.8291,2.8291,2.8291,2.8291,2.8291,2.8291,2.8291,2.8291,2.8291,2.8291,2.8291,2.8291,2.8369,2.8633,2.8682,2.8818,2.9248,2.9354,2.9463,2.9921,2.9961,3.0087,3.0351,3.0419,3.0419,3.0419,3.0537,3.0703,3.0869,3.0889,3.0889,3.0889,3.0723,3.0703,3.0889,3.0889,3.0889,3.0889,3.0889,3.0889,3.0889,3.0889,3.0889,3.0889,3.0889,3.0889,1.2225,1.2305,0.0,0.0,0.0,0.0,0.0,0.0,0.0,0.0,0.0,0.0,0.0,0.0,0.0,0.0,0.0,0.0,0.0,2.2363,2.2791,2.3062,2.3091,2.3091,2.3091,2.3386,2.3643,0.0,0.0,0.0,0.0,2.5361,2.5571,2.5708,2.5693,2.5693,2.5693,2.5693,2.5693,2.5693,2.5693,2.5864,2.6182,2.6182,2.6338,2.6586,2.6586,2.642,2.6182,2.6182,2.5981,2.5693,2.5693,2.5693,2.5815,2.6674,2.6986,2.7113,2.7998,2.8291,2.8291,2.8291,2.8291,2.8291,2.8291,2.8291,2.8291,2.8291,2.8291,2.8291,2.8291,2.8291,2.8291,2.8291,2.8291,2.833,2.8467,2.8496,2.8613,2.9043,2.9121,2.9258,2.9725,2.9794,2.994,3.0351,3.042,3.0537,3.085,3.0889,3.0889,3.0889,3.0889,3.0889,3.0889,3.0889,3.0889,3.0889,3.0889,3.0889,3.0889,3.0889,3.0889,3.0889,3.0889,3.0889,3.0889,3.0889,3.0889,3.0889,3.0889,3.0889,1.2225,1.2305,0.0,0.0,0.0,0.0,0.0,0.0,0.0,0.0,0.0,0.0,0.0,0.0,0.0,0.0,0.0,0.0,2.1905,2.2586,2.3091,2.3091,2.3091,2.3091,2.3091,2.3091,2.3298,0.0,0.0,0.0,0.0,2.5106,2.5273,2.5689,2.5693,2.5693,2.5693,2.5693,2.5693,2.5693,2.5693,2.5693,2.5693,2.5693,2.5693,2.5693,2.5693,2.5693,2.5693,2.5693,2.5693,2.5693,2.5693,2.5693,2.5815,2.6674,2.6986,2.7113,2.7998,2.8291,2.8291,2.8291,2.8291,2.8291,2.8291,2.8291,2.8291,2.8291,2.8291,2.8291,2.8291,2.8291,2.8291,2.8291,2.8301,2.8408,2.8801,2.8898,2.9053,2.952,2.9608,2.9735,3.0127,3.0205,3.0361,3.082,3.0889,3.0889,3.0889,3.0889,3.0889,3.0889,3.0889,3.0889,3.0889,3.0889,3.0889,3.0889,3.0889,3.0889,3.0889,3.0889,3.0889,3.0889,3.0889,3.0889,3.0889,3.0889,3.0889,3.0889,3.0889,3.0889,1.2278,1.2305,0.0,0.0,0.0,0.0,0.0,0.0,0.0,0.0,0.0,0.0,0.0,0.0,0.0,0.0,0.0,0.0,2.1905,2.2586,2.3091,2.3091,2.3091,2.3091,2.3091,2.3091,2.3171,0.0,0.0,0.0,0.0,2.4769,2.5151,2.5264,2.5542,2.5693,2.5693,2.5693,2.5693,2.5693,2.5693,2.5693,2.5693,2.5693,2.5693,2.5693,2.5693,2.5693,2.5693,2.5693,2.5693,2.5693,2.5693,2.5693,2.5815,2.6674,2.6986,2.7113,2.7998,2.8291,2.8291,2.8291,2.8291,2.8291,2.8291,2.8291,2.8291,2.8291,2.8291,2.8291,2.8291,2.8291,2.8291,2.8291,2.8525,2.8733,2.8859,2.916,2.953,2.9932,3.001,3.0156,3.0605,3.0684,3.0732,3.0869,3.0889,3.0889,3.0889,3.0889,3.0889,3.0889,3.0889,3.0889,3.0889,3.0889,3.0889,3.0889,3.0889,3.0889,3.0889,3.0889,3.0889,3.0889,3.0889,3.0889,3.0889,3.0889,3.0889,3.0889,3.0889,3.0889,1.2305,0.0,0.0,0.0,0.0,0.0,0.0,0.0,0.0,0.0,0.0,0.0,0.0,0.0,0.0,0.0,0.0,0.0,0.0,2.2586,2.3091,2.3091,2.3091,2.3091,2.3091,2.3091,2.3091,0.0,0.0,0.0,0.0,2.43,2.474,2.5082,2.5332,2.5532,2.5693,2.5693,2.5693,2.5693,2.5693,2.5693,2.5693,2.5693,2.5693,2.5693,2.5693,2.5693,2.5693,2.5693,2.5693,2.5693,2.5693,2.5693,2.5815,2.6674,2.6986,2.7113,2.7998,2.8291,2.8291,2.8291,2.8291,2.8291,2.8291,2.8291,2.8291,2.8291,2.8291,2.8291,2.8291,2.8291,2.833,2.8506,2.8713,2.8986,2.9355,2.9629,2.9979,3.0391,3.0478,3.0566,3.084,3.0889,3.0889,3.0889,3.0889,3.0889,3.0889,3.0889,3.0889,3.0889,3.0889,3.0889,3.0889,3.0889,3.0889,3.0889,3.0889,3.0889,3.0889,3.0889,3.0889,3.0889,3.0889,3.0889,3.0889,3.0889,3.0889,3.0889,3.0889,3.0889,0.0,0.0,0.0,0.0,0.0,0.0,0.0,0.0,0.0,0.0,0.0,0.0,0.0,0.0,0.0,0.0,0.0,0.0,0.0,2.2586,2.3091,2.3091,2.3091,2.3091,2.3091,2.3091,2.3091,0.0,0.0,0.0,2.3711,2.3792,2.4163,2.4955,2.5053,2.5287,2.565,2.5689,2.5693,2.5693,2.5693,2.5693,2.5693,2.5693,2.5693,2.5693,2.5693,2.5693,2.5693,2.5693,2.5693,2.5693,2.5693,2.5693,2.5815,2.6674,2.6986,2.7113,2.7998,2.8291,2.8291,2.8291,2.8291,2.8291,2.8291,2.8291,2.8291,2.8291,2.8291,2.8291,2.8291,2.8291,2.8408,2.8867,2.8947,2.9199,3.0019,3.0234,3.0391,3.081,3.0889,3.0889,3.0889,3.0889,3.0889,3.0889,3.0889,3.0889,3.0889,3.0889,3.0889,3.0889,3.0889,3.0889,3.0889,3.0889,3.0889,3.0889,3.0889,3.0889,3.0889,3.0889,3.0889,3.0889,3.0889,3.0889,3.0889,3.0889,3.0889,3.0889,3.0889,3.0889,0.0,0.0,0.0,0.0,0.0,0.0,0.0,0.0,0.0,0.0,0.0,0.0,0.0,0.0,0.0,0.0,0.0,2.1905,2.1905,2.2586,2.3091,2.3091,2.3091,2.3091,2.3091,2.3091,2.3091,2.3091,0.0,0.0,2.3249,2.3603,2.3899,2.4075,2.474,2.5141,2.5239,2.5532,2.5693,0.0,2.5693,2.5693,2.5693,2.5693,2.5693,2.5693,2.5693,2.5693,2.5693,2.5693,2.5693,2.5693,2.5693,2.5693,2.5815,2.6674,2.6986,2.7113,2.7998,2.8291,2.8291,2.8291,2.8291,2.8291,2.8291,2.8291,2.8291,2.8291,2.8291,2.8291,2.8291,2.8291,2.8486,2.9276,2.9461,2.9598,3.0088,3.0488,3.0771,3.0869,3.0889,3.0889,3.0889,3.0889,3.0889,3.0889,3.0889,3.0889,3.0889,3.0889,3.0889,3.0889,3.0889,3.0889,3.0889,3.0889,3.0889,3.0889,3.0889,3.0889,3.0889,3.0889,3.0889,3.0889,3.0889,3.0889,3.0889,3.0889,3.0889,3.0889,3.0889,3.0889,0.0,0.0,0.0,0.0,0.0,0.0,0.0,0.0,0.0,0.0,0.0,0.0,0.0,0.0,0.0,2.0605,2.1329,2.1905,2.1905,2.2586,2.3091,2.3091,2.3091,2.3091,2.3091,2.3091,2.3091,2.3091,0.0,2.3091,2.3091,2.3327,2.3574,2.3779,2.4251,2.4681,2.5106,2.5303,2.5503,2.5693,2.5693,2.5693,2.5693,2.5693,2.5693,2.5693,2.5693,2.5693,2.5693,2.5693,2.5693,2.5693,2.5693,2.5693,2.5815,2.6674,2.6986,2.7113,2.7998,2.8291,2.8291,2.8291,2.8291,2.8291,2.8291,2.8291,2.8291,2.8291,2.8291,2.8291,2.8291,2.8437,2.876,2.9442,2.9598,2.9774,3.0391,3.0723,3.0889,3.0889,3.0889,3.0889,3.0889,3.0889,3.0889,3.0889,3.0889,3.0889,3.0889,3.0889,3.0889,3.0889,3.0889,3.0889,3.0889,3.0889,3.0889,3.0889,3.0889,3.0889,3.0889,3.0889,3.0889,3.0889,3.0889,3.0889,3.0889,3.0889,3.0889,3.0889,3.0889,3.0889,0.0,0.0,0.0,0.0,0.0,0.0,0.0,0.0,0.0,0.0,0.0,0.0,0.0,0.0,2.0605,2.0605,2.127,2.1817,2.1896,2.2527,2.3013,2.3081,2.3091,2.3091,2.3091,2.3091,2.3091,2.3091,0.0,2.3091,2.3091,2.3091,2.3279,2.3662,2.375,2.4154,2.4867,2.5014,2.5278,2.5601,2.5679,2.5693,2.5693,2.5693,2.5693,2.5693,2.5693,2.5693,2.5693,2.5693,2.5693,2.5693,2.5693,2.5693,2.5815,2.6674,2.6986,2.7113,2.7998,2.8291,2.8291,2.8291,2.8291,2.8291,2.8291,2.8291,2.8291,2.8291,2.8468,2.8601,2.8371,2.8792,2.9324,2.9546,2.9657,2.9931,3.0742,3.0889,3.0889,3.0889,3.0889,3.0889,3.0889,3.0889,3.0889,3.0889,3.0889,3.0889,3.0889,3.0889,3.0889,3.0889,3.0889,3.0889,3.0889,3.0889,3.0889,3.0889,3.0889,3.0889,3.0889,3.0889,3.0889,3.0889,3.0889,3.0889,3.0889,3.0889,3.0889,3.0889,3.0889,3.0889,0.0,0.0,0.0,0.0,0.0,0.0,0.0,0.0,0.0,0.0,0.0,0.0,0.0,2.0605,2.0605,2.0605,2.0996,2.1435,2.1836,2.2295,2.2713,2.3052,2.3091,2.3091,2.3091,2.3091,2.3091,2.3091,2.3091,2.3091,2.3091,2.3091,2.312,2.3201,2.3594,2.387,2.3978,2.4721,2.5121,2.519,2.5532,2.5693,2.5693,2.5693,2.5693,2.5693,2.5693,2.5693,2.5693,2.5693,2.5693,2.5693,2.5693,2.5693,2.5815,2.6674,2.6986,2.7113,2.7998,2.8291,2.8291,2.8291,2.8291,2.8291,2.8291,2.8291,2.8291,2.8291,2.9128,2.9765,2.8601,2.9514,3.0531,2.9786,2.9882,3.0254,3.0781,3.0889,3.0889,3.0889,3.0889,3.0889,3.0889,3.0889,3.0889,3.0889,3.0889,3.0889,3.0889,3.0889,3.0889,3.0889,3.0889,3.0889,3.0889,3.0889,3.0889,3.0889,3.0889,3.0889,3.0889,3.0889,3.0889,3.0889,3.0889,3.0889,3.0889,3.0889,3.0889,3.0889,3.0889,3.0889,0.0,0.0,0.0,0.0,0.0,0.0,0.0,0.0,0.0,0.0,0.0,0.0,2.0605,2.0605,2.0605,2.0605,2.0947,2.1279,2.1474,2.1894,2.2314,2.2723,2.2762,2.2859,2.3071,2.3091,2.3091,2.3091,2.3091,2.3091,2.3091,2.3091,2.3091,2.3091,2.3298,2.3545,2.3789,2.4183,2.4613,2.5092,2.5503,2.5693,2.5693,2.5693,2.5693,2.5693,2.5693,2.5693,2.5693,2.5693,2.5693,2.5693,2.5693,2.5864,2.6172,2.6787,2.7168,2.7471,2.8076,2.8291,2.8291,2.8291,2.8291,2.8291,2.8291,2.8291,2.8468,2.9207,2.9303,2.9234,2.9381,2.9819,3.0106,2.9716,3.0116,3.0644,3.085,3.0889,3.0889,3.0889,3.0889,3.0889,3.0889,3.0889,3.0889,3.0889,3.0889,3.0889,3.0889,3.0889,3.0889,3.0889,3.0889,3.0889,3.0889,3.0889,3.0889,3.0889,3.0889,3.0889,3.0889,3.0889,3.0889,3.0889,3.0889,3.0889,3.0889,3.0889,3.0889,3.0889,3.0889,3.0889,0.0,0.0,0.0,0.0,0.0,0.0,0.0,0.0,0.0,0.0,0.0,2.0605,2.0605,2.0605,2.0605,2.0605,2.084,2.1084,2.1201,2.1493,2.1875,2.2305,2.2451,2.2615,2.2927,2.3033,2.3091,2.3091,2.3091,2.3091,2.3091,2.3091,2.3091,2.3091,2.3091,2.3269,2.3623,2.3838,2.4349,2.5092,2.5503,2.5693,2.5693,2.5693,2.5693,2.5693,2.5693,2.5693,2.5693,2.5693,2.5693,2.5703,2.5835,2.6079,2.6455,2.6982,2.7393,2.7751,2.8171,2.8291,2.8291,2.8291,2.8291,2.8291,2.8291,2.8548,2.9032,3.0016,2.9833,2.946,3.0146,3.0193,3.0024,2.9672,3.0273,3.0889,3.0889,3.0889,3.0889,3.0889,3.0889,3.0889,3.0889,3.0889,3.0889,3.0889,3.0889,3.0889,3.0889,3.0889,3.0889,3.0889,3.0889,3.0889,3.0889,3.0889,3.0889,3.0889,3.0889,3.0889,3.0889,3.0889,3.0889,3.0889,3.0889,3.0889,3.0889,3.0889,3.0889,3.0889,3.0889,3.0889,0.0,0.0,0.0,0.0,0.0,0.0,0.0,0.0,0.0,0.0,2.0605,2.0605,2.0605,2.0605,2.0605,2.0605,2.0625,2.0772,2.1152,2.121,2.1405,2.1886,2.2266,2.2498,2.2518,2.2888,2.3091,2.3091,2.3091,2.3091,2.3091,2.3091,2.3091,2.3091,2.3091,2.311,2.313,2.3952,2.4609,2.5092,2.5503,2.5693,2.5693,2.5693,2.5693,2.5693,2.5693,2.5693,2.5693,2.5693,2.5693,2.5732,2.6191,2.6367,2.6509,2.735,2.7673,2.7751,2.8171,2.8291,2.8291,2.8291,2.8291,2.8291,2.8291,2.9181,3.0214,3.0292,3.1173,3.1836,3.0618,3.0893,3.1185,2.9885,3.0273,3.0889,3.0889,3.0889,3.0889,3.0889,3.0889,3.0889,3.0889,3.0889,3.0889,3.0889,3.0889,3.0889,3.0889,3.0889,3.0889,3.0889,3.0889,3.0889,3.0889,3.0889,3.0889,3.0889,3.0889,3.0889,3.0889,3.0889,3.0889,3.0889,3.0889,3.0889,3.0889,3.0889,3.0889,3.0889,3.0889,3.0889,0.0,0.0,0.0,0.0,0.0,0.0,0.0,0.0,0.0,2.0605,2.0605,2.0605,2.0605,2.0605,2.0605,2.0605,2.0605,2.0644,2.0781,2.0801,2.0967,2.1396,2.1581,2.1893,2.244,2.2625,2.283,2.3071,0.0,2.3091,2.3091,2.3091,2.3091,2.3091,2.3091,2.3091,2.3091,2.3721,2.4228,2.4658,2.5098,2.5459,2.5693,2.5693,2.5693,2.5693,2.5693,2.5693,2.5693,2.5693,2.5693,2.5757,2.6221,2.6553,2.6865,2.7477,2.7858,2.8112,2.8242,2.8291,2.8291,2.8291,2.8873,2.9581,2.9581,3.0525,3.176,3.268,3.2014,3.1172,3.1862,3.1166,3.033,3.0416,3.0664,3.0889,3.0889,3.0889,3.0889,3.0889,3.0889,3.0889,3.0889,3.0889,3.0889,3.0889,3.0889,3.0889,3.0889,3.0889,3.0889,3.0889,3.0889,3.0889,3.0889,3.0889,3.0889,3.0889,3.0889,3.0889,3.0889,3.0889,3.0889,3.0889,3.0889,3.0889,3.0889,3.0889,3.0889,3.0889,3.0889,3.0889,0.0,0.0,0.0,0.0,0.0,0.0,0.0,0.0,2.0605,2.0605,2.0605,2.0605,2.0605,2.0605,2.0605,2.0605,2.0605,2.0605,2.0605,2.0605,2.0693,2.0977,2.1123,2.1435,2.201,2.2217,2.248,2.2879,0.0,0.0,2.3091,2.3091,2.3091,2.3091,2.3091,2.3091,2.3091,2.3574,2.3935,2.4209,2.4818,2.5248,2.5493,2.565,2.5693,2.5693,2.5693,2.5693,2.5693,2.5693,2.5693,2.5767,2.6377,2.6768,2.7054,2.7692,2.8083,2.8291,2.8291,2.8291,2.8371,2.883,2.9555,3.0395,3.0824,3.1927,3.3204,3.4129,3.273,3.141,3.3254,3.2137,3.073,3.1453,3.1247,3.0889,3.0889,3.0889,3.0889,3.0889,3.0889,3.0889,3.0889,3.0889,3.0889,3.0889,3.0889,3.0889,3.0889,3.0889,3.0889,3.0889,3.0889,3.0889,3.0889,3.0889,3.0889,3.0889,3.0889,3.0889,3.0889,3.0889,3.0889,3.0889,3.0889,3.0889,3.0889,3.0889,3.0889,3.0889,3.0889,3.0889,0.0,0.0,0.0,0.0,0.0,0.0,2.0371,0.0,2.0605,2.0605,2.0605,2.0605,2.0605,2.0605,2.0605,2.0605,2.0605,2.0605,2.0605,2.0605,2.0605,2.0605,2.0947,2.1201,2.119,2.1621,2.2041,2.244,2.2488,2.2664,2.3052,2.3091,2.3091,2.3091,2.3091,2.3091,2.3091,2.3555,2.3779,2.3799,2.4672,2.5082,2.5112,2.5503,2.5693,2.5693,2.5693,2.5693,2.5693,2.5693,2.5718,2.5815,2.6664,2.7021,2.7113,2.7978,2.8291,2.8291,2.8291,2.8318,2.8575,2.9896,3.0343,3.0669,3.1977,3.3329,3.4459,3.4459,3.3476,3.283,3.4691,3.3821,3.2539,3.299,3.1959,3.0889,3.0889,3.0889,3.0889,3.0889,3.0889,3.0889,3.0889,3.0889,3.0889,3.0889,3.0889,3.0889,3.0889,3.0889,3.0889,3.0889,3.0889,3.0889,3.0889,3.0889,3.0889,3.0889,3.0889,3.0889,3.0889,3.0889,3.0889,3.0889,3.0889,3.0889,3.0889,3.0889,3.0889,3.0889,3.0889,3.0889,1.7364,0.0,0.0,0.0,0.0,0.0,1.9971,2.0361,2.0605,2.0605,2.0605,2.0605,2.0605,2.0605,2.0605,2.0605,2.0605,2.0605,2.0605,2.0605,2.0605,2.0605,2.0693,2.0879,2.1161,2.1327,2.1571,0.0,2.2344,2.2547,2.2654,2.2925,2.3091,2.3091,2.3091,2.3091,2.3091,2.324,2.3454,2.3821,2.4336,2.4756,2.5112,2.5503,2.5693,2.5693,2.5693,2.5693,2.5693,2.5693,2.5893,2.626,2.6807,2.7207,2.7575,2.8096,2.8291,2.8291,2.8291,2.8926,2.9807,3.0188,3.1644,3.334,3.3723,3.4763,3.5834,3.5834,3.515,3.4435,3.4698,3.3846,3.2948,3.3074,3.1959,3.0889,3.0889,3.0889,3.0889,3.0889,3.0889,3.0889,3.0889,3.0889,3.0889,3.0889,3.0889,3.0889,3.0889,3.0889,3.0889,3.0889,3.0889,3.0889,3.0889,3.0889,3.0889,3.0889,3.0889,3.0889,3.0889,3.0889,3.0889,3.0889,3.0889,3.0889,3.0889,3.0889,3.0889,3.0889,3.0889,3.0889,0.0,0.0,0.0,0.0,0.0,0.0,2.0088,2.04,2.0605,0.0,2.0605,2.0605,2.0605,2.0605,2.0605,2.0605,2.0605,2.0605,2.0605,2.0605,2.0605,2.0605,2.0605,2.0684,2.0928,2.0957,2.1143,2.1582,2.1825,2.2118,2.2469,2.2888,2.3091,2.3091,2.3091,2.3091,2.3091,2.3091,2.3249,2.3525,2.4108,2.4551,2.4814,2.5425,2.5693,2.5693,2.5693,2.5693,2.5693,2.5693,2.5971,2.6426,2.6846,2.7625,2.8518,2.8364,2.8644,2.9128,2.9128,2.966,3.0499,3.1644,3.308,3.4508,3.5054,3.5786,3.6405,3.6405,3.6379,3.6238,3.5672,3.4771,3.4013,3.4013,3.2426,3.0889,3.0889,3.0889,3.0889,3.0889,3.0889,3.0889,3.0889,3.0889,3.0889,3.0889,3.0889,3.0889,3.0889,3.0889,3.0889,3.0889,3.0889,3.0889,3.0889,3.0889,3.0889,3.0889,3.0889,3.0889,3.0889,3.0889,3.0889,3.0889,3.0889,3.0889,3.0889,3.0889,3.0889,3.0889,3.0889,3.0889,0.0,0.0,0.0,0.0,0.0,0.0,2.0488,2.0605,2.0605,2.0605,2.0605,2.0605,2.0605,2.0605,2.0605,2.0605,2.0605,2.0605,2.0605,2.0605,2.0605,2.0605,2.0605,2.0605,2.0605,2.0605,2.0752,2.1113,2.1161,2.1591,2.244,2.284,2.3052,2.3091,2.3091,2.3091,2.3091,2.3091,2.3091,2.311,2.3981,2.4391,2.442,2.5308,2.5693,2.5693,2.5693,2.5693,2.5693,2.5693,2.5991,2.6519,2.7007,2.8264,2.967,2.8839,2.9286,3.0292,3.0292,3.0395,3.0953,3.3539,3.4508,3.4824,3.6037,3.6405,3.643,3.6532,3.7323,3.7942,3.7292,3.6339,3.5508,3.5343,3.3183,3.1112,3.0947,3.1034,3.1112,3.0918,3.0889,3.0889,3.0889,3.0889,3.0889,3.0889,3.0889,3.0889,3.0889,3.0889,3.0889,3.0889,3.0889,3.0889,3.0889,3.0889,3.0889,3.0889,3.0889,3.0889,3.0889,3.0889,3.0889,3.0889,3.0889,3.0889,3.0889,3.0889,3.0889,3.0889,3.0889,3.0889,0.0,0.0,0.0,0.0,0.0,0.0,2.0488,2.0605,2.0605,2.0605,2.0605,2.0605,2.0605,2.0605,2.0605,2.0605,2.0605,2.0605,2.0605,2.0605,2.0605,2.0605,2.0605,2.0605,2.0605,2.0605,2.0625,2.0703,2.1025,2.1591,2.244,2.2566,2.2771,2.3081,2.3091,2.3091,2.3091,2.3091,2.3091,2.311,2.3981,2.4391,2.442,2.5308,2.5693,2.5693,2.5693,2.5693,2.5693,2.5693,2.6167,2.6996,2.8171,2.9255,3.015,2.9985,3.0094,3.0292,3.0292,3.1004,3.218,3.3871,3.5126,3.6061,3.631,3.6405,3.657,3.7437,3.8178,3.8806,3.905,3.8117,3.6757,3.559,3.394,3.234,3.117,3.1815,3.2311,3.1141,3.0889,3.0889,3.0889,3.0889,3.0889,3.0889,3.0889,3.0889,3.0889,3.0889,3.0889,3.0889,3.0889,3.0889,3.0889,3.0889,3.0889,3.0889,3.0889,3.0889,3.0889,3.0889,3.0889,3.0889,3.0889,3.0889,3.0889,3.0889,3.0889,3.0889,3.0889,3.0889,0.0,0.0,0.0,1.9786,0.0,0.0,0.0,2.0605,2.0605,2.0605,2.0605,2.0605,2.0605,2.0605,2.0605,2.0605,2.0605,2.0605,2.0605,2.0605,2.0605,2.0605,2.0605,2.0605,2.0605,2.0605,2.0605,2.0605,2.0966,2.1385,2.1835,2.2254,2.2586,2.2801,2.3006,2.3091,2.3091,2.3091,2.3091,2.311,2.3981,2.4391,2.442,2.5308,2.5693,2.5693,2.5693,2.5693,2.5693,2.5693,2.6616,2.8051,2.873,2.9535,3.0292,3.0292,3.0721,3.1301,3.1301,3.2191,3.3576,3.4945,3.5834,3.6405,3.6405,3.6606,3.6972,3.7776,3.8417,3.9019,3.9546,3.8608,3.7305,3.6568,3.5288,3.3996,3.3258,3.367,3.3968,3.3229,3.2483,3.1767,3.1034,3.0889,3.0889,3.0889,3.0889,3.0889,3.0889,3.0889,3.0889,3.0889,3.0889,3.0889,3.0889,3.0889,3.0889,3.0889,3.0889,3.0889,3.0889,3.0889,3.0889,3.0889,3.0889,3.0889,3.0889,3.0889,3.0889,3.0889,3.0889,3.0889,0.0,0.0,0.0,0.0,0.0,2.0605,0.0,0.0,0.0,2.0605,2.0605,0.0,0.0,0.0,0.0,0.0,0.0,0.0,0.0,2.0605,0.0,2.0605,2.0605,2.0605,2.0605,2.0605,2.0605,2.0605,2.0898,2.1123,2.119,2.1874,2.2323,2.2488,2.282,2.3013,2.3091,2.3091,2.3091,2.311,2.3981,2.4391,2.442,2.5308,2.5693,2.5708,2.5965,2.5917,2.5718,2.5965,2.7224,2.9017,2.9278,3.0077,3.1081,3.1081,3.176,3.2694,3.2694,3.3464,3.4629,3.5966,3.6405,3.6405,3.6405,3.6846,3.7437,3.7889,3.8504,3.9158,3.9584,3.883,3.7849,3.7571,3.6595,3.5645,3.5354,3.5508,3.5645,3.5354,3.457,3.3388,3.1633,3.1083,3.0889,3.0889,3.0889,3.0889,3.0889,3.0889,3.0889,3.0889,3.0889,3.0889,3.0889,3.0889,3.0889,3.0889,3.0889,3.0889,3.0889,3.0889,3.0889,3.0889,3.0889,3.0889,3.0889,3.0889,3.0889,3.0889,3.0889,3.0889,0.0,0.0,0.0,0.0,2.0566,0.0,0.0,0.0,2.0605,2.0605,0.0,0.0,0.0,0.0,0.0,0.0,0.0,0.0,2.0605,2.0605,2.0605,2.0605,2.0605,2.0605,2.0605,2.0605,2.0605,2.0605,2.0644,2.081,2.1171,2.1288,2.1708,2.249,2.2537,2.2742,2.3091,2.3091,2.3091,2.311,2.3981,2.4391,2.442,2.5308,2.5693,2.5757,2.6897,2.673,2.5781,2.6921,2.8028,2.9116,3.0319,3.2065,3.392,3.392,3.403,3.4153,3.4153,3.4263,3.4629,3.5966,3.6405,3.6405,3.6405,3.711,3.7927,3.799,3.8781,3.9609,3.9672,3.9581,3.9115,3.7796,3.7385,3.6892,3.559,3.6325,3.6865,3.5535,3.6217,3.6124,3.3321,3.1767,3.0889,3.0889,3.0889,3.0889,3.0889,3.0889,3.0889,3.0889,3.0889,3.0889,3.0889,3.0889,3.0889,3.0889,3.0889,3.0889,3.0889,3.0889,3.0889,3.0889,3.0889,3.0889,3.0889,3.0889,3.0889,3.0889,3.0889,3.0889,0.0,0.0,0.0,0.0,0.0,0.0,2.0605,0.0,2.0605,0.0,0.0,0.0,0.0,0.0,0.0,0.0,2.0605,0.0,0.0,0.0,2.0605,0.0,0.0,0.0,2.0605,2.0605,2.0605,2.0605,2.0605,2.0664,2.084,2.1074,2.1493,2.2129,2.2383,2.2693,2.3091,2.3091,2.3091,2.311,2.3981,2.4391,2.442,2.5308,2.5693,2.5732,2.6269,2.6197,2.5805,2.7078,2.8628,3.0341,3.1603,3.2537,3.3279,3.4104,3.441,3.441,3.441,3.4908,3.5643,3.6216,3.6405,3.6405,3.6405,3.6934,3.76,3.7914,3.8592,3.9321,3.9609,3.9697,3.9555,3.8908,3.8778,3.8608,3.7979,3.8334,3.8582,3.7979,3.6957,3.5836,3.4598,3.3145,3.1901,3.1034,3.0889,3.0889,3.0889,3.0889,3.0889,3.0889,3.0889,3.0889,3.0889,3.0889,3.0889,3.0889,3.0889,3.0889,3.0889,3.0889,3.0889,3.0889,3.0889,3.0889,3.0889,3.0889,3.0889,3.0889,3.0889,3.0889,2.0605,0.0,0.0,0.0,0.0,0.0,0.0,0.0,0.0,0.0,0.0,0.0,0.0,0.0,0.0,0.0,0.0,2.0605,0.0,2.0605,0.0,0.0,0.0,0.0,0.0,2.0605,2.0605,2.0605,0.0,2.0605,2.0605,2.0869,2.123,2.1689,2.2119,2.2518,2.2937,2.3033,2.3091,2.311,2.3864,2.4284,2.4443,2.5181,2.5784,2.6221,2.6221,2.6404,2.6802,2.772,2.9495,3.1674,3.2559,3.3124,3.354,3.4569,3.4957,3.4957,3.4957,3.5595,3.6405,3.6405,3.6405,3.6405,3.6405,3.6771,3.7299,3.7852,3.8417,3.9019,3.9546,3.9697,3.9697,3.9697,3.9697,3.9697,3.9697,3.9697,3.9697,3.9697,3.7952,3.6255,3.5426,3.3744,3.2121,3.1054,3.0889,3.0889,3.0889,3.0889,3.0889,3.0889,3.0889,3.0889,3.0889,3.0889,3.0889,3.0889,3.0889,3.0889,3.0889,3.0889,3.0889,3.0889,3.0889,3.0889,3.0889,3.0889,3.0889,3.0889,3.0889,3.0889,0.0,0.0,0.0,2.0605,0.0,0.0,0.0,0.0,2.0605,0.0,0.0,0.0,0.0,0.0,0.0,0.0,0.0,0.0,0.0,0.0,0.0,0.0,0.0,0.0,0.0,2.0605,2.0605,0.0,2.0605,0.0,2.0605,2.0615,2.0791,2.12,2.168,2.2109,2.2529,2.2918,2.3091,2.3101,2.3594,2.4023,2.441,2.4906,2.6006,2.7542,2.7542,2.8202,2.9292,2.9338,3.0744,3.2839,3.2886,3.4273,3.6274,3.631,3.6334,3.6334,3.6334,3.6358,3.6405,3.6405,3.6405,3.6405,3.6405,3.6771,3.7299,3.7852,3.8417,3.9019,3.9546,3.9697,3.9697,3.9697,3.9697,3.9697,3.9697,3.9697,3.9697,3.9697,3.9607,3.8647,3.5781,3.2882,3.0947,3.0918,3.0889,3.0889,3.0889,3.0889,3.0889,3.0889,3.0889,3.0889,3.0889,3.0889,3.0889,3.0889,3.0889,3.0889,3.0889,3.0889,3.0889,3.0889,3.0889,3.0889,3.0889,3.0889,3.0889,3.0889,3.0889,3.0889,0.0,0.0,2.2357,2.1688,0.0,0.0,0.0,0.0,0.0,0.0,0.0,0.0,0.0,0.0,0.0,0.0,0.0,0.0,0.0,0.0,0.0,0.0,0.0,0.0,0.0,0.0,0.0,0.0,0.0,0.0,0.0,2.0605,2.0771,2.1201,2.166,2.209,2.251,2.2908,2.3091,2.3101,2.3584,2.4014,2.441,2.4887,2.602,2.7542,2.6706,2.7508,2.9407,2.9407,3.079,3.2979,3.3789,3.5032,3.6405,3.6405,3.6405,3.6405,3.6405,3.6405,3.6405,3.6405,3.6405,3.6405,3.6405,3.6543,3.6859,3.7751,3.8153,3.8517,3.9446,3.9697,3.9697,3.9697,3.9697,3.9697,3.9697,3.9697,3.9697,3.9697,3.8908,3.761,3.5645,3.3659,3.2006,3.1054,3.0889,3.0889,3.0889,3.0889,3.0889,3.0889,3.0889,3.0889,3.0889,3.0889,3.0889,3.0889,3.0889,3.0889,3.0889,3.0889,3.0889,3.0889,3.0889,3.0889,3.0889,3.0889,3.0889,3.0889,3.0889,3.0889,2.3496,2.3496,0.0,2.2702,2.2534,0.0,2.1317,0.0,0.0,0.0,0.0,0.0,0.0,0.0,0.0,0.0,0.0,0.0,0.0,2.0605,0.0,0.0,0.0,0.0,0.0,0.0,0.0,0.0,0.0,0.0,0.0,0.0,2.0723,2.0986,2.1572,2.2012,2.2285,2.283,2.3091,2.3101,2.3406,2.3857,2.4424,2.5176,2.6304,2.7589,2.7197,2.8168,3.0045,3.0045,3.1432,3.3628,3.4396,3.5391,3.6405,3.6405,3.6405,3.6405,3.6405,3.6405,3.6405,3.6405,3.6405,3.6405,3.6405,3.6405,3.657,3.7487,3.7852,3.8216,3.9157,3.9546,3.9697,3.9697,3.9697,3.9697,3.9697,3.9697,3.9697,3.9697,3.8934,3.7648,3.5645,3.4515,3.3191,3.1189,3.0889,3.0889,3.0889,3.0889,3.0889,3.0889,3.0889,3.0889,3.0889,3.0889,3.0889,3.0889,3.0889,3.0889,3.0889,3.0889,3.0889,3.0889,3.0889,3.0889,3.0889,3.0889,3.0889,3.0889,3.0889,3.0889]}]]